<?xml version="1.0" encoding="UTF-8" standalone="no" ?>
<gpx xmlns="http://www.topografix.com/GPX/1/1" xmlns:xsi="http://www.w3.org/2001/XMLSchema-instance" xsi:schemaLocation="http://www.topografix.com/GPX/1/1 http://www.topografix.com/GPX/1/1/gpx.xsd" version="1.1" creator="VisuGPX - https://www.visugpx.com">
  <metadata>
    <name>Montmorin-l'Oule</name>
    <desc><![CDATA[Du village de Montmorin prendre la route forestière jusqu'au Col d'Aron ,puis la monotrace en balcon au Col de Praux ( circuit n°7)et redescendre sur Montmorin, Le Gite de Pra Boyer est une étape inévitable (plats et accueil  remarquables ).]]></desc>
  </metadata>
  <trk>
    <name><![CDATA[VTTMontmorin]]></name>
    <trkseg>
      <trkpt lat="44.45018" lon="5.54304">
        <ele>786.37</ele>
        <time>2016-06-28T07:13:01Z</time>
      </trkpt>
      <trkpt lat="44.45018" lon="5.54303">
        <ele>786.41</ele>
        <time>2016-06-28T07:13:02Z</time>
      </trkpt>
      <trkpt lat="44.45017" lon="5.54306">
        <ele>786.67</ele>
        <time>2016-06-28T07:14:08Z</time>
      </trkpt>
      <trkpt lat="44.45014" lon="5.54306">
        <ele>786.77</ele>
        <time>2016-06-28T07:15:03Z</time>
      </trkpt>
      <trkpt lat="44.45019" lon="5.54306">
        <ele>786.42</ele>
        <time>2016-06-28T07:16:53Z</time>
      </trkpt>
      <trkpt lat="44.45016" lon="5.54307">
        <ele>785.69</ele>
        <time>2016-06-28T07:19:14Z</time>
      </trkpt>
      <trkpt lat="44.45019" lon="5.54303">
        <ele>785.52</ele>
        <time>2016-06-28T07:19:32Z</time>
      </trkpt>
      <trkpt lat="44.4502" lon="5.54301">
        <ele>785.56</ele>
        <time>2016-06-28T07:19:34Z</time>
      </trkpt>
      <trkpt lat="44.45027" lon="5.54279">
        <ele>785.7</ele>
        <time>2016-06-28T07:19:45Z</time>
      </trkpt>
      <trkpt lat="44.45025" lon="5.54278">
        <ele>785.63</ele>
        <time>2016-06-28T07:19:57Z</time>
      </trkpt>
      <trkpt lat="44.45023" lon="5.54288">
        <ele>785.55</ele>
        <time>2016-06-28T07:20:02Z</time>
      </trkpt>
      <trkpt lat="44.45004" lon="5.54342">
        <ele>785.42</ele>
        <time>2016-06-28T07:20:22Z</time>
      </trkpt>
      <trkpt lat="44.44972" lon="5.54419">
        <ele>785.63</ele>
        <time>2016-06-28T07:20:45Z</time>
      </trkpt>
      <trkpt lat="44.44942" lon="5.54476">
        <ele>785.91</ele>
        <time>2016-06-28T07:21:06Z</time>
      </trkpt>
      <trkpt lat="44.4491" lon="5.5454">
        <ele>787.51</ele>
        <time>2016-06-28T07:21:29Z</time>
      </trkpt>
      <trkpt lat="44.44899" lon="5.54608">
        <ele>789.32</ele>
        <time>2016-06-28T07:21:52Z</time>
      </trkpt>
      <trkpt lat="44.44884" lon="5.54669">
        <ele>792.13</ele>
        <time>2016-06-28T07:22:18Z</time>
      </trkpt>
      <trkpt lat="44.44867" lon="5.54725">
        <ele>795.18</ele>
        <time>2016-06-28T07:22:44Z</time>
      </trkpt>
      <trkpt lat="44.44844" lon="5.54769">
        <ele>798.3</ele>
        <time>2016-06-28T07:23:07Z</time>
      </trkpt>
      <trkpt lat="44.44802" lon="5.54781">
        <ele>801.05</ele>
        <time>2016-06-28T07:23:29Z</time>
      </trkpt>
      <trkpt lat="44.44774" lon="5.54824">
        <ele>803.19</ele>
        <time>2016-06-28T07:23:49Z</time>
      </trkpt>
      <trkpt lat="44.44743" lon="5.5488">
        <ele>806.05</ele>
        <time>2016-06-28T07:24:14Z</time>
      </trkpt>
      <trkpt lat="44.44718" lon="5.54934">
        <ele>808.55</ele>
        <time>2016-06-28T07:24:37Z</time>
      </trkpt>
      <trkpt lat="44.4471" lon="5.54965">
        <ele>809.54</ele>
        <time>2016-06-28T07:24:48Z</time>
      </trkpt>
      <trkpt lat="44.44679" lon="5.54992">
        <ele>811.33</ele>
        <time>2016-06-28T07:25:06Z</time>
      </trkpt>
      <trkpt lat="44.44671" lon="5.54996">
        <ele>811.84</ele>
        <time>2016-06-28T07:25:10Z</time>
      </trkpt>
      <trkpt lat="44.44669" lon="5.54997">
        <ele>811.95</ele>
        <time>2016-06-28T07:25:11Z</time>
      </trkpt>
      <trkpt lat="44.44668" lon="5.54999">
        <ele>812.05</ele>
        <time>2016-06-28T07:25:12Z</time>
      </trkpt>
      <trkpt lat="44.44666" lon="5.55">
        <ele>812.15</ele>
        <time>2016-06-28T07:25:13Z</time>
      </trkpt>
      <trkpt lat="44.44665" lon="5.55001">
        <ele>812.23</ele>
        <time>2016-06-28T07:25:14Z</time>
      </trkpt>
      <trkpt lat="44.44663" lon="5.55003">
        <ele>812.31</ele>
        <time>2016-06-28T07:25:15Z</time>
      </trkpt>
      <trkpt lat="44.44643" lon="5.55025">
        <ele>814.08</ele>
        <time>2016-06-28T07:25:29Z</time>
      </trkpt>
      <trkpt lat="44.44642" lon="5.55028">
        <ele>814.17</ele>
        <time>2016-06-28T07:25:30Z</time>
      </trkpt>
      <trkpt lat="44.4464" lon="5.55029">
        <ele>814.28</ele>
        <time>2016-06-28T07:25:31Z</time>
      </trkpt>
      <trkpt lat="44.44638" lon="5.55032">
        <ele>814.39</ele>
        <time>2016-06-28T07:25:32Z</time>
      </trkpt>
      <trkpt lat="44.44636" lon="5.55034">
        <ele>814.51</ele>
        <time>2016-06-28T07:25:33Z</time>
      </trkpt>
      <trkpt lat="44.44634" lon="5.55035">
        <ele>814.62</ele>
        <time>2016-06-28T07:25:34Z</time>
      </trkpt>
      <trkpt lat="44.44632" lon="5.55037">
        <ele>814.73</ele>
        <time>2016-06-28T07:25:35Z</time>
      </trkpt>
      <trkpt lat="44.44602" lon="5.5507">
        <ele>816.42</ele>
        <time>2016-06-28T07:25:53Z</time>
      </trkpt>
      <trkpt lat="44.44566" lon="5.55096">
        <ele>818.7</ele>
        <time>2016-06-28T07:26:13Z</time>
      </trkpt>
      <trkpt lat="44.4454" lon="5.55113">
        <ele>820.91</ele>
        <time>2016-06-28T07:26:27Z</time>
      </trkpt>
      <trkpt lat="44.44539" lon="5.55115">
        <ele>821.09</ele>
        <time>2016-06-28T07:26:28Z</time>
      </trkpt>
      <trkpt lat="44.44537" lon="5.55116">
        <ele>821.26</ele>
        <time>2016-06-28T07:26:29Z</time>
      </trkpt>
      <trkpt lat="44.44535" lon="5.55117">
        <ele>821.43</ele>
        <time>2016-06-28T07:26:30Z</time>
      </trkpt>
      <trkpt lat="44.44534" lon="5.55119">
        <ele>821.6</ele>
        <time>2016-06-28T07:26:31Z</time>
      </trkpt>
      <trkpt lat="44.44532" lon="5.5512">
        <ele>821.74</ele>
        <time>2016-06-28T07:26:32Z</time>
      </trkpt>
      <trkpt lat="44.44531" lon="5.55122">
        <ele>821.87</ele>
        <time>2016-06-28T07:26:33Z</time>
      </trkpt>
      <trkpt lat="44.44504" lon="5.55149">
        <ele>824.04</ele>
        <time>2016-06-28T07:26:50Z</time>
      </trkpt>
      <trkpt lat="44.44499" lon="5.55154">
        <ele>824.46</ele>
        <time>2016-06-28T07:26:54Z</time>
      </trkpt>
      <trkpt lat="44.44497" lon="5.55155">
        <ele>824.59</ele>
        <time>2016-06-28T07:26:55Z</time>
      </trkpt>
      <trkpt lat="44.44496" lon="5.55156">
        <ele>824.72</ele>
        <time>2016-06-28T07:26:56Z</time>
      </trkpt>
      <trkpt lat="44.44495" lon="5.55159">
        <ele>824.85</ele>
        <time>2016-06-28T07:26:57Z</time>
      </trkpt>
      <trkpt lat="44.44493" lon="5.55161">
        <ele>824.98</ele>
        <time>2016-06-28T07:26:58Z</time>
      </trkpt>
      <trkpt lat="44.44492" lon="5.55164">
        <ele>825.12</ele>
        <time>2016-06-28T07:26:59Z</time>
      </trkpt>
      <trkpt lat="44.44491" lon="5.55167">
        <ele>825.26</ele>
        <time>2016-06-28T07:27:00Z</time>
      </trkpt>
      <trkpt lat="44.4449" lon="5.55171">
        <ele>825.4</ele>
        <time>2016-06-28T07:27:01Z</time>
      </trkpt>
      <trkpt lat="44.44489" lon="5.55174">
        <ele>825.53</ele>
        <time>2016-06-28T07:27:02Z</time>
      </trkpt>
      <trkpt lat="44.44464" lon="5.55257">
        <ele>827.41</ele>
        <time>2016-06-28T07:27:28Z</time>
      </trkpt>
      <trkpt lat="44.44429" lon="5.55338">
        <ele>829.25</ele>
        <time>2016-06-28T07:27:54Z</time>
      </trkpt>
      <trkpt lat="44.44398" lon="5.55389">
        <ele>830.34</ele>
        <time>2016-06-28T07:28:15Z</time>
      </trkpt>
      <trkpt lat="44.44389" lon="5.55413">
        <ele>830.65</ele>
        <time>2016-06-28T07:28:26Z</time>
      </trkpt>
      <trkpt lat="44.44389" lon="5.55416">
        <ele>830.77</ele>
        <time>2016-06-28T07:28:34Z</time>
      </trkpt>
      <trkpt lat="44.44389" lon="5.55419">
        <ele>830.77</ele>
        <time>2016-06-28T07:28:35Z</time>
      </trkpt>
      <trkpt lat="44.44389" lon="5.55421">
        <ele>830.78</ele>
        <time>2016-06-28T07:28:36Z</time>
      </trkpt>
      <trkpt lat="44.44388" lon="5.55424">
        <ele>830.78</ele>
        <time>2016-06-28T07:28:37Z</time>
      </trkpt>
      <trkpt lat="44.44388" lon="5.55426">
        <ele>830.79</ele>
        <time>2016-06-28T07:28:38Z</time>
      </trkpt>
      <trkpt lat="44.44388" lon="5.55429">
        <ele>830.81</ele>
        <time>2016-06-28T07:28:39Z</time>
      </trkpt>
      <trkpt lat="44.44376" lon="5.5549">
        <ele>831.41</ele>
        <time>2016-06-28T07:29:00Z</time>
      </trkpt>
      <trkpt lat="44.44399" lon="5.55556">
        <ele>832.14</ele>
        <time>2016-06-28T07:29:24Z</time>
      </trkpt>
      <trkpt lat="44.44404" lon="5.55622">
        <ele>833.2</ele>
        <time>2016-06-28T07:29:43Z</time>
      </trkpt>
      <trkpt lat="44.44385" lon="5.55671">
        <ele>834.49</ele>
        <time>2016-06-28T07:30:00Z</time>
      </trkpt>
      <trkpt lat="44.4437" lon="5.55743">
        <ele>836.52</ele>
        <time>2016-06-28T07:30:22Z</time>
      </trkpt>
      <trkpt lat="44.4437" lon="5.55816">
        <ele>838.62</ele>
        <time>2016-06-28T07:30:44Z</time>
      </trkpt>
      <trkpt lat="44.44363" lon="5.55891">
        <ele>840.75</ele>
        <time>2016-06-28T07:31:07Z</time>
      </trkpt>
      <trkpt lat="44.44367" lon="5.55949">
        <ele>840.56</ele>
        <time>2016-06-28T07:31:30Z</time>
      </trkpt>
      <trkpt lat="44.44373" lon="5.56028">
        <ele>841.31</ele>
        <time>2016-06-28T07:31:56Z</time>
      </trkpt>
      <trkpt lat="44.44389" lon="5.56092">
        <ele>843.16</ele>
        <time>2016-06-28T07:32:19Z</time>
      </trkpt>
      <trkpt lat="44.44399" lon="5.5615">
        <ele>845.32</ele>
        <time>2016-06-28T07:32:38Z</time>
      </trkpt>
      <trkpt lat="44.44406" lon="5.56205">
        <ele>848.43</ele>
        <time>2016-06-28T07:32:57Z</time>
      </trkpt>
      <trkpt lat="44.44411" lon="5.56271">
        <ele>851.49</ele>
        <time>2016-06-28T07:33:20Z</time>
      </trkpt>
      <trkpt lat="44.44424" lon="5.56358">
        <ele>853.91</ele>
        <time>2016-06-28T07:33:47Z</time>
      </trkpt>
      <trkpt lat="44.44436" lon="5.56444">
        <ele>854.06</ele>
        <time>2016-06-28T07:34:08Z</time>
      </trkpt>
      <trkpt lat="44.44452" lon="5.565">
        <ele>854.06</ele>
        <time>2016-06-28T07:34:24Z</time>
      </trkpt>
      <trkpt lat="44.44485" lon="5.56525">
        <ele>855.64</ele>
        <time>2016-06-28T07:34:40Z</time>
      </trkpt>
      <trkpt lat="44.44501" lon="5.56588">
        <ele>857.42</ele>
        <time>2016-06-28T07:34:59Z</time>
      </trkpt>
      <trkpt lat="44.4451" lon="5.56651">
        <ele>858.63</ele>
        <time>2016-06-28T07:35:18Z</time>
      </trkpt>
      <trkpt lat="44.44514" lon="5.5671">
        <ele>859.82</ele>
        <time>2016-06-28T07:35:36Z</time>
      </trkpt>
      <trkpt lat="44.44528" lon="5.56776">
        <ele>862.88</ele>
        <time>2016-06-28T07:35:57Z</time>
      </trkpt>
      <trkpt lat="44.4455" lon="5.56818">
        <ele>864.93</ele>
        <time>2016-06-28T07:36:16Z</time>
      </trkpt>
      <trkpt lat="44.4458" lon="5.56853">
        <ele>867.15</ele>
        <time>2016-06-28T07:36:35Z</time>
      </trkpt>
      <trkpt lat="44.44604" lon="5.56887">
        <ele>869.52</ele>
        <time>2016-06-28T07:36:53Z</time>
      </trkpt>
      <trkpt lat="44.44601" lon="5.56935">
        <ele>872.35</ele>
        <time>2016-06-28T07:37:12Z</time>
      </trkpt>
      <trkpt lat="44.4461" lon="5.56989">
        <ele>873.53</ele>
        <time>2016-06-28T07:37:34Z</time>
      </trkpt>
      <trkpt lat="44.44622" lon="5.5703">
        <ele>874.04</ele>
        <time>2016-06-28T07:37:49Z</time>
      </trkpt>
      <trkpt lat="44.44636" lon="5.57095">
        <ele>877.04</ele>
        <time>2016-06-28T07:38:13Z</time>
      </trkpt>
      <trkpt lat="44.44654" lon="5.57145">
        <ele>880.09</ele>
        <time>2016-06-28T07:38:34Z</time>
      </trkpt>
      <trkpt lat="44.44673" lon="5.57183">
        <ele>882.27</ele>
        <time>2016-06-28T07:38:52Z</time>
      </trkpt>
      <trkpt lat="44.44713" lon="5.57224">
        <ele>882.86</ele>
        <time>2016-06-28T07:39:11Z</time>
      </trkpt>
      <trkpt lat="44.44744" lon="5.57251">
        <ele>883.47</ele>
        <time>2016-06-28T07:39:28Z</time>
      </trkpt>
      <trkpt lat="44.44773" lon="5.57268">
        <ele>884.9</ele>
        <time>2016-06-28T07:39:46Z</time>
      </trkpt>
      <trkpt lat="44.44813" lon="5.57295">
        <ele>886.96</ele>
        <time>2016-06-28T07:40:07Z</time>
      </trkpt>
      <trkpt lat="44.44834" lon="5.57351">
        <ele>887.43</ele>
        <time>2016-06-28T07:40:28Z</time>
      </trkpt>
      <trkpt lat="44.44832" lon="5.57352">
        <ele>887.4</ele>
        <time>2016-06-28T07:40:29Z</time>
      </trkpt>
      <trkpt lat="44.44831" lon="5.57353">
        <ele>887.37</ele>
        <time>2016-06-28T07:40:30Z</time>
      </trkpt>
      <trkpt lat="44.4483" lon="5.57355">
        <ele>887.35</ele>
        <time>2016-06-28T07:40:31Z</time>
      </trkpt>
      <trkpt lat="44.4483" lon="5.57357">
        <ele>887.33</ele>
        <time>2016-06-28T07:40:32Z</time>
      </trkpt>
      <trkpt lat="44.4483" lon="5.5736">
        <ele>887.3</ele>
        <time>2016-06-28T07:40:33Z</time>
      </trkpt>
      <trkpt lat="44.4483" lon="5.57362">
        <ele>887.27</ele>
        <time>2016-06-28T07:40:34Z</time>
      </trkpt>
      <trkpt lat="44.44831" lon="5.57364">
        <ele>887.25</ele>
        <time>2016-06-28T07:40:35Z</time>
      </trkpt>
      <trkpt lat="44.44832" lon="5.57366">
        <ele>887.25</ele>
        <time>2016-06-28T07:40:36Z</time>
      </trkpt>
      <trkpt lat="44.44833" lon="5.57367">
        <ele>887.27</ele>
        <time>2016-06-28T07:40:37Z</time>
      </trkpt>
      <trkpt lat="44.44834" lon="5.57369">
        <ele>887.29</ele>
        <time>2016-06-28T07:40:38Z</time>
      </trkpt>
      <trkpt lat="44.44835" lon="5.5737">
        <ele>887.33</ele>
        <time>2016-06-28T07:40:39Z</time>
      </trkpt>
      <trkpt lat="44.44837" lon="5.57371">
        <ele>887.35</ele>
        <time>2016-06-28T07:40:40Z</time>
      </trkpt>
      <trkpt lat="44.44838" lon="5.57372">
        <ele>887.4</ele>
        <time>2016-06-28T07:40:41Z</time>
      </trkpt>
      <trkpt lat="44.4488" lon="5.5741">
        <ele>889.42</ele>
        <time>2016-06-28T07:41:06Z</time>
      </trkpt>
      <trkpt lat="44.44917" lon="5.57445">
        <ele>891.45</ele>
        <time>2016-06-28T07:41:28Z</time>
      </trkpt>
      <trkpt lat="44.44949" lon="5.57481">
        <ele>894.58</ele>
        <time>2016-06-28T07:41:51Z</time>
      </trkpt>
      <trkpt lat="44.44968" lon="5.57498">
        <ele>896.51</ele>
        <time>2016-06-28T07:42:03Z</time>
      </trkpt>
      <trkpt lat="44.44969" lon="5.57499">
        <ele>896.71</ele>
        <time>2016-06-28T07:42:04Z</time>
      </trkpt>
      <trkpt lat="44.44997" lon="5.57536">
        <ele>898.75</ele>
        <time>2016-06-28T07:42:23Z</time>
      </trkpt>
      <trkpt lat="44.45035" lon="5.57593">
        <ele>898.79</ele>
        <time>2016-06-28T07:42:46Z</time>
      </trkpt>
      <trkpt lat="44.45067" lon="5.57643">
        <ele>899.96</ele>
        <time>2016-06-28T07:43:06Z</time>
      </trkpt>
      <trkpt lat="44.45097" lon="5.57671">
        <ele>900.68</ele>
        <time>2016-06-28T07:43:21Z</time>
      </trkpt>
      <trkpt lat="44.451" lon="5.57673">
        <ele>900.8</ele>
        <time>2016-06-28T07:43:22Z</time>
      </trkpt>
      <trkpt lat="44.45107" lon="5.57676">
        <ele>901.11</ele>
        <time>2016-06-28T07:43:25Z</time>
      </trkpt>
      <trkpt lat="44.4511" lon="5.57677">
        <ele>901.18</ele>
        <time>2016-06-28T07:43:26Z</time>
      </trkpt>
      <trkpt lat="44.45113" lon="5.57678">
        <ele>901.25</ele>
        <time>2016-06-28T07:43:27Z</time>
      </trkpt>
      <trkpt lat="44.45164" lon="5.57712">
        <ele>903.48</ele>
        <time>2016-06-28T07:43:50Z</time>
      </trkpt>
      <trkpt lat="44.45196" lon="5.57724">
        <ele>906.53</ele>
        <time>2016-06-28T07:44:09Z</time>
      </trkpt>
      <trkpt lat="44.45226" lon="5.57724">
        <ele>909.55</ele>
        <time>2016-06-28T07:44:26Z</time>
      </trkpt>
      <trkpt lat="44.45251" lon="5.5776">
        <ele>912.24</ele>
        <time>2016-06-28T07:44:44Z</time>
      </trkpt>
      <trkpt lat="44.45264" lon="5.57789">
        <ele>913.42</ele>
        <time>2016-06-28T07:44:56Z</time>
      </trkpt>
      <trkpt lat="44.45265" lon="5.57792">
        <ele>913.48</ele>
        <time>2016-06-28T07:44:57Z</time>
      </trkpt>
      <trkpt lat="44.45266" lon="5.57794">
        <ele>913.54</ele>
        <time>2016-06-28T07:44:58Z</time>
      </trkpt>
      <trkpt lat="44.45268" lon="5.57797">
        <ele>913.6</ele>
        <time>2016-06-28T07:44:59Z</time>
      </trkpt>
      <trkpt lat="44.45269" lon="5.57799">
        <ele>913.65</ele>
        <time>2016-06-28T07:45:00Z</time>
      </trkpt>
      <trkpt lat="44.4527" lon="5.57801">
        <ele>913.68</ele>
        <time>2016-06-28T07:45:01Z</time>
      </trkpt>
      <trkpt lat="44.45272" lon="5.57804">
        <ele>913.74</ele>
        <time>2016-06-28T07:45:02Z</time>
      </trkpt>
      <trkpt lat="44.45273" lon="5.57806">
        <ele>913.79</ele>
        <time>2016-06-28T07:45:03Z</time>
      </trkpt>
      <trkpt lat="44.45274" lon="5.57808">
        <ele>913.83</ele>
        <time>2016-06-28T07:45:04Z</time>
      </trkpt>
      <trkpt lat="44.45275" lon="5.5781">
        <ele>913.87</ele>
        <time>2016-06-28T07:45:05Z</time>
      </trkpt>
      <trkpt lat="44.45276" lon="5.57811">
        <ele>913.92</ele>
        <time>2016-06-28T07:45:06Z</time>
      </trkpt>
      <trkpt lat="44.45277" lon="5.57812">
        <ele>913.96</ele>
        <time>2016-06-28T07:45:07Z</time>
      </trkpt>
      <trkpt lat="44.45279" lon="5.57814">
        <ele>914.01</ele>
        <time>2016-06-28T07:45:08Z</time>
      </trkpt>
      <trkpt lat="44.4528" lon="5.57815">
        <ele>914.05</ele>
        <time>2016-06-28T07:45:09Z</time>
      </trkpt>
      <trkpt lat="44.45293" lon="5.57839">
        <ele>914.89</ele>
        <time>2016-06-28T07:45:20Z</time>
      </trkpt>
      <trkpt lat="44.45295" lon="5.57841">
        <ele>914.98</ele>
        <time>2016-06-28T07:45:21Z</time>
      </trkpt>
      <trkpt lat="44.4532" lon="5.57868">
        <ele>916.39</ele>
        <time>2016-06-28T07:45:38Z</time>
      </trkpt>
      <trkpt lat="44.45332" lon="5.57876">
        <ele>917.59</ele>
        <time>2016-06-28T07:45:45Z</time>
      </trkpt>
      <trkpt lat="44.45333" lon="5.57877">
        <ele>917.76</ele>
        <time>2016-06-28T07:45:46Z</time>
      </trkpt>
      <trkpt lat="44.45335" lon="5.57878">
        <ele>917.91</ele>
        <time>2016-06-28T07:45:47Z</time>
      </trkpt>
      <trkpt lat="44.45343" lon="5.57883">
        <ele>918.56</ele>
        <time>2016-06-28T07:45:51Z</time>
      </trkpt>
      <trkpt lat="44.45345" lon="5.57885">
        <ele>918.71</ele>
        <time>2016-06-28T07:45:52Z</time>
      </trkpt>
      <trkpt lat="44.45347" lon="5.57886">
        <ele>918.83</ele>
        <time>2016-06-28T07:45:53Z</time>
      </trkpt>
      <trkpt lat="44.45349" lon="5.57887">
        <ele>918.95</ele>
        <time>2016-06-28T07:45:54Z</time>
      </trkpt>
      <trkpt lat="44.45351" lon="5.57888">
        <ele>919.06</ele>
        <time>2016-06-28T07:45:55Z</time>
      </trkpt>
      <trkpt lat="44.45353" lon="5.57889">
        <ele>919.19</ele>
        <time>2016-06-28T07:45:56Z</time>
      </trkpt>
      <trkpt lat="44.45355" lon="5.5789">
        <ele>919.33</ele>
        <time>2016-06-28T07:45:57Z</time>
      </trkpt>
      <trkpt lat="44.45357" lon="5.57891">
        <ele>919.47</ele>
        <time>2016-06-28T07:45:58Z</time>
      </trkpt>
      <trkpt lat="44.45359" lon="5.57892">
        <ele>919.59</ele>
        <time>2016-06-28T07:45:59Z</time>
      </trkpt>
      <trkpt lat="44.45397" lon="5.57916">
        <ele>922.58</ele>
        <time>2016-06-28T07:46:20Z</time>
      </trkpt>
      <trkpt lat="44.45423" lon="5.57932">
        <ele>924.56</ele>
        <time>2016-06-28T07:46:38Z</time>
      </trkpt>
      <trkpt lat="44.4542" lon="5.5793">
        <ele>924.89</ele>
        <time>2016-06-28T07:47:13Z</time>
      </trkpt>
      <trkpt lat="44.4542" lon="5.57931">
        <ele>924.92</ele>
        <time>2016-06-28T07:48:07Z</time>
      </trkpt>
      <trkpt lat="44.4542" lon="5.57932">
        <ele>924.97</ele>
        <time>2016-06-28T07:49:01Z</time>
      </trkpt>
      <trkpt lat="44.4542" lon="5.57936">
        <ele>924.69</ele>
        <time>2016-06-28T07:49:45Z</time>
      </trkpt>
      <trkpt lat="44.45418" lon="5.57935">
        <ele>925.02</ele>
        <time>2016-06-28T07:50:32Z</time>
      </trkpt>
      <trkpt lat="44.4542" lon="5.57933">
        <ele>925.3</ele>
        <time>2016-06-28T07:51:33Z</time>
      </trkpt>
      <trkpt lat="44.45424" lon="5.57932">
        <ele>925.42</ele>
        <time>2016-06-28T07:52:23Z</time>
      </trkpt>
      <trkpt lat="44.4542" lon="5.57939">
        <ele>925.36</ele>
        <time>2016-06-28T07:53:19Z</time>
      </trkpt>
      <trkpt lat="44.45423" lon="5.5794">
        <ele>925.25</ele>
        <time>2016-06-28T07:53:29Z</time>
      </trkpt>
      <trkpt lat="44.45425" lon="5.57941">
        <ele>925.24</ele>
        <time>2016-06-28T07:53:30Z</time>
      </trkpt>
      <trkpt lat="44.45427" lon="5.57942">
        <ele>925.23</ele>
        <time>2016-06-28T07:53:31Z</time>
      </trkpt>
      <trkpt lat="44.45474" lon="5.57955">
        <ele>925.12</ele>
        <time>2016-06-28T07:53:50Z</time>
      </trkpt>
      <trkpt lat="44.45522" lon="5.57954">
        <ele>925.04</ele>
        <time>2016-06-28T07:54:06Z</time>
      </trkpt>
      <trkpt lat="44.45561" lon="5.57981">
        <ele>925.92</ele>
        <time>2016-06-28T07:54:22Z</time>
      </trkpt>
      <trkpt lat="44.45599" lon="5.58014">
        <ele>928.46</ele>
        <time>2016-06-28T07:54:40Z</time>
      </trkpt>
      <trkpt lat="44.45638" lon="5.58042">
        <ele>930.79</ele>
        <time>2016-06-28T07:55:00Z</time>
      </trkpt>
      <trkpt lat="44.45641" lon="5.58047">
        <ele>930.95</ele>
        <time>2016-06-28T07:55:02Z</time>
      </trkpt>
      <trkpt lat="44.45669" lon="5.58059">
        <ele>932.59</ele>
        <time>2016-06-28T07:55:17Z</time>
      </trkpt>
      <trkpt lat="44.45683" lon="5.58072">
        <ele>934.08</ele>
        <time>2016-06-28T07:55:27Z</time>
      </trkpt>
      <trkpt lat="44.45684" lon="5.58073">
        <ele>934.25</ele>
        <time>2016-06-28T07:55:28Z</time>
      </trkpt>
      <trkpt lat="44.45686" lon="5.58075">
        <ele>934.39</ele>
        <time>2016-06-28T07:55:29Z</time>
      </trkpt>
      <trkpt lat="44.45687" lon="5.58076">
        <ele>934.53</ele>
        <time>2016-06-28T07:55:30Z</time>
      </trkpt>
      <trkpt lat="44.45688" lon="5.58077">
        <ele>934.67</ele>
        <time>2016-06-28T07:55:31Z</time>
      </trkpt>
      <trkpt lat="44.45689" lon="5.58079">
        <ele>934.82</ele>
        <time>2016-06-28T07:55:32Z</time>
      </trkpt>
      <trkpt lat="44.4569" lon="5.5808">
        <ele>934.97</ele>
        <time>2016-06-28T07:55:33Z</time>
      </trkpt>
      <trkpt lat="44.45691" lon="5.58082">
        <ele>935.26</ele>
        <time>2016-06-28T07:55:34Z</time>
      </trkpt>
      <trkpt lat="44.45692" lon="5.58083">
        <ele>935.41</ele>
        <time>2016-06-28T07:55:35Z</time>
      </trkpt>
      <trkpt lat="44.45693" lon="5.58085">
        <ele>935.53</ele>
        <time>2016-06-28T07:55:36Z</time>
      </trkpt>
      <trkpt lat="44.45696" lon="5.58089">
        <ele>935.94</ele>
        <time>2016-06-28T07:55:39Z</time>
      </trkpt>
      <trkpt lat="44.45697" lon="5.5809">
        <ele>936.07</ele>
        <time>2016-06-28T07:55:40Z</time>
      </trkpt>
      <trkpt lat="44.45698" lon="5.58091">
        <ele>936.18</ele>
        <time>2016-06-28T07:55:41Z</time>
      </trkpt>
      <trkpt lat="44.45699" lon="5.58093">
        <ele>936.28</ele>
        <time>2016-06-28T07:55:42Z</time>
      </trkpt>
      <trkpt lat="44.45699" lon="5.58094">
        <ele>936.38</ele>
        <time>2016-06-28T07:55:43Z</time>
      </trkpt>
      <trkpt lat="44.45699" lon="5.58096">
        <ele>936.48</ele>
        <time>2016-06-28T07:55:44Z</time>
      </trkpt>
      <trkpt lat="44.457" lon="5.58097">
        <ele>936.58</ele>
        <time>2016-06-28T07:55:45Z</time>
      </trkpt>
      <trkpt lat="44.45701" lon="5.58099">
        <ele>936.68</ele>
        <time>2016-06-28T07:55:46Z</time>
      </trkpt>
      <trkpt lat="44.45702" lon="5.58101">
        <ele>936.82</ele>
        <time>2016-06-28T07:55:47Z</time>
      </trkpt>
      <trkpt lat="44.45704" lon="5.58106">
        <ele>937.51</ele>
        <time>2016-06-28T07:55:50Z</time>
      </trkpt>
      <trkpt lat="44.45705" lon="5.58108">
        <ele>937.72</ele>
        <time>2016-06-28T07:55:51Z</time>
      </trkpt>
      <trkpt lat="44.45705" lon="5.5811">
        <ele>937.91</ele>
        <time>2016-06-28T07:55:52Z</time>
      </trkpt>
      <trkpt lat="44.45706" lon="5.58111">
        <ele>938.08</ele>
        <time>2016-06-28T07:55:53Z</time>
      </trkpt>
      <trkpt lat="44.45707" lon="5.58114">
        <ele>938.25</ele>
        <time>2016-06-28T07:55:54Z</time>
      </trkpt>
      <trkpt lat="44.45707" lon="5.58116">
        <ele>938.42</ele>
        <time>2016-06-28T07:55:55Z</time>
      </trkpt>
      <trkpt lat="44.4571" lon="5.58127">
        <ele>939.38</ele>
        <time>2016-06-28T07:56:00Z</time>
      </trkpt>
      <trkpt lat="44.4571" lon="5.58129">
        <ele>939.52</ele>
        <time>2016-06-28T07:56:01Z</time>
      </trkpt>
      <trkpt lat="44.45696" lon="5.58156">
        <ele>942.08</ele>
        <time>2016-06-28T07:56:21Z</time>
      </trkpt>
      <trkpt lat="44.45692" lon="5.58153">
        <ele>942.63</ele>
        <time>2016-06-28T07:56:24Z</time>
      </trkpt>
      <trkpt lat="44.4569" lon="5.58152">
        <ele>942.78</ele>
        <time>2016-06-28T07:56:25Z</time>
      </trkpt>
      <trkpt lat="44.45689" lon="5.5815">
        <ele>942.93</ele>
        <time>2016-06-28T07:56:26Z</time>
      </trkpt>
      <trkpt lat="44.45688" lon="5.58149">
        <ele>943.09</ele>
        <time>2016-06-28T07:56:27Z</time>
      </trkpt>
      <trkpt lat="44.45687" lon="5.58148">
        <ele>943.27</ele>
        <time>2016-06-28T07:56:28Z</time>
      </trkpt>
      <trkpt lat="44.45687" lon="5.58146">
        <ele>943.45</ele>
        <time>2016-06-28T07:56:29Z</time>
      </trkpt>
      <trkpt lat="44.45684" lon="5.58142">
        <ele>944.07</ele>
        <time>2016-06-28T07:56:32Z</time>
      </trkpt>
      <trkpt lat="44.45684" lon="5.58141">
        <ele>944.26</ele>
        <time>2016-06-28T07:56:33Z</time>
      </trkpt>
      <trkpt lat="44.45684" lon="5.58139">
        <ele>944.43</ele>
        <time>2016-06-28T07:56:34Z</time>
      </trkpt>
      <trkpt lat="44.45683" lon="5.58138">
        <ele>944.58</ele>
        <time>2016-06-28T07:56:35Z</time>
      </trkpt>
      <trkpt lat="44.45682" lon="5.58138">
        <ele>944.72</ele>
        <time>2016-06-28T07:56:36Z</time>
      </trkpt>
      <trkpt lat="44.45681" lon="5.58137">
        <ele>944.85</ele>
        <time>2016-06-28T07:56:37Z</time>
      </trkpt>
      <trkpt lat="44.45679" lon="5.58136">
        <ele>944.96</ele>
        <time>2016-06-28T07:56:38Z</time>
      </trkpt>
      <trkpt lat="44.45678" lon="5.58135">
        <ele>945.06</ele>
        <time>2016-06-28T07:56:39Z</time>
      </trkpt>
      <trkpt lat="44.45676" lon="5.58134">
        <ele>945.17</ele>
        <time>2016-06-28T07:56:40Z</time>
      </trkpt>
      <trkpt lat="44.45675" lon="5.58132">
        <ele>945.28</ele>
        <time>2016-06-28T07:56:41Z</time>
      </trkpt>
      <trkpt lat="44.45668" lon="5.58124">
        <ele>946.57</ele>
        <time>2016-06-28T07:56:48Z</time>
      </trkpt>
      <trkpt lat="44.45666" lon="5.58124">
        <ele>946.73</ele>
        <time>2016-06-28T07:56:49Z</time>
      </trkpt>
      <trkpt lat="44.45665" lon="5.58123">
        <ele>946.87</ele>
        <time>2016-06-28T07:56:50Z</time>
      </trkpt>
      <trkpt lat="44.45664" lon="5.58122">
        <ele>946.99</ele>
        <time>2016-06-28T07:56:51Z</time>
      </trkpt>
      <trkpt lat="44.45664" lon="5.5812">
        <ele>947.09</ele>
        <time>2016-06-28T07:56:52Z</time>
      </trkpt>
      <trkpt lat="44.45663" lon="5.58119">
        <ele>947.19</ele>
        <time>2016-06-28T07:56:53Z</time>
      </trkpt>
      <trkpt lat="44.45662" lon="5.58118">
        <ele>947.31</ele>
        <time>2016-06-28T07:56:54Z</time>
      </trkpt>
      <trkpt lat="44.4566" lon="5.58116">
        <ele>947.55</ele>
        <time>2016-06-28T07:56:56Z</time>
      </trkpt>
      <trkpt lat="44.4566" lon="5.58114">
        <ele>947.65</ele>
        <time>2016-06-28T07:56:57Z</time>
      </trkpt>
      <trkpt lat="44.45659" lon="5.58112">
        <ele>947.75</ele>
        <time>2016-06-28T07:56:58Z</time>
      </trkpt>
      <trkpt lat="44.45658" lon="5.58111">
        <ele>947.84</ele>
        <time>2016-06-28T07:56:59Z</time>
      </trkpt>
      <trkpt lat="44.45657" lon="5.5811">
        <ele>947.94</ele>
        <time>2016-06-28T07:57:00Z</time>
      </trkpt>
      <trkpt lat="44.45655" lon="5.58109">
        <ele>948.03</ele>
        <time>2016-06-28T07:57:01Z</time>
      </trkpt>
      <trkpt lat="44.45654" lon="5.58108">
        <ele>948.14</ele>
        <time>2016-06-28T07:57:02Z</time>
      </trkpt>
      <trkpt lat="44.45653" lon="5.58107">
        <ele>948.28</ele>
        <time>2016-06-28T07:57:03Z</time>
      </trkpt>
      <trkpt lat="44.45631" lon="5.58098">
        <ele>951.29</ele>
        <time>2016-06-28T07:57:22Z</time>
      </trkpt>
      <trkpt lat="44.45608" lon="5.5812">
        <ele>954.35</ele>
        <time>2016-06-28T07:57:43Z</time>
      </trkpt>
      <trkpt lat="44.45588" lon="5.58151">
        <ele>957.32</ele>
        <time>2016-06-28T07:58:04Z</time>
      </trkpt>
      <trkpt lat="44.45557" lon="5.58186">
        <ele>960.38</ele>
        <time>2016-06-28T07:58:27Z</time>
      </trkpt>
      <trkpt lat="44.45536" lon="5.58211">
        <ele>962.82</ele>
        <time>2016-06-28T07:58:44Z</time>
      </trkpt>
      <trkpt lat="44.4552" lon="5.58244">
        <ele>965.95</ele>
        <time>2016-06-28T07:59:02Z</time>
      </trkpt>
      <trkpt lat="44.45513" lon="5.58285">
        <ele>968.95</ele>
        <time>2016-06-28T07:59:21Z</time>
      </trkpt>
      <trkpt lat="44.455" lon="5.58323">
        <ele>972.09</ele>
        <time>2016-06-28T07:59:41Z</time>
      </trkpt>
      <trkpt lat="44.45478" lon="5.58364">
        <ele>974.94</ele>
        <time>2016-06-28T08:00:05Z</time>
      </trkpt>
      <trkpt lat="44.45469" lon="5.58373">
        <ele>975.78</ele>
        <time>2016-06-28T08:00:12Z</time>
      </trkpt>
      <trkpt lat="44.45456" lon="5.58364">
        <ele>977.3</ele>
        <time>2016-06-28T08:00:21Z</time>
      </trkpt>
      <trkpt lat="44.45456" lon="5.58362">
        <ele>977.52</ele>
        <time>2016-06-28T08:00:22Z</time>
      </trkpt>
      <trkpt lat="44.45456" lon="5.5836">
        <ele>977.72</ele>
        <time>2016-06-28T08:00:23Z</time>
      </trkpt>
      <trkpt lat="44.45455" lon="5.58358">
        <ele>977.92</ele>
        <time>2016-06-28T08:00:24Z</time>
      </trkpt>
      <trkpt lat="44.45455" lon="5.58356">
        <ele>978.1</ele>
        <time>2016-06-28T08:00:25Z</time>
      </trkpt>
      <trkpt lat="44.45454" lon="5.58354">
        <ele>978.27</ele>
        <time>2016-06-28T08:00:26Z</time>
      </trkpt>
      <trkpt lat="44.45454" lon="5.58352">
        <ele>978.44</ele>
        <time>2016-06-28T08:00:27Z</time>
      </trkpt>
      <trkpt lat="44.45454" lon="5.5835">
        <ele>978.61</ele>
        <time>2016-06-28T08:00:28Z</time>
      </trkpt>
      <trkpt lat="44.45454" lon="5.58348">
        <ele>978.76</ele>
        <time>2016-06-28T08:00:29Z</time>
      </trkpt>
      <trkpt lat="44.45454" lon="5.58346">
        <ele>978.91</ele>
        <time>2016-06-28T08:00:30Z</time>
      </trkpt>
      <trkpt lat="44.45454" lon="5.58344">
        <ele>979.05</ele>
        <time>2016-06-28T08:00:31Z</time>
      </trkpt>
      <trkpt lat="44.45454" lon="5.58342">
        <ele>979.2</ele>
        <time>2016-06-28T08:00:32Z</time>
      </trkpt>
      <trkpt lat="44.45454" lon="5.5834">
        <ele>979.37</ele>
        <time>2016-06-28T08:00:33Z</time>
      </trkpt>
      <trkpt lat="44.45454" lon="5.58338">
        <ele>979.53</ele>
        <time>2016-06-28T08:00:34Z</time>
      </trkpt>
      <trkpt lat="44.45454" lon="5.58336">
        <ele>979.68</ele>
        <time>2016-06-28T08:00:35Z</time>
      </trkpt>
      <trkpt lat="44.45453" lon="5.58334">
        <ele>979.84</ele>
        <time>2016-06-28T08:00:36Z</time>
      </trkpt>
      <trkpt lat="44.45453" lon="5.58332">
        <ele>979.99</ele>
        <time>2016-06-28T08:00:37Z</time>
      </trkpt>
      <trkpt lat="44.45453" lon="5.5833">
        <ele>980.3</ele>
        <time>2016-06-28T08:00:38Z</time>
      </trkpt>
      <trkpt lat="44.45449" lon="5.58309">
        <ele>981.93</ele>
        <time>2016-06-28T08:00:48Z</time>
      </trkpt>
      <trkpt lat="44.45449" lon="5.58306">
        <ele>982.05</ele>
        <time>2016-06-28T08:00:49Z</time>
      </trkpt>
      <trkpt lat="44.45448" lon="5.58304">
        <ele>982.17</ele>
        <time>2016-06-28T08:00:50Z</time>
      </trkpt>
      <trkpt lat="44.45448" lon="5.58303">
        <ele>982.3</ele>
        <time>2016-06-28T08:00:51Z</time>
      </trkpt>
      <trkpt lat="44.45448" lon="5.58301">
        <ele>982.43</ele>
        <time>2016-06-28T08:00:52Z</time>
      </trkpt>
      <trkpt lat="44.45447" lon="5.58299">
        <ele>982.56</ele>
        <time>2016-06-28T08:00:53Z</time>
      </trkpt>
      <trkpt lat="44.45446" lon="5.58298">
        <ele>982.67</ele>
        <time>2016-06-28T08:00:54Z</time>
      </trkpt>
      <trkpt lat="44.45446" lon="5.58296">
        <ele>982.77</ele>
        <time>2016-06-28T08:00:55Z</time>
      </trkpt>
      <trkpt lat="44.45445" lon="5.58294">
        <ele>982.88</ele>
        <time>2016-06-28T08:00:56Z</time>
      </trkpt>
      <trkpt lat="44.45445" lon="5.58292">
        <ele>982.96</ele>
        <time>2016-06-28T08:00:57Z</time>
      </trkpt>
      <trkpt lat="44.45443" lon="5.58281">
        <ele>983.72</ele>
        <time>2016-06-28T08:01:04Z</time>
      </trkpt>
      <trkpt lat="44.45424" lon="5.5825">
        <ele>986.73</ele>
        <time>2016-06-28T08:01:25Z</time>
      </trkpt>
      <trkpt lat="44.45406" lon="5.58229">
        <ele>989.07</ele>
        <time>2016-06-28T08:01:41Z</time>
      </trkpt>
      <trkpt lat="44.45405" lon="5.58229">
        <ele>989.19</ele>
        <time>2016-06-28T08:01:42Z</time>
      </trkpt>
      <trkpt lat="44.45403" lon="5.58228">
        <ele>989.32</ele>
        <time>2016-06-28T08:01:43Z</time>
      </trkpt>
      <trkpt lat="44.45402" lon="5.58227">
        <ele>989.45</ele>
        <time>2016-06-28T08:01:44Z</time>
      </trkpt>
      <trkpt lat="44.454" lon="5.58226">
        <ele>989.57</ele>
        <time>2016-06-28T08:01:45Z</time>
      </trkpt>
      <trkpt lat="44.45399" lon="5.58226">
        <ele>989.7</ele>
        <time>2016-06-28T08:01:46Z</time>
      </trkpt>
      <trkpt lat="44.45377" lon="5.58197">
        <ele>992.74</ele>
        <time>2016-06-28T08:02:07Z</time>
      </trkpt>
      <trkpt lat="44.45373" lon="5.58173">
        <ele>994.1</ele>
        <time>2016-06-28T08:02:18Z</time>
      </trkpt>
      <trkpt lat="44.45372" lon="5.58171">
        <ele>994.25</ele>
        <time>2016-06-28T08:02:19Z</time>
      </trkpt>
      <trkpt lat="44.45368" lon="5.58157">
        <ele>995.28</ele>
        <time>2016-06-28T08:02:26Z</time>
      </trkpt>
      <trkpt lat="44.45368" lon="5.58155">
        <ele>995.41</ele>
        <time>2016-06-28T08:02:27Z</time>
      </trkpt>
      <trkpt lat="44.45367" lon="5.58153">
        <ele>995.55</ele>
        <time>2016-06-28T08:02:28Z</time>
      </trkpt>
      <trkpt lat="44.45367" lon="5.58151">
        <ele>995.67</ele>
        <time>2016-06-28T08:02:29Z</time>
      </trkpt>
      <trkpt lat="44.45367" lon="5.58149">
        <ele>995.79</ele>
        <time>2016-06-28T08:02:30Z</time>
      </trkpt>
      <trkpt lat="44.4536" lon="5.58124">
        <ele>997.37</ele>
        <time>2016-06-28T08:02:43Z</time>
      </trkpt>
      <trkpt lat="44.45358" lon="5.58124">
        <ele>997.49</ele>
        <time>2016-06-28T08:02:44Z</time>
      </trkpt>
      <trkpt lat="44.45357" lon="5.58124">
        <ele>997.61</ele>
        <time>2016-06-28T08:02:45Z</time>
      </trkpt>
      <trkpt lat="44.45355" lon="5.58125">
        <ele>997.74</ele>
        <time>2016-06-28T08:02:46Z</time>
      </trkpt>
      <trkpt lat="44.45354" lon="5.58126">
        <ele>997.88</ele>
        <time>2016-06-28T08:02:47Z</time>
      </trkpt>
      <trkpt lat="44.45353" lon="5.58127">
        <ele>998.03</ele>
        <time>2016-06-28T08:02:48Z</time>
      </trkpt>
      <trkpt lat="44.45353" lon="5.58129">
        <ele>998.17</ele>
        <time>2016-06-28T08:02:49Z</time>
      </trkpt>
      <trkpt lat="44.45352" lon="5.58131">
        <ele>998.31</ele>
        <time>2016-06-28T08:02:50Z</time>
      </trkpt>
      <trkpt lat="44.45352" lon="5.58133">
        <ele>998.45</ele>
        <time>2016-06-28T08:02:51Z</time>
      </trkpt>
      <trkpt lat="44.45352" lon="5.58135">
        <ele>998.6</ele>
        <time>2016-06-28T08:02:52Z</time>
      </trkpt>
      <trkpt lat="44.45352" lon="5.58137">
        <ele>998.76</ele>
        <time>2016-06-28T08:02:53Z</time>
      </trkpt>
      <trkpt lat="44.45352" lon="5.58139">
        <ele>998.92</ele>
        <time>2016-06-28T08:02:54Z</time>
      </trkpt>
      <trkpt lat="44.45352" lon="5.58141">
        <ele>999.06</ele>
        <time>2016-06-28T08:02:55Z</time>
      </trkpt>
      <trkpt lat="44.45352" lon="5.58143">
        <ele>999.19</ele>
        <time>2016-06-28T08:02:56Z</time>
      </trkpt>
      <trkpt lat="44.45353" lon="5.58145">
        <ele>999.32</ele>
        <time>2016-06-28T08:02:57Z</time>
      </trkpt>
      <trkpt lat="44.45353" lon="5.58147">
        <ele>999.47</ele>
        <time>2016-06-28T08:02:58Z</time>
      </trkpt>
      <trkpt lat="44.45353" lon="5.58148">
        <ele>999.61</ele>
        <time>2016-06-28T08:02:59Z</time>
      </trkpt>
      <trkpt lat="44.45359" lon="5.58185">
        <ele>1002.52</ele>
        <time>2016-06-28T08:03:18Z</time>
      </trkpt>
      <trkpt lat="44.4536" lon="5.58209">
        <ele>1003.96</ele>
        <time>2016-06-28T08:03:30Z</time>
      </trkpt>
      <trkpt lat="44.4536" lon="5.58211">
        <ele>1004.05</ele>
        <time>2016-06-28T08:03:31Z</time>
      </trkpt>
      <trkpt lat="44.4536" lon="5.58213">
        <ele>1004.14</ele>
        <time>2016-06-28T08:03:32Z</time>
      </trkpt>
      <trkpt lat="44.45361" lon="5.58215">
        <ele>1004.21</ele>
        <time>2016-06-28T08:03:33Z</time>
      </trkpt>
      <trkpt lat="44.45361" lon="5.58217">
        <ele>1004.29</ele>
        <time>2016-06-28T08:03:34Z</time>
      </trkpt>
      <trkpt lat="44.45362" lon="5.5822">
        <ele>1004.39</ele>
        <time>2016-06-28T08:03:35Z</time>
      </trkpt>
      <trkpt lat="44.45365" lon="5.58234">
        <ele>1005.28</ele>
        <time>2016-06-28T08:03:41Z</time>
      </trkpt>
      <trkpt lat="44.45373" lon="5.58266">
        <ele>1008.21</ele>
        <time>2016-06-28T08:03:57Z</time>
      </trkpt>
      <trkpt lat="44.45373" lon="5.58268">
        <ele>1008.34</ele>
        <time>2016-06-28T08:03:58Z</time>
      </trkpt>
      <trkpt lat="44.45373" lon="5.58271">
        <ele>1008.51</ele>
        <time>2016-06-28T08:03:59Z</time>
      </trkpt>
      <trkpt lat="44.45387" lon="5.58306">
        <ele>1011.44</ele>
        <time>2016-06-28T08:04:19Z</time>
      </trkpt>
      <trkpt lat="44.4539" lon="5.58321">
        <ele>1012.73</ele>
        <time>2016-06-28T08:04:27Z</time>
      </trkpt>
      <trkpt lat="44.4539" lon="5.58324">
        <ele>1012.83</ele>
        <time>2016-06-28T08:04:28Z</time>
      </trkpt>
      <trkpt lat="44.45385" lon="5.58368">
        <ele>1015.92</ele>
        <time>2016-06-28T08:04:49Z</time>
      </trkpt>
      <trkpt lat="44.45376" lon="5.58407">
        <ele>1018.93</ele>
        <time>2016-06-28T08:05:08Z</time>
      </trkpt>
      <trkpt lat="44.45352" lon="5.58432">
        <ele>1021.99</ele>
        <time>2016-06-28T08:05:28Z</time>
      </trkpt>
      <trkpt lat="44.45341" lon="5.58468">
        <ele>1024.52</ele>
        <time>2016-06-28T08:05:45Z</time>
      </trkpt>
      <trkpt lat="44.45342" lon="5.5847">
        <ele>1024.64</ele>
        <time>2016-06-28T08:05:46Z</time>
      </trkpt>
      <trkpt lat="44.45343" lon="5.58472">
        <ele>1024.76</ele>
        <time>2016-06-28T08:05:47Z</time>
      </trkpt>
      <trkpt lat="44.45344" lon="5.58474">
        <ele>1024.91</ele>
        <time>2016-06-28T08:05:48Z</time>
      </trkpt>
      <trkpt lat="44.45346" lon="5.58475">
        <ele>1025.06</ele>
        <time>2016-06-28T08:05:49Z</time>
      </trkpt>
      <trkpt lat="44.45347" lon="5.58476">
        <ele>1025.2</ele>
        <time>2016-06-28T08:05:50Z</time>
      </trkpt>
      <trkpt lat="44.45348" lon="5.58477">
        <ele>1025.33</ele>
        <time>2016-06-28T08:05:51Z</time>
      </trkpt>
      <trkpt lat="44.45349" lon="5.58479">
        <ele>1025.46</ele>
        <time>2016-06-28T08:05:52Z</time>
      </trkpt>
      <trkpt lat="44.4535" lon="5.5848">
        <ele>1025.59</ele>
        <time>2016-06-28T08:05:53Z</time>
      </trkpt>
      <trkpt lat="44.45351" lon="5.58481">
        <ele>1025.74</ele>
        <time>2016-06-28T08:05:54Z</time>
      </trkpt>
      <trkpt lat="44.45352" lon="5.58483">
        <ele>1025.9</ele>
        <time>2016-06-28T08:05:55Z</time>
      </trkpt>
      <trkpt lat="44.45354" lon="5.58484">
        <ele>1026.05</ele>
        <time>2016-06-28T08:05:56Z</time>
      </trkpt>
      <trkpt lat="44.45355" lon="5.58485">
        <ele>1026.19</ele>
        <time>2016-06-28T08:05:57Z</time>
      </trkpt>
      <trkpt lat="44.45356" lon="5.58486">
        <ele>1026.32</ele>
        <time>2016-06-28T08:05:58Z</time>
      </trkpt>
      <trkpt lat="44.45357" lon="5.58488">
        <ele>1026.46</ele>
        <time>2016-06-28T08:05:59Z</time>
      </trkpt>
      <trkpt lat="44.45358" lon="5.58489">
        <ele>1026.59</ele>
        <time>2016-06-28T08:06:00Z</time>
      </trkpt>
      <trkpt lat="44.45359" lon="5.5849">
        <ele>1026.71</ele>
        <time>2016-06-28T08:06:01Z</time>
      </trkpt>
      <trkpt lat="44.4536" lon="5.58492">
        <ele>1026.85</ele>
        <time>2016-06-28T08:06:02Z</time>
      </trkpt>
      <trkpt lat="44.45361" lon="5.58493">
        <ele>1027</ele>
        <time>2016-06-28T08:06:03Z</time>
      </trkpt>
      <trkpt lat="44.4536" lon="5.58502">
        <ele>1027.68</ele>
        <time>2016-06-28T08:06:07Z</time>
      </trkpt>
      <trkpt lat="44.45336" lon="5.58491">
        <ele>1030.49</ele>
        <time>2016-06-28T08:06:27Z</time>
      </trkpt>
      <trkpt lat="44.45318" lon="5.58462">
        <ele>1033.2</ele>
        <time>2016-06-28T08:06:47Z</time>
      </trkpt>
      <trkpt lat="44.45317" lon="5.58458">
        <ele>1033.51</ele>
        <time>2016-06-28T08:06:49Z</time>
      </trkpt>
      <trkpt lat="44.45317" lon="5.58456">
        <ele>1033.65</ele>
        <time>2016-06-28T08:06:50Z</time>
      </trkpt>
      <trkpt lat="44.45317" lon="5.58454">
        <ele>1033.79</ele>
        <time>2016-06-28T08:06:51Z</time>
      </trkpt>
      <trkpt lat="44.45317" lon="5.58451">
        <ele>1033.95</ele>
        <time>2016-06-28T08:06:52Z</time>
      </trkpt>
      <trkpt lat="44.45317" lon="5.58449">
        <ele>1034.11</ele>
        <time>2016-06-28T08:06:53Z</time>
      </trkpt>
      <trkpt lat="44.45324" lon="5.58408">
        <ele>1037.22</ele>
        <time>2016-06-28T08:07:13Z</time>
      </trkpt>
      <trkpt lat="44.45329" lon="5.58363">
        <ele>1040.33</ele>
        <time>2016-06-28T08:07:36Z</time>
      </trkpt>
      <trkpt lat="44.45314" lon="5.58319">
        <ele>1043.02</ele>
        <time>2016-06-28T08:07:59Z</time>
      </trkpt>
      <trkpt lat="44.45302" lon="5.5829">
        <ele>1046.12</ele>
        <time>2016-06-28T08:08:17Z</time>
      </trkpt>
      <trkpt lat="44.45291" lon="5.58255">
        <ele>1049.15</ele>
        <time>2016-06-28T08:08:35Z</time>
      </trkpt>
      <trkpt lat="44.45282" lon="5.58215">
        <ele>1052.2</ele>
        <time>2016-06-28T08:08:56Z</time>
      </trkpt>
      <trkpt lat="44.45277" lon="5.58182">
        <ele>1054.66</ele>
        <time>2016-06-28T08:09:12Z</time>
      </trkpt>
      <trkpt lat="44.45277" lon="5.5818">
        <ele>1054.81</ele>
        <time>2016-06-28T08:09:13Z</time>
      </trkpt>
      <trkpt lat="44.45277" lon="5.58178">
        <ele>1054.95</ele>
        <time>2016-06-28T08:09:14Z</time>
      </trkpt>
      <trkpt lat="44.45258" lon="5.58146">
        <ele>1058.12</ele>
        <time>2016-06-28T08:09:36Z</time>
      </trkpt>
      <trkpt lat="44.45228" lon="5.58165">
        <ele>1060.45</ele>
        <time>2016-06-28T08:09:58Z</time>
      </trkpt>
      <trkpt lat="44.45217" lon="5.58166">
        <ele>1061.37</ele>
        <time>2016-06-28T08:10:05Z</time>
      </trkpt>
      <trkpt lat="44.45216" lon="5.58166">
        <ele>1061.48</ele>
        <time>2016-06-28T08:10:06Z</time>
      </trkpt>
      <trkpt lat="44.45214" lon="5.58166">
        <ele>1061.63</ele>
        <time>2016-06-28T08:10:07Z</time>
      </trkpt>
      <trkpt lat="44.45213" lon="5.58166">
        <ele>1061.79</ele>
        <time>2016-06-28T08:10:08Z</time>
      </trkpt>
      <trkpt lat="44.45212" lon="5.58165">
        <ele>1061.94</ele>
        <time>2016-06-28T08:10:09Z</time>
      </trkpt>
      <trkpt lat="44.4521" lon="5.58165">
        <ele>1062.08</ele>
        <time>2016-06-28T08:10:10Z</time>
      </trkpt>
      <trkpt lat="44.45183" lon="5.5816">
        <ele>1065.21</ele>
        <time>2016-06-28T08:10:29Z</time>
      </trkpt>
      <trkpt lat="44.4515" lon="5.58154">
        <ele>1068.18</ele>
        <time>2016-06-28T08:10:51Z</time>
      </trkpt>
      <trkpt lat="44.45147" lon="5.58154">
        <ele>1068.44</ele>
        <time>2016-06-28T08:10:53Z</time>
      </trkpt>
      <trkpt lat="44.45145" lon="5.58153">
        <ele>1068.56</ele>
        <time>2016-06-28T08:10:54Z</time>
      </trkpt>
      <trkpt lat="44.45144" lon="5.58153">
        <ele>1068.65</ele>
        <time>2016-06-28T08:10:55Z</time>
      </trkpt>
      <trkpt lat="44.45142" lon="5.58152">
        <ele>1068.73</ele>
        <time>2016-06-28T08:10:56Z</time>
      </trkpt>
      <trkpt lat="44.4514" lon="5.58152">
        <ele>1068.83</ele>
        <time>2016-06-28T08:10:57Z</time>
      </trkpt>
      <trkpt lat="44.45139" lon="5.58151">
        <ele>1068.96</ele>
        <time>2016-06-28T08:10:58Z</time>
      </trkpt>
      <trkpt lat="44.45137" lon="5.5815">
        <ele>1069.11</ele>
        <time>2016-06-28T08:10:59Z</time>
      </trkpt>
      <trkpt lat="44.45136" lon="5.58149">
        <ele>1069.25</ele>
        <time>2016-06-28T08:11:00Z</time>
      </trkpt>
      <trkpt lat="44.45134" lon="5.58148">
        <ele>1069.38</ele>
        <time>2016-06-28T08:11:01Z</time>
      </trkpt>
      <trkpt lat="44.45133" lon="5.58147">
        <ele>1069.5</ele>
        <time>2016-06-28T08:11:02Z</time>
      </trkpt>
      <trkpt lat="44.45132" lon="5.58146">
        <ele>1069.61</ele>
        <time>2016-06-28T08:11:03Z</time>
      </trkpt>
      <trkpt lat="44.4513" lon="5.58145">
        <ele>1069.73</ele>
        <time>2016-06-28T08:11:04Z</time>
      </trkpt>
      <trkpt lat="44.45129" lon="5.58144">
        <ele>1069.88</ele>
        <time>2016-06-28T08:11:05Z</time>
      </trkpt>
      <trkpt lat="44.45124" lon="5.58134">
        <ele>1070.54</ele>
        <time>2016-06-28T08:11:11Z</time>
      </trkpt>
      <trkpt lat="44.45123" lon="5.58132">
        <ele>1070.65</ele>
        <time>2016-06-28T08:11:12Z</time>
      </trkpt>
      <trkpt lat="44.45122" lon="5.58131">
        <ele>1070.73</ele>
        <time>2016-06-28T08:11:13Z</time>
      </trkpt>
      <trkpt lat="44.45102" lon="5.58112">
        <ele>1073.82</ele>
        <time>2016-06-28T08:11:31Z</time>
      </trkpt>
      <trkpt lat="44.45075" lon="5.58112">
        <ele>1076.91</ele>
        <time>2016-06-28T08:11:49Z</time>
      </trkpt>
      <trkpt lat="44.45048" lon="5.58098">
        <ele>1079.99</ele>
        <time>2016-06-28T08:12:08Z</time>
      </trkpt>
      <trkpt lat="44.45031" lon="5.58105">
        <ele>1080.83</ele>
        <time>2016-06-28T08:12:20Z</time>
      </trkpt>
      <trkpt lat="44.4503" lon="5.58107">
        <ele>1080.9</ele>
        <time>2016-06-28T08:12:21Z</time>
      </trkpt>
      <trkpt lat="44.45029" lon="5.58108">
        <ele>1081</ele>
        <time>2016-06-28T08:12:22Z</time>
      </trkpt>
      <trkpt lat="44.45028" lon="5.58109">
        <ele>1081.11</ele>
        <time>2016-06-28T08:12:23Z</time>
      </trkpt>
      <trkpt lat="44.45026" lon="5.58111">
        <ele>1081.22</ele>
        <time>2016-06-28T08:12:24Z</time>
      </trkpt>
      <trkpt lat="44.45025" lon="5.58112">
        <ele>1081.35</ele>
        <time>2016-06-28T08:12:25Z</time>
      </trkpt>
      <trkpt lat="44.45024" lon="5.58114">
        <ele>1081.48</ele>
        <time>2016-06-28T08:12:26Z</time>
      </trkpt>
      <trkpt lat="44.45023" lon="5.58115">
        <ele>1081.59</ele>
        <time>2016-06-28T08:12:27Z</time>
      </trkpt>
      <trkpt lat="44.45022" lon="5.58116">
        <ele>1081.76</ele>
        <time>2016-06-28T08:12:28Z</time>
      </trkpt>
      <trkpt lat="44.44995" lon="5.58147">
        <ele>1084.83</ele>
        <time>2016-06-28T08:12:52Z</time>
      </trkpt>
      <trkpt lat="44.44984" lon="5.58178">
        <ele>1087.9</ele>
        <time>2016-06-28T08:13:09Z</time>
      </trkpt>
      <trkpt lat="44.44994" lon="5.58218">
        <ele>1090.99</ele>
        <time>2016-06-28T08:13:29Z</time>
      </trkpt>
      <trkpt lat="44.44984" lon="5.58256">
        <ele>1094.06</ele>
        <time>2016-06-28T08:13:48Z</time>
      </trkpt>
      <trkpt lat="44.44973" lon="5.58308">
        <ele>1097.09</ele>
        <time>2016-06-28T08:14:12Z</time>
      </trkpt>
      <trkpt lat="44.44975" lon="5.58358">
        <ele>1100.2</ele>
        <time>2016-06-28T08:14:37Z</time>
      </trkpt>
      <trkpt lat="44.44975" lon="5.58359">
        <ele>1101.16</ele>
        <time>2016-06-28T08:15:13Z</time>
      </trkpt>
      <trkpt lat="44.44979" lon="5.58358">
        <ele>1101.5</ele>
        <time>2016-06-28T08:16:08Z</time>
      </trkpt>
      <trkpt lat="44.44976" lon="5.5836">
        <ele>1102.03</ele>
        <time>2016-06-28T08:16:49Z</time>
      </trkpt>
      <trkpt lat="44.44975" lon="5.58359">
        <ele>1102.35</ele>
        <time>2016-06-28T08:17:36Z</time>
      </trkpt>
      <trkpt lat="44.44971" lon="5.58364">
        <ele>1102.21</ele>
        <time>2016-06-28T08:18:39Z</time>
      </trkpt>
      <trkpt lat="44.44973" lon="5.58361">
        <ele>1102.36</ele>
        <time>2016-06-28T08:19:49Z</time>
      </trkpt>
      <trkpt lat="44.44975" lon="5.5836">
        <ele>1102.27</ele>
        <time>2016-06-28T08:20:44Z</time>
      </trkpt>
      <trkpt lat="44.44975" lon="5.58361">
        <ele>1102.68</ele>
        <time>2016-06-28T08:21:39Z</time>
      </trkpt>
      <trkpt lat="44.44974" lon="5.58362">
        <ele>1102.65</ele>
        <time>2016-06-28T08:22:41Z</time>
      </trkpt>
      <trkpt lat="44.44978" lon="5.58359">
        <ele>1102.96</ele>
        <time>2016-06-28T08:23:39Z</time>
      </trkpt>
      <trkpt lat="44.44977" lon="5.58359">
        <ele>1103.41</ele>
        <time>2016-06-28T08:24:36Z</time>
      </trkpt>
      <trkpt lat="44.44976" lon="5.58358">
        <ele>1103.82</ele>
        <time>2016-06-28T08:25:32Z</time>
      </trkpt>
      <trkpt lat="44.44977" lon="5.5836">
        <ele>1104.16</ele>
        <time>2016-06-28T08:26:27Z</time>
      </trkpt>
      <trkpt lat="44.44979" lon="5.58365">
        <ele>1104.3</ele>
        <time>2016-06-28T08:27:18Z</time>
      </trkpt>
      <trkpt lat="44.44988" lon="5.58385">
        <ele>1105.67</ele>
        <time>2016-06-28T08:27:40Z</time>
      </trkpt>
      <trkpt lat="44.45015" lon="5.58408">
        <ele>1108.17</ele>
        <time>2016-06-28T08:28:05Z</time>
      </trkpt>
      <trkpt lat="44.45039" lon="5.58437">
        <ele>1111.08</ele>
        <time>2016-06-28T08:28:29Z</time>
      </trkpt>
      <trkpt lat="44.45041" lon="5.58443">
        <ele>1111.48</ele>
        <time>2016-06-28T08:28:32Z</time>
      </trkpt>
      <trkpt lat="44.45043" lon="5.58446">
        <ele>1111.73</ele>
        <time>2016-06-28T08:28:34Z</time>
      </trkpt>
      <trkpt lat="44.45044" lon="5.58448">
        <ele>1111.86</ele>
        <time>2016-06-28T08:28:35Z</time>
      </trkpt>
      <trkpt lat="44.45044" lon="5.58451">
        <ele>1112.02</ele>
        <time>2016-06-28T08:28:36Z</time>
      </trkpt>
      <trkpt lat="44.45045" lon="5.58453">
        <ele>1112.18</ele>
        <time>2016-06-28T08:28:37Z</time>
      </trkpt>
      <trkpt lat="44.45045" lon="5.58455">
        <ele>1112.32</ele>
        <time>2016-06-28T08:28:38Z</time>
      </trkpt>
      <trkpt lat="44.45048" lon="5.58478">
        <ele>1113.73</ele>
        <time>2016-06-28T08:28:49Z</time>
      </trkpt>
      <trkpt lat="44.45048" lon="5.5848">
        <ele>1113.8</ele>
        <time>2016-06-28T08:28:50Z</time>
      </trkpt>
      <trkpt lat="44.45049" lon="5.58482">
        <ele>1113.87</ele>
        <time>2016-06-28T08:28:51Z</time>
      </trkpt>
      <trkpt lat="44.45049" lon="5.58483">
        <ele>1113.96</ele>
        <time>2016-06-28T08:28:52Z</time>
      </trkpt>
      <trkpt lat="44.4505" lon="5.58485">
        <ele>1114.06</ele>
        <time>2016-06-28T08:28:53Z</time>
      </trkpt>
      <trkpt lat="44.45057" lon="5.585">
        <ele>1115.06</ele>
        <time>2016-06-28T08:29:02Z</time>
      </trkpt>
      <trkpt lat="44.45057" lon="5.58502">
        <ele>1115.18</ele>
        <time>2016-06-28T08:29:03Z</time>
      </trkpt>
      <trkpt lat="44.45067" lon="5.5853">
        <ele>1117.53</ele>
        <time>2016-06-28T08:29:19Z</time>
      </trkpt>
      <trkpt lat="44.45067" lon="5.58532">
        <ele>1117.67</ele>
        <time>2016-06-28T08:29:20Z</time>
      </trkpt>
      <trkpt lat="44.45067" lon="5.58534">
        <ele>1117.78</ele>
        <time>2016-06-28T08:29:21Z</time>
      </trkpt>
      <trkpt lat="44.45068" lon="5.58536">
        <ele>1117.89</ele>
        <time>2016-06-28T08:29:22Z</time>
      </trkpt>
      <trkpt lat="44.45069" lon="5.58538">
        <ele>1117.99</ele>
        <time>2016-06-28T08:29:23Z</time>
      </trkpt>
      <trkpt lat="44.45069" lon="5.58539">
        <ele>1118.13</ele>
        <time>2016-06-28T08:29:24Z</time>
      </trkpt>
      <trkpt lat="44.4507" lon="5.58541">
        <ele>1118.32</ele>
        <time>2016-06-28T08:29:25Z</time>
      </trkpt>
      <trkpt lat="44.45079" lon="5.5858">
        <ele>1121.2</ele>
        <time>2016-06-28T08:29:46Z</time>
      </trkpt>
      <trkpt lat="44.45079" lon="5.58582">
        <ele>1121.28</ele>
        <time>2016-06-28T08:29:47Z</time>
      </trkpt>
      <trkpt lat="44.4508" lon="5.58584">
        <ele>1121.39</ele>
        <time>2016-06-28T08:29:48Z</time>
      </trkpt>
      <trkpt lat="44.45082" lon="5.586">
        <ele>1123.15</ele>
        <time>2016-06-28T08:29:57Z</time>
      </trkpt>
      <trkpt lat="44.45082" lon="5.58602">
        <ele>1123.3</ele>
        <time>2016-06-28T08:29:58Z</time>
      </trkpt>
      <trkpt lat="44.45082" lon="5.58604">
        <ele>1123.46</ele>
        <time>2016-06-28T08:29:59Z</time>
      </trkpt>
      <trkpt lat="44.45083" lon="5.58606">
        <ele>1123.62</ele>
        <time>2016-06-28T08:30:00Z</time>
      </trkpt>
      <trkpt lat="44.45083" lon="5.58608">
        <ele>1123.77</ele>
        <time>2016-06-28T08:30:01Z</time>
      </trkpt>
      <trkpt lat="44.45083" lon="5.5861">
        <ele>1123.91</ele>
        <time>2016-06-28T08:30:02Z</time>
      </trkpt>
      <trkpt lat="44.45083" lon="5.58612">
        <ele>1124.04</ele>
        <time>2016-06-28T08:30:03Z</time>
      </trkpt>
      <trkpt lat="44.45082" lon="5.58615">
        <ele>1124.19</ele>
        <time>2016-06-28T08:30:04Z</time>
      </trkpt>
      <trkpt lat="44.45082" lon="5.58617">
        <ele>1124.37</ele>
        <time>2016-06-28T08:30:05Z</time>
      </trkpt>
      <trkpt lat="44.45081" lon="5.58619">
        <ele>1124.54</ele>
        <time>2016-06-28T08:30:06Z</time>
      </trkpt>
      <trkpt lat="44.4508" lon="5.58621">
        <ele>1124.69</ele>
        <time>2016-06-28T08:30:07Z</time>
      </trkpt>
      <trkpt lat="44.4508" lon="5.58623">
        <ele>1124.81</ele>
        <time>2016-06-28T08:30:08Z</time>
      </trkpt>
      <trkpt lat="44.4508" lon="5.58625">
        <ele>1124.93</ele>
        <time>2016-06-28T08:30:09Z</time>
      </trkpt>
      <trkpt lat="44.4508" lon="5.58627">
        <ele>1125.05</ele>
        <time>2016-06-28T08:30:10Z</time>
      </trkpt>
      <trkpt lat="44.45079" lon="5.58629">
        <ele>1125.16</ele>
        <time>2016-06-28T08:30:11Z</time>
      </trkpt>
      <trkpt lat="44.45079" lon="5.58631">
        <ele>1125.28</ele>
        <time>2016-06-28T08:30:12Z</time>
      </trkpt>
      <trkpt lat="44.45079" lon="5.58633">
        <ele>1125.37</ele>
        <time>2016-06-28T08:30:13Z</time>
      </trkpt>
      <trkpt lat="44.45079" lon="5.58635">
        <ele>1125.47</ele>
        <time>2016-06-28T08:30:14Z</time>
      </trkpt>
      <trkpt lat="44.45079" lon="5.58637">
        <ele>1125.58</ele>
        <time>2016-06-28T08:30:15Z</time>
      </trkpt>
      <trkpt lat="44.45079" lon="5.58654">
        <ele>1127.04</ele>
        <time>2016-06-28T08:30:24Z</time>
      </trkpt>
      <trkpt lat="44.45079" lon="5.58655">
        <ele>1127.23</ele>
        <time>2016-06-28T08:30:25Z</time>
      </trkpt>
      <trkpt lat="44.4508" lon="5.58657">
        <ele>1127.39</ele>
        <time>2016-06-28T08:30:26Z</time>
      </trkpt>
      <trkpt lat="44.4508" lon="5.5866">
        <ele>1127.53</ele>
        <time>2016-06-28T08:30:27Z</time>
      </trkpt>
      <trkpt lat="44.45079" lon="5.58662">
        <ele>1127.64</ele>
        <time>2016-06-28T08:30:28Z</time>
      </trkpt>
      <trkpt lat="44.45079" lon="5.58663">
        <ele>1127.73</ele>
        <time>2016-06-28T08:30:29Z</time>
      </trkpt>
      <trkpt lat="44.45079" lon="5.58665">
        <ele>1127.83</ele>
        <time>2016-06-28T08:30:30Z</time>
      </trkpt>
      <trkpt lat="44.45078" lon="5.58667">
        <ele>1127.95</ele>
        <time>2016-06-28T08:30:31Z</time>
      </trkpt>
      <trkpt lat="44.45078" lon="5.58669">
        <ele>1128.09</ele>
        <time>2016-06-28T08:30:32Z</time>
      </trkpt>
      <trkpt lat="44.45078" lon="5.58671">
        <ele>1128.23</ele>
        <time>2016-06-28T08:30:33Z</time>
      </trkpt>
      <trkpt lat="44.45078" lon="5.58673">
        <ele>1128.38</ele>
        <time>2016-06-28T08:30:34Z</time>
      </trkpt>
      <trkpt lat="44.45078" lon="5.58675">
        <ele>1128.53</ele>
        <time>2016-06-28T08:30:35Z</time>
      </trkpt>
      <trkpt lat="44.45078" lon="5.58676">
        <ele>1128.69</ele>
        <time>2016-06-28T08:30:36Z</time>
      </trkpt>
      <trkpt lat="44.45078" lon="5.58706">
        <ele>1131.02</ele>
        <time>2016-06-28T08:30:51Z</time>
      </trkpt>
      <trkpt lat="44.45079" lon="5.58708">
        <ele>1131.15</ele>
        <time>2016-06-28T08:30:52Z</time>
      </trkpt>
      <trkpt lat="44.45079" lon="5.5871">
        <ele>1131.24</ele>
        <time>2016-06-28T08:30:53Z</time>
      </trkpt>
      <trkpt lat="44.4508" lon="5.58712">
        <ele>1131.33</ele>
        <time>2016-06-28T08:30:54Z</time>
      </trkpt>
      <trkpt lat="44.4508" lon="5.58714">
        <ele>1131.42</ele>
        <time>2016-06-28T08:30:55Z</time>
      </trkpt>
      <trkpt lat="44.4508" lon="5.58716">
        <ele>1131.49</ele>
        <time>2016-06-28T08:30:56Z</time>
      </trkpt>
      <trkpt lat="44.45081" lon="5.58718">
        <ele>1131.57</ele>
        <time>2016-06-28T08:30:57Z</time>
      </trkpt>
      <trkpt lat="44.45081" lon="5.5872">
        <ele>1131.65</ele>
        <time>2016-06-28T08:30:58Z</time>
      </trkpt>
      <trkpt lat="44.45082" lon="5.58722">
        <ele>1131.72</ele>
        <time>2016-06-28T08:30:59Z</time>
      </trkpt>
      <trkpt lat="44.45082" lon="5.58724">
        <ele>1131.83</ele>
        <time>2016-06-28T08:31:00Z</time>
      </trkpt>
      <trkpt lat="44.45083" lon="5.58726">
        <ele>1131.96</ele>
        <time>2016-06-28T08:31:01Z</time>
      </trkpt>
      <trkpt lat="44.45089" lon="5.58751">
        <ele>1134.1</ele>
        <time>2016-06-28T08:31:14Z</time>
      </trkpt>
      <trkpt lat="44.45089" lon="5.58753">
        <ele>1134.21</ele>
        <time>2016-06-28T08:31:15Z</time>
      </trkpt>
      <trkpt lat="44.4509" lon="5.58754">
        <ele>1134.33</ele>
        <time>2016-06-28T08:31:16Z</time>
      </trkpt>
      <trkpt lat="44.45091" lon="5.58756">
        <ele>1134.48</ele>
        <time>2016-06-28T08:31:17Z</time>
      </trkpt>
      <trkpt lat="44.45091" lon="5.58757">
        <ele>1134.64</ele>
        <time>2016-06-28T08:31:18Z</time>
      </trkpt>
      <trkpt lat="44.45092" lon="5.58759">
        <ele>1134.81</ele>
        <time>2016-06-28T08:31:19Z</time>
      </trkpt>
      <trkpt lat="44.45093" lon="5.5876">
        <ele>1134.97</ele>
        <time>2016-06-28T08:31:20Z</time>
      </trkpt>
      <trkpt lat="44.45094" lon="5.58762">
        <ele>1135.11</ele>
        <time>2016-06-28T08:31:21Z</time>
      </trkpt>
      <trkpt lat="44.45109" lon="5.58793">
        <ele>1138.15</ele>
        <time>2016-06-28T08:31:41Z</time>
      </trkpt>
      <trkpt lat="44.45111" lon="5.58799">
        <ele>1138.55</ele>
        <time>2016-06-28T08:31:44Z</time>
      </trkpt>
      <trkpt lat="44.45112" lon="5.58801">
        <ele>1138.68</ele>
        <time>2016-06-28T08:31:45Z</time>
      </trkpt>
      <trkpt lat="44.45113" lon="5.58802">
        <ele>1138.82</ele>
        <time>2016-06-28T08:31:46Z</time>
      </trkpt>
      <trkpt lat="44.45126" lon="5.58837">
        <ele>1141.4</ele>
        <time>2016-06-28T08:32:05Z</time>
      </trkpt>
      <trkpt lat="44.45148" lon="5.5887">
        <ele>1144.59</ele>
        <time>2016-06-28T08:32:26Z</time>
      </trkpt>
      <trkpt lat="44.45174" lon="5.58881">
        <ele>1147.46</ele>
        <time>2016-06-28T08:32:46Z</time>
      </trkpt>
      <trkpt lat="44.45178" lon="5.58881">
        <ele>1148.02</ele>
        <time>2016-06-28T08:32:49Z</time>
      </trkpt>
      <trkpt lat="44.45179" lon="5.58881">
        <ele>1148.18</ele>
        <time>2016-06-28T08:32:50Z</time>
      </trkpt>
      <trkpt lat="44.45181" lon="5.58881">
        <ele>1148.35</ele>
        <time>2016-06-28T08:32:51Z</time>
      </trkpt>
      <trkpt lat="44.45182" lon="5.58882">
        <ele>1148.51</ele>
        <time>2016-06-28T08:32:52Z</time>
      </trkpt>
      <trkpt lat="44.45183" lon="5.58884">
        <ele>1148.67</ele>
        <time>2016-06-28T08:32:53Z</time>
      </trkpt>
      <trkpt lat="44.45184" lon="5.58885">
        <ele>1148.82</ele>
        <time>2016-06-28T08:32:54Z</time>
      </trkpt>
      <trkpt lat="44.45186" lon="5.58886">
        <ele>1148.95</ele>
        <time>2016-06-28T08:32:55Z</time>
      </trkpt>
      <trkpt lat="44.45197" lon="5.58902">
        <ele>1150.08</ele>
        <time>2016-06-28T08:33:04Z</time>
      </trkpt>
      <trkpt lat="44.45197" lon="5.58904">
        <ele>1150.19</ele>
        <time>2016-06-28T08:33:05Z</time>
      </trkpt>
      <trkpt lat="44.45198" lon="5.58907">
        <ele>1150.3</ele>
        <time>2016-06-28T08:33:06Z</time>
      </trkpt>
      <trkpt lat="44.45199" lon="5.5891">
        <ele>1150.39</ele>
        <time>2016-06-28T08:33:07Z</time>
      </trkpt>
      <trkpt lat="44.452" lon="5.58913">
        <ele>1150.51</ele>
        <time>2016-06-28T08:33:08Z</time>
      </trkpt>
      <trkpt lat="44.45219" lon="5.58943">
        <ele>1153.36</ele>
        <time>2016-06-28T08:33:25Z</time>
      </trkpt>
      <trkpt lat="44.4522" lon="5.58943">
        <ele>1153.51</ele>
        <time>2016-06-28T08:33:26Z</time>
      </trkpt>
      <trkpt lat="44.45221" lon="5.58944">
        <ele>1153.65</ele>
        <time>2016-06-28T08:33:27Z</time>
      </trkpt>
      <trkpt lat="44.45223" lon="5.58945">
        <ele>1153.79</ele>
        <time>2016-06-28T08:33:28Z</time>
      </trkpt>
      <trkpt lat="44.45224" lon="5.58946">
        <ele>1153.92</ele>
        <time>2016-06-28T08:33:29Z</time>
      </trkpt>
      <trkpt lat="44.45259" lon="5.58978">
        <ele>1156.97</ele>
        <time>2016-06-28T08:33:55Z</time>
      </trkpt>
      <trkpt lat="44.45272" lon="5.59039">
        <ele>1159.82</ele>
        <time>2016-06-28T08:34:21Z</time>
      </trkpt>
      <trkpt lat="44.45266" lon="5.59073">
        <ele>1162.75</ele>
        <time>2016-06-28T08:34:39Z</time>
      </trkpt>
      <trkpt lat="44.45249" lon="5.591">
        <ele>1165.55</ele>
        <time>2016-06-28T08:34:55Z</time>
      </trkpt>
      <trkpt lat="44.45216" lon="5.5912">
        <ele>1168.34</ele>
        <time>2016-06-28T08:35:16Z</time>
      </trkpt>
      <trkpt lat="44.45188" lon="5.59142">
        <ele>1171.37</ele>
        <time>2016-06-28T08:35:36Z</time>
      </trkpt>
      <trkpt lat="44.45191" lon="5.59177">
        <ele>1174.37</ele>
        <time>2016-06-28T08:35:53Z</time>
      </trkpt>
      <trkpt lat="44.45221" lon="5.59193">
        <ele>1177.45</ele>
        <time>2016-06-28T08:36:14Z</time>
      </trkpt>
      <trkpt lat="44.45255" lon="5.59218">
        <ele>1180.48</ele>
        <time>2016-06-28T08:36:37Z</time>
      </trkpt>
      <trkpt lat="44.4527" lon="5.59259">
        <ele>1183.61</ele>
        <time>2016-06-28T08:36:58Z</time>
      </trkpt>
      <trkpt lat="44.45281" lon="5.59294">
        <ele>1186.77</ele>
        <time>2016-06-28T08:37:16Z</time>
      </trkpt>
      <trkpt lat="44.45288" lon="5.59299">
        <ele>1187.87</ele>
        <time>2016-06-28T08:37:21Z</time>
      </trkpt>
      <trkpt lat="44.4529" lon="5.59298">
        <ele>1188.03</ele>
        <time>2016-06-28T08:37:22Z</time>
      </trkpt>
      <trkpt lat="44.45295" lon="5.59294">
        <ele>1188.7</ele>
        <time>2016-06-28T08:37:26Z</time>
      </trkpt>
      <trkpt lat="44.45297" lon="5.59287">
        <ele>1189.16</ele>
        <time>2016-06-28T08:37:29Z</time>
      </trkpt>
      <trkpt lat="44.45296" lon="5.59285">
        <ele>1189.33</ele>
        <time>2016-06-28T08:37:30Z</time>
      </trkpt>
      <trkpt lat="44.45296" lon="5.59283">
        <ele>1189.48</ele>
        <time>2016-06-28T08:37:31Z</time>
      </trkpt>
      <trkpt lat="44.45296" lon="5.59281">
        <ele>1189.62</ele>
        <time>2016-06-28T08:37:32Z</time>
      </trkpt>
      <trkpt lat="44.45295" lon="5.59278">
        <ele>1189.76</ele>
        <time>2016-06-28T08:37:33Z</time>
      </trkpt>
      <trkpt lat="44.45294" lon="5.59276">
        <ele>1189.9</ele>
        <time>2016-06-28T08:37:34Z</time>
      </trkpt>
      <trkpt lat="44.45294" lon="5.59274">
        <ele>1190.04</ele>
        <time>2016-06-28T08:37:35Z</time>
      </trkpt>
      <trkpt lat="44.45293" lon="5.59272">
        <ele>1190.18</ele>
        <time>2016-06-28T08:37:36Z</time>
      </trkpt>
      <trkpt lat="44.45299" lon="5.59227">
        <ele>1192.33</ele>
        <time>2016-06-28T08:37:57Z</time>
      </trkpt>
      <trkpt lat="44.45316" lon="5.59194">
        <ele>1195.5</ele>
        <time>2016-06-28T08:38:17Z</time>
      </trkpt>
      <trkpt lat="44.45334" lon="5.5916">
        <ele>1198.57</ele>
        <time>2016-06-28T08:38:36Z</time>
      </trkpt>
      <trkpt lat="44.4536" lon="5.59147">
        <ele>1201.77</ele>
        <time>2016-06-28T08:38:58Z</time>
      </trkpt>
      <trkpt lat="44.45386" lon="5.59164">
        <ele>1204.18</ele>
        <time>2016-06-28T08:39:17Z</time>
      </trkpt>
      <trkpt lat="44.45413" lon="5.59182">
        <ele>1207.18</ele>
        <time>2016-06-28T08:39:36Z</time>
      </trkpt>
      <trkpt lat="44.4544" lon="5.5919">
        <ele>1210.22</ele>
        <time>2016-06-28T08:39:55Z</time>
      </trkpt>
      <trkpt lat="44.45465" lon="5.59172">
        <ele>1213.36</ele>
        <time>2016-06-28T08:40:15Z</time>
      </trkpt>
      <trkpt lat="44.45477" lon="5.59163">
        <ele>1214.49</ele>
        <time>2016-06-28T08:40:23Z</time>
      </trkpt>
      <trkpt lat="44.45478" lon="5.59162">
        <ele>1214.65</ele>
        <time>2016-06-28T08:40:24Z</time>
      </trkpt>
      <trkpt lat="44.45479" lon="5.59161">
        <ele>1214.8</ele>
        <time>2016-06-28T08:40:25Z</time>
      </trkpt>
      <trkpt lat="44.4548" lon="5.5916">
        <ele>1214.95</ele>
        <time>2016-06-28T08:40:26Z</time>
      </trkpt>
      <trkpt lat="44.45481" lon="5.59159">
        <ele>1215.11</ele>
        <time>2016-06-28T08:40:27Z</time>
      </trkpt>
      <trkpt lat="44.45482" lon="5.59158">
        <ele>1215.26</ele>
        <time>2016-06-28T08:40:28Z</time>
      </trkpt>
      <trkpt lat="44.45504" lon="5.5914">
        <ele>1218</ele>
        <time>2016-06-28T08:40:45Z</time>
      </trkpt>
      <trkpt lat="44.4553" lon="5.59115">
        <ele>1221</ele>
        <time>2016-06-28T08:41:05Z</time>
      </trkpt>
      <trkpt lat="44.45552" lon="5.59129">
        <ele>1224.04</ele>
        <time>2016-06-28T08:41:24Z</time>
      </trkpt>
      <trkpt lat="44.45524" lon="5.59157">
        <ele>1226.52</ele>
        <time>2016-06-28T08:41:45Z</time>
      </trkpt>
      <trkpt lat="44.45503" lon="5.59192">
        <ele>1229.64</ele>
        <time>2016-06-28T08:42:07Z</time>
      </trkpt>
      <trkpt lat="44.45485" lon="5.59229">
        <ele>1232.67</ele>
        <time>2016-06-28T08:42:28Z</time>
      </trkpt>
      <trkpt lat="44.45462" lon="5.5926">
        <ele>1235.69</ele>
        <time>2016-06-28T08:42:50Z</time>
      </trkpt>
      <trkpt lat="44.4544" lon="5.59286">
        <ele>1238.86</ele>
        <time>2016-06-28T08:43:08Z</time>
      </trkpt>
      <trkpt lat="44.45428" lon="5.59327">
        <ele>1241.91</ele>
        <time>2016-06-28T08:43:28Z</time>
      </trkpt>
      <trkpt lat="44.45414" lon="5.5937">
        <ele>1245.02</ele>
        <time>2016-06-28T08:43:50Z</time>
      </trkpt>
      <trkpt lat="44.45399" lon="5.59418">
        <ele>1248.05</ele>
        <time>2016-06-28T08:44:14Z</time>
      </trkpt>
      <trkpt lat="44.45394" lon="5.59455">
        <ele>1251.15</ele>
        <time>2016-06-28T08:44:32Z</time>
      </trkpt>
      <trkpt lat="44.45391" lon="5.59493">
        <ele>1254.36</ele>
        <time>2016-06-28T08:44:51Z</time>
      </trkpt>
      <trkpt lat="44.45395" lon="5.59519">
        <ele>1256.76</ele>
        <time>2016-06-28T08:45:05Z</time>
      </trkpt>
      <trkpt lat="44.454" lon="5.59532">
        <ele>1257.93</ele>
        <time>2016-06-28T08:45:12Z</time>
      </trkpt>
      <trkpt lat="44.45402" lon="5.59533">
        <ele>1258.12</ele>
        <time>2016-06-28T08:45:13Z</time>
      </trkpt>
      <trkpt lat="44.45403" lon="5.59535">
        <ele>1258.29</ele>
        <time>2016-06-28T08:45:14Z</time>
      </trkpt>
      <trkpt lat="44.45404" lon="5.59539">
        <ele>1258.8</ele>
        <time>2016-06-28T08:45:16Z</time>
      </trkpt>
      <trkpt lat="44.45404" lon="5.59542">
        <ele>1258.96</ele>
        <time>2016-06-28T08:45:17Z</time>
      </trkpt>
      <trkpt lat="44.45405" lon="5.59544">
        <ele>1259.11</ele>
        <time>2016-06-28T08:45:18Z</time>
      </trkpt>
      <trkpt lat="44.45428" lon="5.5958">
        <ele>1262.29</ele>
        <time>2016-06-28T08:45:40Z</time>
      </trkpt>
      <trkpt lat="44.4543" lon="5.59585">
        <ele>1262.68</ele>
        <time>2016-06-28T08:45:43Z</time>
      </trkpt>
      <trkpt lat="44.45431" lon="5.59586">
        <ele>1262.78</ele>
        <time>2016-06-28T08:45:44Z</time>
      </trkpt>
      <trkpt lat="44.45432" lon="5.59588">
        <ele>1262.89</ele>
        <time>2016-06-28T08:45:45Z</time>
      </trkpt>
      <trkpt lat="44.45441" lon="5.59611">
        <ele>1264.96</ele>
        <time>2016-06-28T08:45:59Z</time>
      </trkpt>
      <trkpt lat="44.45431" lon="5.59642">
        <ele>1267.49</ele>
        <time>2016-06-28T08:46:16Z</time>
      </trkpt>
      <trkpt lat="44.45421" lon="5.59642">
        <ele>1269.02</ele>
        <time>2016-06-28T08:46:41Z</time>
      </trkpt>
      <trkpt lat="44.45425" lon="5.59634">
        <ele>1268.69</ele>
        <time>2016-06-28T08:47:20Z</time>
      </trkpt>
      <trkpt lat="44.45421" lon="5.59638">
        <ele>1268.98</ele>
        <time>2016-06-28T08:47:53Z</time>
      </trkpt>
      <trkpt lat="44.45418" lon="5.5964">
        <ele>1269.52</ele>
        <time>2016-06-28T08:48:38Z</time>
      </trkpt>
      <trkpt lat="44.45419" lon="5.59646">
        <ele>1269.81</ele>
        <time>2016-06-28T08:49:14Z</time>
      </trkpt>
      <trkpt lat="44.45418" lon="5.59639">
        <ele>1270.76</ele>
        <time>2016-06-28T08:50:00Z</time>
      </trkpt>
      <trkpt lat="44.4542" lon="5.59645">
        <ele>1271.26</ele>
        <time>2016-06-28T08:50:45Z</time>
      </trkpt>
      <trkpt lat="44.45419" lon="5.59636">
        <ele>1271.44</ele>
        <time>2016-06-28T08:51:40Z</time>
      </trkpt>
      <trkpt lat="44.45421" lon="5.59637">
        <ele>1271.74</ele>
        <time>2016-06-28T08:52:28Z</time>
      </trkpt>
      <trkpt lat="44.45422" lon="5.59639">
        <ele>1272.27</ele>
        <time>2016-06-28T08:53:26Z</time>
      </trkpt>
      <trkpt lat="44.45424" lon="5.59644">
        <ele>1272.25</ele>
        <time>2016-06-28T08:54:26Z</time>
      </trkpt>
      <trkpt lat="44.45424" lon="5.59643">
        <ele>1272.62</ele>
        <time>2016-06-28T08:55:12Z</time>
      </trkpt>
      <trkpt lat="44.45426" lon="5.59649">
        <ele>1272.95</ele>
        <time>2016-06-28T08:55:55Z</time>
      </trkpt>
      <trkpt lat="44.45426" lon="5.59648">
        <ele>1272.98</ele>
        <time>2016-06-28T08:56:38Z</time>
      </trkpt>
      <trkpt lat="44.45409" lon="5.59673">
        <ele>1274.39</ele>
        <time>2016-06-28T08:57:03Z</time>
      </trkpt>
      <trkpt lat="44.45404" lon="5.59679">
        <ele>1274.89</ele>
        <time>2016-06-28T08:57:07Z</time>
      </trkpt>
      <trkpt lat="44.45402" lon="5.59682">
        <ele>1275.05</ele>
        <time>2016-06-28T08:57:09Z</time>
      </trkpt>
      <trkpt lat="44.45401" lon="5.59683">
        <ele>1275.13</ele>
        <time>2016-06-28T08:57:10Z</time>
      </trkpt>
      <trkpt lat="44.454" lon="5.59685">
        <ele>1275.21</ele>
        <time>2016-06-28T08:57:11Z</time>
      </trkpt>
      <trkpt lat="44.454" lon="5.59686">
        <ele>1275.3</ele>
        <time>2016-06-28T08:57:12Z</time>
      </trkpt>
      <trkpt lat="44.45399" lon="5.59687">
        <ele>1275.41</ele>
        <time>2016-06-28T08:57:13Z</time>
      </trkpt>
      <trkpt lat="44.45398" lon="5.59689">
        <ele>1275.5</ele>
        <time>2016-06-28T08:57:14Z</time>
      </trkpt>
      <trkpt lat="44.45397" lon="5.5969">
        <ele>1275.6</ele>
        <time>2016-06-28T08:57:15Z</time>
      </trkpt>
      <trkpt lat="44.45394" lon="5.59698">
        <ele>1276.42</ele>
        <time>2016-06-28T08:57:20Z</time>
      </trkpt>
      <trkpt lat="44.45394" lon="5.597">
        <ele>1276.58</ele>
        <time>2016-06-28T08:57:21Z</time>
      </trkpt>
      <trkpt lat="44.45393" lon="5.59701">
        <ele>1276.74</ele>
        <time>2016-06-28T08:57:22Z</time>
      </trkpt>
      <trkpt lat="44.45393" lon="5.59703">
        <ele>1276.88</ele>
        <time>2016-06-28T08:57:23Z</time>
      </trkpt>
      <trkpt lat="44.45392" lon="5.59704">
        <ele>1276.99</ele>
        <time>2016-06-28T08:57:24Z</time>
      </trkpt>
      <trkpt lat="44.45391" lon="5.59706">
        <ele>1277.1</ele>
        <time>2016-06-28T08:57:25Z</time>
      </trkpt>
      <trkpt lat="44.45391" lon="5.59708">
        <ele>1277.22</ele>
        <time>2016-06-28T08:57:26Z</time>
      </trkpt>
      <trkpt lat="44.45379" lon="5.59737">
        <ele>1280.37</ele>
        <time>2016-06-28T08:57:45Z</time>
      </trkpt>
      <trkpt lat="44.45367" lon="5.5977">
        <ele>1282.95</ele>
        <time>2016-06-28T08:58:05Z</time>
      </trkpt>
      <trkpt lat="44.45367" lon="5.59784">
        <ele>1284.22</ele>
        <time>2016-06-28T08:58:13Z</time>
      </trkpt>
      <trkpt lat="44.45368" lon="5.59787">
        <ele>1284.34</ele>
        <time>2016-06-28T08:58:14Z</time>
      </trkpt>
      <trkpt lat="44.45368" lon="5.59788">
        <ele>1284.43</ele>
        <time>2016-06-28T08:58:15Z</time>
      </trkpt>
      <trkpt lat="44.45368" lon="5.5979">
        <ele>1284.51</ele>
        <time>2016-06-28T08:58:16Z</time>
      </trkpt>
      <trkpt lat="44.45368" lon="5.59792">
        <ele>1284.58</ele>
        <time>2016-06-28T08:58:17Z</time>
      </trkpt>
      <trkpt lat="44.45369" lon="5.59795">
        <ele>1284.66</ele>
        <time>2016-06-28T08:58:18Z</time>
      </trkpt>
      <trkpt lat="44.45369" lon="5.59797">
        <ele>1284.78</ele>
        <time>2016-06-28T08:58:19Z</time>
      </trkpt>
      <trkpt lat="44.4537" lon="5.598">
        <ele>1285.09</ele>
        <time>2016-06-28T08:58:21Z</time>
      </trkpt>
      <trkpt lat="44.4537" lon="5.59802">
        <ele>1285.24</ele>
        <time>2016-06-28T08:58:22Z</time>
      </trkpt>
      <trkpt lat="44.4537" lon="5.59803">
        <ele>1285.39</ele>
        <time>2016-06-28T08:58:23Z</time>
      </trkpt>
      <trkpt lat="44.45372" lon="5.59828">
        <ele>1287.03</ele>
        <time>2016-06-28T08:58:36Z</time>
      </trkpt>
      <trkpt lat="44.45372" lon="5.5983">
        <ele>1287.17</ele>
        <time>2016-06-28T08:58:37Z</time>
      </trkpt>
      <trkpt lat="44.4537" lon="5.59857">
        <ele>1289.09</ele>
        <time>2016-06-28T08:58:52Z</time>
      </trkpt>
      <trkpt lat="44.4537" lon="5.59859">
        <ele>1289.24</ele>
        <time>2016-06-28T08:58:53Z</time>
      </trkpt>
      <trkpt lat="44.45369" lon="5.59883">
        <ele>1291.19</ele>
        <time>2016-06-28T08:59:05Z</time>
      </trkpt>
      <trkpt lat="44.45368" lon="5.59895">
        <ele>1291.88</ele>
        <time>2016-06-28T08:59:12Z</time>
      </trkpt>
      <trkpt lat="44.45367" lon="5.59897">
        <ele>1291.95</ele>
        <time>2016-06-28T08:59:13Z</time>
      </trkpt>
      <trkpt lat="44.45367" lon="5.59899">
        <ele>1292.03</ele>
        <time>2016-06-28T08:59:14Z</time>
      </trkpt>
      <trkpt lat="44.45366" lon="5.59902">
        <ele>1292.11</ele>
        <time>2016-06-28T08:59:15Z</time>
      </trkpt>
      <trkpt lat="44.45365" lon="5.59904">
        <ele>1292.19</ele>
        <time>2016-06-28T08:59:16Z</time>
      </trkpt>
      <trkpt lat="44.45365" lon="5.59907">
        <ele>1292.26</ele>
        <time>2016-06-28T08:59:17Z</time>
      </trkpt>
      <trkpt lat="44.45364" lon="5.59909">
        <ele>1292.34</ele>
        <time>2016-06-28T08:59:18Z</time>
      </trkpt>
      <trkpt lat="44.45342" lon="5.59924">
        <ele>1294.62</ele>
        <time>2016-06-28T08:59:36Z</time>
      </trkpt>
      <trkpt lat="44.45328" lon="5.5993">
        <ele>1296.44</ele>
        <time>2016-06-28T08:59:48Z</time>
      </trkpt>
      <trkpt lat="44.45326" lon="5.59931">
        <ele>1296.61</ele>
        <time>2016-06-28T08:59:49Z</time>
      </trkpt>
      <trkpt lat="44.45325" lon="5.59932">
        <ele>1296.77</ele>
        <time>2016-06-28T08:59:50Z</time>
      </trkpt>
      <trkpt lat="44.45297" lon="5.5995">
        <ele>1299.9</ele>
        <time>2016-06-28T09:00:12Z</time>
      </trkpt>
      <trkpt lat="44.45303" lon="5.59969">
        <ele>1302.15</ele>
        <time>2016-06-28T09:00:31Z</time>
      </trkpt>
      <trkpt lat="44.45329" lon="5.59954">
        <ele>1304.75</ele>
        <time>2016-06-28T09:00:52Z</time>
      </trkpt>
      <trkpt lat="44.45356" lon="5.59952">
        <ele>1307.78</ele>
        <time>2016-06-28T09:01:12Z</time>
      </trkpt>
      <trkpt lat="44.4539" lon="5.59944">
        <ele>1310.81</ele>
        <time>2016-06-28T09:01:35Z</time>
      </trkpt>
      <trkpt lat="44.45402" lon="5.59909">
        <ele>1313.94</ele>
        <time>2016-06-28T09:01:54Z</time>
      </trkpt>
      <trkpt lat="44.45402" lon="5.59908">
        <ele>1314.07</ele>
        <time>2016-06-28T09:01:55Z</time>
      </trkpt>
      <trkpt lat="44.45402" lon="5.59906">
        <ele>1314.21</ele>
        <time>2016-06-28T09:01:56Z</time>
      </trkpt>
      <trkpt lat="44.45403" lon="5.59904">
        <ele>1314.36</ele>
        <time>2016-06-28T09:01:57Z</time>
      </trkpt>
      <trkpt lat="44.45404" lon="5.59903">
        <ele>1314.51</ele>
        <time>2016-06-28T09:01:58Z</time>
      </trkpt>
      <trkpt lat="44.45405" lon="5.59901">
        <ele>1314.65</ele>
        <time>2016-06-28T09:01:59Z</time>
      </trkpt>
      <trkpt lat="44.45405" lon="5.599">
        <ele>1314.78</ele>
        <time>2016-06-28T09:02:00Z</time>
      </trkpt>
      <trkpt lat="44.45406" lon="5.59899">
        <ele>1314.89</ele>
        <time>2016-06-28T09:02:01Z</time>
      </trkpt>
      <trkpt lat="44.45407" lon="5.59898">
        <ele>1315.01</ele>
        <time>2016-06-28T09:02:02Z</time>
      </trkpt>
      <trkpt lat="44.45408" lon="5.59896">
        <ele>1315.13</ele>
        <time>2016-06-28T09:02:03Z</time>
      </trkpt>
      <trkpt lat="44.45409" lon="5.59894">
        <ele>1315.25</ele>
        <time>2016-06-28T09:02:04Z</time>
      </trkpt>
      <trkpt lat="44.4541" lon="5.59893">
        <ele>1315.38</ele>
        <time>2016-06-28T09:02:05Z</time>
      </trkpt>
      <trkpt lat="44.4542" lon="5.59864">
        <ele>1317.36</ele>
        <time>2016-06-28T09:02:20Z</time>
      </trkpt>
      <trkpt lat="44.4542" lon="5.59862">
        <ele>1317.52</ele>
        <time>2016-06-28T09:02:21Z</time>
      </trkpt>
      <trkpt lat="44.4542" lon="5.59859">
        <ele>1317.65</ele>
        <time>2016-06-28T09:02:22Z</time>
      </trkpt>
      <trkpt lat="44.45421" lon="5.59852">
        <ele>1318.17</ele>
        <time>2016-06-28T09:02:25Z</time>
      </trkpt>
      <trkpt lat="44.45427" lon="5.59816">
        <ele>1320.58</ele>
        <time>2016-06-28T09:02:43Z</time>
      </trkpt>
      <trkpt lat="44.45429" lon="5.59814">
        <ele>1320.73</ele>
        <time>2016-06-28T09:02:44Z</time>
      </trkpt>
      <trkpt lat="44.4543" lon="5.59812">
        <ele>1320.89</ele>
        <time>2016-06-28T09:02:45Z</time>
      </trkpt>
      <trkpt lat="44.45431" lon="5.5981">
        <ele>1321.04</ele>
        <time>2016-06-28T09:02:46Z</time>
      </trkpt>
      <trkpt lat="44.45432" lon="5.59809">
        <ele>1321.21</ele>
        <time>2016-06-28T09:02:47Z</time>
      </trkpt>
      <trkpt lat="44.45433" lon="5.59807">
        <ele>1321.38</ele>
        <time>2016-06-28T09:02:48Z</time>
      </trkpt>
      <trkpt lat="44.45435" lon="5.59805">
        <ele>1321.67</ele>
        <time>2016-06-28T09:02:49Z</time>
      </trkpt>
      <trkpt lat="44.45447" lon="5.59793">
        <ele>1322.81</ele>
        <time>2016-06-28T09:02:58Z</time>
      </trkpt>
      <trkpt lat="44.45448" lon="5.59791">
        <ele>1322.92</ele>
        <time>2016-06-28T09:02:59Z</time>
      </trkpt>
      <trkpt lat="44.4545" lon="5.5979">
        <ele>1323.07</ele>
        <time>2016-06-28T09:03:00Z</time>
      </trkpt>
      <trkpt lat="44.45451" lon="5.59788">
        <ele>1323.24</ele>
        <time>2016-06-28T09:03:01Z</time>
      </trkpt>
      <trkpt lat="44.45452" lon="5.59787">
        <ele>1323.4</ele>
        <time>2016-06-28T09:03:02Z</time>
      </trkpt>
      <trkpt lat="44.45453" lon="5.59786">
        <ele>1323.57</ele>
        <time>2016-06-28T09:03:03Z</time>
      </trkpt>
      <trkpt lat="44.45454" lon="5.59784">
        <ele>1323.74</ele>
        <time>2016-06-28T09:03:04Z</time>
      </trkpt>
      <trkpt lat="44.45464" lon="5.59772">
        <ele>1325.01</ele>
        <time>2016-06-28T09:03:13Z</time>
      </trkpt>
      <trkpt lat="44.45465" lon="5.5977">
        <ele>1325.16</ele>
        <time>2016-06-28T09:03:14Z</time>
      </trkpt>
      <trkpt lat="44.45467" lon="5.59768">
        <ele>1325.49</ele>
        <time>2016-06-28T09:03:16Z</time>
      </trkpt>
      <trkpt lat="44.45468" lon="5.59767">
        <ele>1325.64</ele>
        <time>2016-06-28T09:03:17Z</time>
      </trkpt>
      <trkpt lat="44.4547" lon="5.59766">
        <ele>1325.93</ele>
        <time>2016-06-28T09:03:18Z</time>
      </trkpt>
      <trkpt lat="44.4547" lon="5.59765">
        <ele>1326.05</ele>
        <time>2016-06-28T09:03:19Z</time>
      </trkpt>
      <trkpt lat="44.45472" lon="5.59764">
        <ele>1326.15</ele>
        <time>2016-06-28T09:03:20Z</time>
      </trkpt>
      <trkpt lat="44.45473" lon="5.59763">
        <ele>1326.24</ele>
        <time>2016-06-28T09:03:21Z</time>
      </trkpt>
      <trkpt lat="44.45474" lon="5.59762">
        <ele>1326.33</ele>
        <time>2016-06-28T09:03:22Z</time>
      </trkpt>
      <trkpt lat="44.45475" lon="5.5976">
        <ele>1326.41</ele>
        <time>2016-06-28T09:03:23Z</time>
      </trkpt>
      <trkpt lat="44.45476" lon="5.59759">
        <ele>1326.54</ele>
        <time>2016-06-28T09:03:24Z</time>
      </trkpt>
      <trkpt lat="44.45494" lon="5.59742">
        <ele>1328.7</ele>
        <time>2016-06-28T09:03:38Z</time>
      </trkpt>
      <trkpt lat="44.45497" lon="5.5974">
        <ele>1329.35</ele>
        <time>2016-06-28T09:03:42Z</time>
      </trkpt>
      <trkpt lat="44.45499" lon="5.59739">
        <ele>1329.82</ele>
        <time>2016-06-28T09:03:45Z</time>
      </trkpt>
      <trkpt lat="44.455" lon="5.59739">
        <ele>1329.94</ele>
        <time>2016-06-28T09:03:46Z</time>
      </trkpt>
      <trkpt lat="44.45505" lon="5.59736">
        <ele>1330.41</ele>
        <time>2016-06-28T09:03:51Z</time>
      </trkpt>
      <trkpt lat="44.45507" lon="5.59736">
        <ele>1330.51</ele>
        <time>2016-06-28T09:03:52Z</time>
      </trkpt>
      <trkpt lat="44.45508" lon="5.59735">
        <ele>1330.62</ele>
        <time>2016-06-28T09:03:53Z</time>
      </trkpt>
      <trkpt lat="44.45538" lon="5.5973">
        <ele>1333.43</ele>
        <time>2016-06-28T09:04:13Z</time>
      </trkpt>
      <trkpt lat="44.45576" lon="5.59721">
        <ele>1336.49</ele>
        <time>2016-06-28T09:04:37Z</time>
      </trkpt>
      <trkpt lat="44.45612" lon="5.59702">
        <ele>1339.57</ele>
        <time>2016-06-28T09:05:01Z</time>
      </trkpt>
      <trkpt lat="44.45639" lon="5.59717">
        <ele>1342.61</ele>
        <time>2016-06-28T09:05:22Z</time>
      </trkpt>
      <trkpt lat="44.4566" lon="5.59761">
        <ele>1345.74</ele>
        <time>2016-06-28T09:05:46Z</time>
      </trkpt>
      <trkpt lat="44.45664" lon="5.59774">
        <ele>1347.55</ele>
        <time>2016-06-28T09:05:56Z</time>
      </trkpt>
      <trkpt lat="44.45664" lon="5.59776">
        <ele>1347.69</ele>
        <time>2016-06-28T09:05:57Z</time>
      </trkpt>
      <trkpt lat="44.45667" lon="5.59784">
        <ele>1348.65</ele>
        <time>2016-06-28T09:06:18Z</time>
      </trkpt>
      <trkpt lat="44.45666" lon="5.59783">
        <ele>1348.77</ele>
        <time>2016-06-28T09:07:04Z</time>
      </trkpt>
      <trkpt lat="44.45669" lon="5.59788">
        <ele>1349.17</ele>
        <time>2016-06-28T09:07:53Z</time>
      </trkpt>
      <trkpt lat="44.45668" lon="5.59786">
        <ele>1349.04</ele>
        <time>2016-06-28T09:08:35Z</time>
      </trkpt>
      <trkpt lat="44.45668" lon="5.59785">
        <ele>1348.81</ele>
        <time>2016-06-28T09:09:40Z</time>
      </trkpt>
      <trkpt lat="44.45669" lon="5.59784">
        <ele>1349.35</ele>
        <time>2016-06-28T09:10:30Z</time>
      </trkpt>
      <trkpt lat="44.4567" lon="5.59785">
        <ele>1348.67</ele>
        <time>2016-06-28T09:11:17Z</time>
      </trkpt>
      <trkpt lat="44.45669" lon="5.59784">
        <ele>1349.02</ele>
        <time>2016-06-28T09:11:54Z</time>
      </trkpt>
      <trkpt lat="44.45668" lon="5.59784">
        <ele>1349.2</ele>
        <time>2016-06-28T09:12:56Z</time>
      </trkpt>
      <trkpt lat="44.45668" lon="5.59786">
        <ele>1349.26</ele>
        <time>2016-06-28T09:14:07Z</time>
      </trkpt>
      <trkpt lat="44.45669" lon="5.59785">
        <ele>1349.55</ele>
        <time>2016-06-28T09:14:49Z</time>
      </trkpt>
      <trkpt lat="44.45671" lon="5.59786">
        <ele>1349.61</ele>
        <time>2016-06-28T09:15:13Z</time>
      </trkpt>
      <trkpt lat="44.45666" lon="5.59787">
        <ele>1349.64</ele>
        <time>2016-06-28T09:16:51Z</time>
      </trkpt>
      <trkpt lat="44.45671" lon="5.59785">
        <ele>1350.38</ele>
        <time>2016-06-28T09:18:12Z</time>
      </trkpt>
      <trkpt lat="44.45671" lon="5.59785">
        <ele>1350.65</ele>
        <time>2016-06-28T09:19:13Z</time>
      </trkpt>
      <trkpt lat="44.45671" lon="5.59787">
        <ele>1350.64</ele>
        <time>2016-06-28T09:20:09Z</time>
      </trkpt>
      <trkpt lat="44.45679" lon="5.59794">
        <ele>1351.11</ele>
        <time>2016-06-28T09:20:20Z</time>
      </trkpt>
      <trkpt lat="44.4568" lon="5.59795">
        <ele>1351.17</ele>
        <time>2016-06-28T09:20:21Z</time>
      </trkpt>
      <trkpt lat="44.45681" lon="5.59796">
        <ele>1351.33</ele>
        <time>2016-06-28T09:20:22Z</time>
      </trkpt>
      <trkpt lat="44.45683" lon="5.59799">
        <ele>1351.59</ele>
        <time>2016-06-28T09:20:25Z</time>
      </trkpt>
      <trkpt lat="44.45684" lon="5.598">
        <ele>1351.66</ele>
        <time>2016-06-28T09:20:26Z</time>
      </trkpt>
      <trkpt lat="44.45701" lon="5.59833">
        <ele>1354.7</ele>
        <time>2016-06-28T09:20:53Z</time>
      </trkpt>
      <trkpt lat="44.45725" lon="5.59861">
        <ele>1357.39</ele>
        <time>2016-06-28T09:21:17Z</time>
      </trkpt>
      <trkpt lat="44.45732" lon="5.59889">
        <ele>1359.38</ele>
        <time>2016-06-28T09:21:39Z</time>
      </trkpt>
      <trkpt lat="44.45731" lon="5.5989">
        <ele>1359.44</ele>
        <time>2016-06-28T09:21:40Z</time>
      </trkpt>
      <trkpt lat="44.4573" lon="5.59891">
        <ele>1359.5</ele>
        <time>2016-06-28T09:21:41Z</time>
      </trkpt>
      <trkpt lat="44.45714" lon="5.59915">
        <ele>1361.14</ele>
        <time>2016-06-28T09:22:00Z</time>
      </trkpt>
      <trkpt lat="44.45703" lon="5.59935">
        <ele>1362.94</ele>
        <time>2016-06-28T09:22:14Z</time>
      </trkpt>
      <trkpt lat="44.45703" lon="5.59936">
        <ele>1363.12</ele>
        <time>2016-06-28T09:22:15Z</time>
      </trkpt>
      <trkpt lat="44.45702" lon="5.59938">
        <ele>1363.3</ele>
        <time>2016-06-28T09:22:16Z</time>
      </trkpt>
      <trkpt lat="44.45701" lon="5.59939">
        <ele>1363.47</ele>
        <time>2016-06-28T09:22:17Z</time>
      </trkpt>
      <trkpt lat="44.457" lon="5.59941">
        <ele>1363.62</ele>
        <time>2016-06-28T09:22:18Z</time>
      </trkpt>
      <trkpt lat="44.45699" lon="5.59942">
        <ele>1363.75</ele>
        <time>2016-06-28T09:22:19Z</time>
      </trkpt>
      <trkpt lat="44.45698" lon="5.59944">
        <ele>1363.87</ele>
        <time>2016-06-28T09:22:20Z</time>
      </trkpt>
      <trkpt lat="44.45695" lon="5.5995">
        <ele>1364.48</ele>
        <time>2016-06-28T09:22:25Z</time>
      </trkpt>
      <trkpt lat="44.45696" lon="5.59952">
        <ele>1364.59</ele>
        <time>2016-06-28T09:22:26Z</time>
      </trkpt>
      <trkpt lat="44.45698" lon="5.59957">
        <ele>1364.96</ele>
        <time>2016-06-28T09:22:29Z</time>
      </trkpt>
      <trkpt lat="44.45699" lon="5.59958">
        <ele>1365.09</ele>
        <time>2016-06-28T09:22:30Z</time>
      </trkpt>
      <trkpt lat="44.457" lon="5.59959">
        <ele>1365.23</ele>
        <time>2016-06-28T09:22:31Z</time>
      </trkpt>
      <trkpt lat="44.45701" lon="5.5996">
        <ele>1365.36</ele>
        <time>2016-06-28T09:22:32Z</time>
      </trkpt>
      <trkpt lat="44.45717" lon="5.59958">
        <ele>1367.29</ele>
        <time>2016-06-28T09:22:46Z</time>
      </trkpt>
      <trkpt lat="44.45719" lon="5.59957">
        <ele>1367.41</ele>
        <time>2016-06-28T09:22:47Z</time>
      </trkpt>
      <trkpt lat="44.45721" lon="5.59957">
        <ele>1367.54</ele>
        <time>2016-06-28T09:22:48Z</time>
      </trkpt>
      <trkpt lat="44.45722" lon="5.59956">
        <ele>1367.65</ele>
        <time>2016-06-28T09:22:49Z</time>
      </trkpt>
      <trkpt lat="44.45724" lon="5.59956">
        <ele>1367.77</ele>
        <time>2016-06-28T09:22:50Z</time>
      </trkpt>
      <trkpt lat="44.45751" lon="5.5996">
        <ele>1370.09</ele>
        <time>2016-06-28T09:23:09Z</time>
      </trkpt>
      <trkpt lat="44.45752" lon="5.59965">
        <ele>1370.58</ele>
        <time>2016-06-28T09:23:12Z</time>
      </trkpt>
      <trkpt lat="44.45752" lon="5.59967">
        <ele>1370.72</ele>
        <time>2016-06-28T09:23:13Z</time>
      </trkpt>
      <trkpt lat="44.45751" lon="5.59969">
        <ele>1370.86</ele>
        <time>2016-06-28T09:23:14Z</time>
      </trkpt>
      <trkpt lat="44.4575" lon="5.5997">
        <ele>1371</ele>
        <time>2016-06-28T09:23:15Z</time>
      </trkpt>
      <trkpt lat="44.45749" lon="5.59971">
        <ele>1371.31</ele>
        <time>2016-06-28T09:23:16Z</time>
      </trkpt>
      <trkpt lat="44.45747" lon="5.59972">
        <ele>1371.47</ele>
        <time>2016-06-28T09:23:17Z</time>
      </trkpt>
      <trkpt lat="44.45744" lon="5.59973">
        <ele>1371.9</ele>
        <time>2016-06-28T09:23:19Z</time>
      </trkpt>
      <trkpt lat="44.45743" lon="5.59973">
        <ele>1372.11</ele>
        <time>2016-06-28T09:23:20Z</time>
      </trkpt>
      <trkpt lat="44.45741" lon="5.59972">
        <ele>1372.31</ele>
        <time>2016-06-28T09:23:21Z</time>
      </trkpt>
      <trkpt lat="44.45712" lon="5.59981">
        <ele>1375.54</ele>
        <time>2016-06-28T09:23:42Z</time>
      </trkpt>
      <trkpt lat="44.45692" lon="5.59998">
        <ele>1377.46</ele>
        <time>2016-06-28T09:23:59Z</time>
      </trkpt>
      <trkpt lat="44.45688" lon="5.60005">
        <ele>1378.22</ele>
        <time>2016-06-28T09:24:04Z</time>
      </trkpt>
      <trkpt lat="44.45688" lon="5.60007">
        <ele>1378.38</ele>
        <time>2016-06-28T09:24:05Z</time>
      </trkpt>
      <trkpt lat="44.45687" lon="5.60009">
        <ele>1378.53</ele>
        <time>2016-06-28T09:24:06Z</time>
      </trkpt>
      <trkpt lat="44.45687" lon="5.6001">
        <ele>1378.84</ele>
        <time>2016-06-28T09:24:07Z</time>
      </trkpt>
      <trkpt lat="44.45686" lon="5.60012">
        <ele>1378.97</ele>
        <time>2016-06-28T09:24:08Z</time>
      </trkpt>
      <trkpt lat="44.45685" lon="5.60013">
        <ele>1379.07</ele>
        <time>2016-06-28T09:24:09Z</time>
      </trkpt>
      <trkpt lat="44.45684" lon="5.60014">
        <ele>1379.17</ele>
        <time>2016-06-28T09:24:10Z</time>
      </trkpt>
      <trkpt lat="44.45683" lon="5.60016">
        <ele>1379.26</ele>
        <time>2016-06-28T09:24:11Z</time>
      </trkpt>
      <trkpt lat="44.45683" lon="5.60017">
        <ele>1379.37</ele>
        <time>2016-06-28T09:24:12Z</time>
      </trkpt>
      <trkpt lat="44.45682" lon="5.60019">
        <ele>1379.49</ele>
        <time>2016-06-28T09:24:13Z</time>
      </trkpt>
      <trkpt lat="44.45682" lon="5.60021">
        <ele>1379.59</ele>
        <time>2016-06-28T09:24:14Z</time>
      </trkpt>
      <trkpt lat="44.4568" lon="5.60023">
        <ele>1379.69</ele>
        <time>2016-06-28T09:24:15Z</time>
      </trkpt>
      <trkpt lat="44.4568" lon="5.60024">
        <ele>1379.77</ele>
        <time>2016-06-28T09:24:16Z</time>
      </trkpt>
      <trkpt lat="44.45678" lon="5.60025">
        <ele>1379.84</ele>
        <time>2016-06-28T09:24:17Z</time>
      </trkpt>
      <trkpt lat="44.45676" lon="5.60025">
        <ele>1379.91</ele>
        <time>2016-06-28T09:24:18Z</time>
      </trkpt>
      <trkpt lat="44.45675" lon="5.60025">
        <ele>1379.99</ele>
        <time>2016-06-28T09:24:19Z</time>
      </trkpt>
      <trkpt lat="44.45673" lon="5.60024">
        <ele>1380.05</ele>
        <time>2016-06-28T09:24:20Z</time>
      </trkpt>
      <trkpt lat="44.45671" lon="5.60023">
        <ele>1380.11</ele>
        <time>2016-06-28T09:24:21Z</time>
      </trkpt>
      <trkpt lat="44.45669" lon="5.60022">
        <ele>1380.16</ele>
        <time>2016-06-28T09:24:22Z</time>
      </trkpt>
      <trkpt lat="44.45666" lon="5.60019">
        <ele>1380.37</ele>
        <time>2016-06-28T09:24:24Z</time>
      </trkpt>
      <trkpt lat="44.45658" lon="5.59985">
        <ele>1382.96</ele>
        <time>2016-06-28T09:24:41Z</time>
      </trkpt>
      <trkpt lat="44.45658" lon="5.59983">
        <ele>1383.07</ele>
        <time>2016-06-28T09:24:42Z</time>
      </trkpt>
      <trkpt lat="44.45658" lon="5.59981">
        <ele>1383.17</ele>
        <time>2016-06-28T09:24:43Z</time>
      </trkpt>
      <trkpt lat="44.45658" lon="5.59977">
        <ele>1383.31</ele>
        <time>2016-06-28T09:24:45Z</time>
      </trkpt>
      <trkpt lat="44.45658" lon="5.59976">
        <ele>1383.36</ele>
        <time>2016-06-28T09:24:46Z</time>
      </trkpt>
      <trkpt lat="44.45657" lon="5.59959">
        <ele>1384.41</ele>
        <time>2016-06-28T09:24:55Z</time>
      </trkpt>
      <trkpt lat="44.45657" lon="5.59957">
        <ele>1384.7</ele>
        <time>2016-06-28T09:24:56Z</time>
      </trkpt>
      <trkpt lat="44.45657" lon="5.59955">
        <ele>1384.82</ele>
        <time>2016-06-28T09:24:57Z</time>
      </trkpt>
      <trkpt lat="44.45658" lon="5.59952">
        <ele>1384.92</ele>
        <time>2016-06-28T09:24:58Z</time>
      </trkpt>
      <trkpt lat="44.45658" lon="5.5995">
        <ele>1385.02</ele>
        <time>2016-06-28T09:24:59Z</time>
      </trkpt>
      <trkpt lat="44.45658" lon="5.59948">
        <ele>1385.13</ele>
        <time>2016-06-28T09:25:00Z</time>
      </trkpt>
      <trkpt lat="44.45657" lon="5.59946">
        <ele>1385.23</ele>
        <time>2016-06-28T09:25:01Z</time>
      </trkpt>
      <trkpt lat="44.45657" lon="5.59944">
        <ele>1385.34</ele>
        <time>2016-06-28T09:25:02Z</time>
      </trkpt>
      <trkpt lat="44.45657" lon="5.59942">
        <ele>1385.45</ele>
        <time>2016-06-28T09:25:03Z</time>
      </trkpt>
      <trkpt lat="44.45632" lon="5.59925">
        <ele>1387.76</ele>
        <time>2016-06-28T09:25:21Z</time>
      </trkpt>
      <trkpt lat="44.45622" lon="5.59921">
        <ele>1388.75</ele>
        <time>2016-06-28T09:25:29Z</time>
      </trkpt>
      <trkpt lat="44.4562" lon="5.5992">
        <ele>1388.88</ele>
        <time>2016-06-28T09:25:30Z</time>
      </trkpt>
      <trkpt lat="44.45619" lon="5.59919">
        <ele>1389</ele>
        <time>2016-06-28T09:25:31Z</time>
      </trkpt>
      <trkpt lat="44.45618" lon="5.59919">
        <ele>1389.1</ele>
        <time>2016-06-28T09:25:32Z</time>
      </trkpt>
      <trkpt lat="44.45616" lon="5.59918">
        <ele>1389.2</ele>
        <time>2016-06-28T09:25:33Z</time>
      </trkpt>
      <trkpt lat="44.45615" lon="5.59918">
        <ele>1389.3</ele>
        <time>2016-06-28T09:25:34Z</time>
      </trkpt>
      <trkpt lat="44.45613" lon="5.59917">
        <ele>1389.43</ele>
        <time>2016-06-28T09:25:35Z</time>
      </trkpt>
      <trkpt lat="44.45612" lon="5.59917">
        <ele>1389.54</ele>
        <time>2016-06-28T09:25:36Z</time>
      </trkpt>
      <trkpt lat="44.4561" lon="5.59917">
        <ele>1389.63</ele>
        <time>2016-06-28T09:25:37Z</time>
      </trkpt>
      <trkpt lat="44.45608" lon="5.59917">
        <ele>1389.75</ele>
        <time>2016-06-28T09:25:38Z</time>
      </trkpt>
      <trkpt lat="44.45607" lon="5.59917">
        <ele>1389.86</ele>
        <time>2016-06-28T09:25:39Z</time>
      </trkpt>
      <trkpt lat="44.4558" lon="5.59946">
        <ele>1392.42</ele>
        <time>2016-06-28T09:26:01Z</time>
      </trkpt>
      <trkpt lat="44.45572" lon="5.59986">
        <ele>1395.62</ele>
        <time>2016-06-28T09:26:21Z</time>
      </trkpt>
      <trkpt lat="44.45555" lon="5.60017">
        <ele>1398.65</ele>
        <time>2016-06-28T09:26:39Z</time>
      </trkpt>
      <trkpt lat="44.45552" lon="5.60021">
        <ele>1398.99</ele>
        <time>2016-06-28T09:26:42Z</time>
      </trkpt>
      <trkpt lat="44.45551" lon="5.60022">
        <ele>1399.12</ele>
        <time>2016-06-28T09:26:43Z</time>
      </trkpt>
      <trkpt lat="44.4555" lon="5.60023">
        <ele>1399.26</ele>
        <time>2016-06-28T09:26:44Z</time>
      </trkpt>
      <trkpt lat="44.45549" lon="5.60025">
        <ele>1399.4</ele>
        <time>2016-06-28T09:26:45Z</time>
      </trkpt>
      <trkpt lat="44.45547" lon="5.60026">
        <ele>1399.53</ele>
        <time>2016-06-28T09:26:46Z</time>
      </trkpt>
      <trkpt lat="44.45546" lon="5.60027">
        <ele>1399.65</ele>
        <time>2016-06-28T09:26:47Z</time>
      </trkpt>
      <trkpt lat="44.45545" lon="5.60029">
        <ele>1399.78</ele>
        <time>2016-06-28T09:26:48Z</time>
      </trkpt>
      <trkpt lat="44.45544" lon="5.60031">
        <ele>1399.9</ele>
        <time>2016-06-28T09:26:49Z</time>
      </trkpt>
      <trkpt lat="44.45543" lon="5.60032">
        <ele>1400.01</ele>
        <time>2016-06-28T09:26:50Z</time>
      </trkpt>
      <trkpt lat="44.45542" lon="5.60034">
        <ele>1400.12</ele>
        <time>2016-06-28T09:26:51Z</time>
      </trkpt>
      <trkpt lat="44.45541" lon="5.60035">
        <ele>1400.25</ele>
        <time>2016-06-28T09:26:52Z</time>
      </trkpt>
      <trkpt lat="44.4554" lon="5.60037">
        <ele>1400.39</ele>
        <time>2016-06-28T09:26:53Z</time>
      </trkpt>
      <trkpt lat="44.4554" lon="5.60039">
        <ele>1400.51</ele>
        <time>2016-06-28T09:26:54Z</time>
      </trkpt>
      <trkpt lat="44.45523" lon="5.60082">
        <ele>1403.59</ele>
        <time>2016-06-28T09:27:17Z</time>
      </trkpt>
      <trkpt lat="44.4551" lon="5.60118">
        <ele>1406.51</ele>
        <time>2016-06-28T09:27:36Z</time>
      </trkpt>
      <trkpt lat="44.45502" lon="5.6016">
        <ele>1409.55</ele>
        <time>2016-06-28T09:27:57Z</time>
      </trkpt>
      <trkpt lat="44.45499" lon="5.60208">
        <ele>1412.54</ele>
        <time>2016-06-28T09:28:20Z</time>
      </trkpt>
      <trkpt lat="44.455" lon="5.6022">
        <ele>1413.39</ele>
        <time>2016-06-28T09:28:26Z</time>
      </trkpt>
      <trkpt lat="44.455" lon="5.60223">
        <ele>1413.72</ele>
        <time>2016-06-28T09:28:28Z</time>
      </trkpt>
      <trkpt lat="44.455" lon="5.60225">
        <ele>1413.9</ele>
        <time>2016-06-28T09:28:29Z</time>
      </trkpt>
      <trkpt lat="44.45506" lon="5.60248">
        <ele>1415.52</ele>
        <time>2016-06-28T09:28:41Z</time>
      </trkpt>
      <trkpt lat="44.45507" lon="5.6025">
        <ele>1415.64</ele>
        <time>2016-06-28T09:28:42Z</time>
      </trkpt>
      <trkpt lat="44.45507" lon="5.60252">
        <ele>1415.78</ele>
        <time>2016-06-28T09:28:43Z</time>
      </trkpt>
      <trkpt lat="44.45508" lon="5.60253">
        <ele>1415.94</ele>
        <time>2016-06-28T09:28:44Z</time>
      </trkpt>
      <trkpt lat="44.45509" lon="5.60256">
        <ele>1416.12</ele>
        <time>2016-06-28T09:28:45Z</time>
      </trkpt>
      <trkpt lat="44.4551" lon="5.60258">
        <ele>1416.5</ele>
        <time>2016-06-28T09:28:46Z</time>
      </trkpt>
      <trkpt lat="44.45511" lon="5.60259">
        <ele>1416.66</ele>
        <time>2016-06-28T09:28:47Z</time>
      </trkpt>
      <trkpt lat="44.45511" lon="5.60261">
        <ele>1416.8</ele>
        <time>2016-06-28T09:28:48Z</time>
      </trkpt>
      <trkpt lat="44.45512" lon="5.60262">
        <ele>1416.94</ele>
        <time>2016-06-28T09:28:49Z</time>
      </trkpt>
      <trkpt lat="44.45518" lon="5.603">
        <ele>1419.31</ele>
        <time>2016-06-28T09:29:07Z</time>
      </trkpt>
      <trkpt lat="44.45518" lon="5.60319">
        <ele>1420.73</ele>
        <time>2016-06-28T09:29:18Z</time>
      </trkpt>
      <trkpt lat="44.45519" lon="5.60321">
        <ele>1420.84</ele>
        <time>2016-06-28T09:29:19Z</time>
      </trkpt>
      <trkpt lat="44.45519" lon="5.60322">
        <ele>1420.94</ele>
        <time>2016-06-28T09:29:20Z</time>
      </trkpt>
      <trkpt lat="44.45519" lon="5.60362">
        <ele>1423.64</ele>
        <time>2016-06-28T09:29:40Z</time>
      </trkpt>
      <trkpt lat="44.45509" lon="5.6039">
        <ele>1425.37</ele>
        <time>2016-06-28T09:29:55Z</time>
      </trkpt>
      <trkpt lat="44.45506" lon="5.60392">
        <ele>1425.59</ele>
        <time>2016-06-28T09:29:57Z</time>
      </trkpt>
      <trkpt lat="44.45499" lon="5.60399">
        <ele>1426.66</ele>
        <time>2016-06-28T09:30:03Z</time>
      </trkpt>
      <trkpt lat="44.45498" lon="5.60401">
        <ele>1426.77</ele>
        <time>2016-06-28T09:30:04Z</time>
      </trkpt>
      <trkpt lat="44.45496" lon="5.60402">
        <ele>1426.86</ele>
        <time>2016-06-28T09:30:05Z</time>
      </trkpt>
      <trkpt lat="44.45494" lon="5.60403">
        <ele>1426.97</ele>
        <time>2016-06-28T09:30:06Z</time>
      </trkpt>
      <trkpt lat="44.45493" lon="5.60404">
        <ele>1427.1</ele>
        <time>2016-06-28T09:30:07Z</time>
      </trkpt>
      <trkpt lat="44.45492" lon="5.60406">
        <ele>1427.24</ele>
        <time>2016-06-28T09:30:08Z</time>
      </trkpt>
      <trkpt lat="44.45491" lon="5.60407">
        <ele>1427.38</ele>
        <time>2016-06-28T09:30:09Z</time>
      </trkpt>
      <trkpt lat="44.4549" lon="5.60408">
        <ele>1427.51</ele>
        <time>2016-06-28T09:30:10Z</time>
      </trkpt>
      <trkpt lat="44.45488" lon="5.60409">
        <ele>1427.62</ele>
        <time>2016-06-28T09:30:11Z</time>
      </trkpt>
      <trkpt lat="44.45486" lon="5.6041">
        <ele>1427.72</ele>
        <time>2016-06-28T09:30:12Z</time>
      </trkpt>
      <trkpt lat="44.45485" lon="5.60411">
        <ele>1427.81</ele>
        <time>2016-06-28T09:30:13Z</time>
      </trkpt>
      <trkpt lat="44.45484" lon="5.60413">
        <ele>1427.93</ele>
        <time>2016-06-28T09:30:14Z</time>
      </trkpt>
      <trkpt lat="44.45483" lon="5.60414">
        <ele>1428.07</ele>
        <time>2016-06-28T09:30:15Z</time>
      </trkpt>
      <trkpt lat="44.45481" lon="5.60416">
        <ele>1428.21</ele>
        <time>2016-06-28T09:30:16Z</time>
      </trkpt>
      <trkpt lat="44.45479" lon="5.60418">
        <ele>1428.33</ele>
        <time>2016-06-28T09:30:17Z</time>
      </trkpt>
      <trkpt lat="44.45465" lon="5.60441">
        <ele>1430.5</ele>
        <time>2016-06-28T09:30:31Z</time>
      </trkpt>
      <trkpt lat="44.45464" lon="5.60443">
        <ele>1430.66</ele>
        <time>2016-06-28T09:30:32Z</time>
      </trkpt>
      <trkpt lat="44.45464" lon="5.60445">
        <ele>1430.77</ele>
        <time>2016-06-28T09:30:33Z</time>
      </trkpt>
      <trkpt lat="44.45464" lon="5.60447">
        <ele>1430.88</ele>
        <time>2016-06-28T09:30:34Z</time>
      </trkpt>
      <trkpt lat="44.45464" lon="5.60449">
        <ele>1431</ele>
        <time>2016-06-28T09:30:35Z</time>
      </trkpt>
      <trkpt lat="44.45463" lon="5.60455">
        <ele>1431.36</ele>
        <time>2016-06-28T09:30:38Z</time>
      </trkpt>
      <trkpt lat="44.45463" lon="5.60457">
        <ele>1431.51</ele>
        <time>2016-06-28T09:30:39Z</time>
      </trkpt>
      <trkpt lat="44.45463" lon="5.60459">
        <ele>1431.68</ele>
        <time>2016-06-28T09:30:40Z</time>
      </trkpt>
      <trkpt lat="44.45463" lon="5.60462">
        <ele>1431.84</ele>
        <time>2016-06-28T09:30:41Z</time>
      </trkpt>
      <trkpt lat="44.45467" lon="5.60494">
        <ele>1434.4</ele>
        <time>2016-06-28T09:30:59Z</time>
      </trkpt>
      <trkpt lat="44.4547" lon="5.60516">
        <ele>1435.67</ele>
        <time>2016-06-28T09:31:08Z</time>
      </trkpt>
      <trkpt lat="44.4547" lon="5.60519">
        <ele>1435.78</ele>
        <time>2016-06-28T09:31:09Z</time>
      </trkpt>
      <trkpt lat="44.45471" lon="5.60528">
        <ele>1436.25</ele>
        <time>2016-06-28T09:31:12Z</time>
      </trkpt>
      <trkpt lat="44.45471" lon="5.6053">
        <ele>1436.41</ele>
        <time>2016-06-28T09:31:13Z</time>
      </trkpt>
      <trkpt lat="44.45471" lon="5.60532">
        <ele>1436.56</ele>
        <time>2016-06-28T09:31:14Z</time>
      </trkpt>
      <trkpt lat="44.45474" lon="5.60572">
        <ele>1439.52</ele>
        <time>2016-06-28T09:31:34Z</time>
      </trkpt>
      <trkpt lat="44.45475" lon="5.60577">
        <ele>1439.94</ele>
        <time>2016-06-28T09:31:37Z</time>
      </trkpt>
      <trkpt lat="44.45475" lon="5.6058">
        <ele>1440.07</ele>
        <time>2016-06-28T09:31:38Z</time>
      </trkpt>
      <trkpt lat="44.45476" lon="5.60582">
        <ele>1440.18</ele>
        <time>2016-06-28T09:31:39Z</time>
      </trkpt>
      <trkpt lat="44.45476" lon="5.60584">
        <ele>1440.3</ele>
        <time>2016-06-28T09:31:40Z</time>
      </trkpt>
      <trkpt lat="44.45476" lon="5.60586">
        <ele>1440.44</ele>
        <time>2016-06-28T09:31:41Z</time>
      </trkpt>
      <trkpt lat="44.45476" lon="5.60588">
        <ele>1440.58</ele>
        <time>2016-06-28T09:31:42Z</time>
      </trkpt>
      <trkpt lat="44.45476" lon="5.6059">
        <ele>1440.7</ele>
        <time>2016-06-28T09:31:43Z</time>
      </trkpt>
      <trkpt lat="44.45476" lon="5.60592">
        <ele>1440.96</ele>
        <time>2016-06-28T09:31:44Z</time>
      </trkpt>
      <trkpt lat="44.45477" lon="5.60639">
        <ele>1444.02</ele>
        <time>2016-06-28T09:32:04Z</time>
      </trkpt>
      <trkpt lat="44.45477" lon="5.60648">
        <ele>1444.52</ele>
        <time>2016-06-28T09:32:08Z</time>
      </trkpt>
      <trkpt lat="44.45477" lon="5.6065">
        <ele>1444.63</ele>
        <time>2016-06-28T09:32:09Z</time>
      </trkpt>
      <trkpt lat="44.45478" lon="5.60652">
        <ele>1444.74</ele>
        <time>2016-06-28T09:32:10Z</time>
      </trkpt>
      <trkpt lat="44.45517" lon="5.60672">
        <ele>1446.69</ele>
        <time>2016-06-28T09:32:34Z</time>
      </trkpt>
      <trkpt lat="44.45563" lon="5.60695">
        <ele>1446.64</ele>
        <time>2016-06-28T09:32:55Z</time>
      </trkpt>
      <trkpt lat="44.45613" lon="5.60716">
        <ele>1446.74</ele>
        <time>2016-06-28T09:33:13Z</time>
      </trkpt>
      <trkpt lat="44.45632" lon="5.6073">
        <ele>1445.52</ele>
        <time>2016-06-28T09:33:29Z</time>
      </trkpt>
      <trkpt lat="44.45636" lon="5.60737">
        <ele>1445.23</ele>
        <time>2016-06-28T09:33:48Z</time>
      </trkpt>
      <trkpt lat="44.45639" lon="5.60736">
        <ele>1445.1</ele>
        <time>2016-06-28T09:34:16Z</time>
      </trkpt>
      <trkpt lat="44.45646" lon="5.60736">
        <ele>1445.14</ele>
        <time>2016-06-28T09:34:33Z</time>
      </trkpt>
      <trkpt lat="44.45648" lon="5.60736">
        <ele>1445.15</ele>
        <time>2016-06-28T09:34:34Z</time>
      </trkpt>
      <trkpt lat="44.45651" lon="5.60736">
        <ele>1445.15</ele>
        <time>2016-06-28T09:34:35Z</time>
      </trkpt>
      <trkpt lat="44.45653" lon="5.60736">
        <ele>1445.17</ele>
        <time>2016-06-28T09:34:36Z</time>
      </trkpt>
      <trkpt lat="44.45656" lon="5.60735">
        <ele>1445.19</ele>
        <time>2016-06-28T09:34:37Z</time>
      </trkpt>
      <trkpt lat="44.45659" lon="5.60734">
        <ele>1445.21</ele>
        <time>2016-06-28T09:34:38Z</time>
      </trkpt>
      <trkpt lat="44.45661" lon="5.60733">
        <ele>1445.23</ele>
        <time>2016-06-28T09:34:39Z</time>
      </trkpt>
      <trkpt lat="44.45663" lon="5.60731">
        <ele>1445.27</ele>
        <time>2016-06-28T09:34:40Z</time>
      </trkpt>
      <trkpt lat="44.45665" lon="5.6073">
        <ele>1445.35</ele>
        <time>2016-06-28T09:34:41Z</time>
      </trkpt>
      <trkpt lat="44.45681" lon="5.60715">
        <ele>1447.15</ele>
        <time>2016-06-28T09:34:51Z</time>
      </trkpt>
      <trkpt lat="44.45683" lon="5.60715">
        <ele>1448.17</ele>
        <time>2016-06-28T09:35:20Z</time>
      </trkpt>
      <trkpt lat="44.45683" lon="5.6072">
        <ele>1447.55</ele>
        <time>2016-06-28T09:35:54Z</time>
      </trkpt>
      <trkpt lat="44.45684" lon="5.60715">
        <ele>1447.67</ele>
        <time>2016-06-28T09:37:20Z</time>
      </trkpt>
      <trkpt lat="44.45688" lon="5.60717">
        <ele>1448.68</ele>
        <time>2016-06-28T09:39:24Z</time>
      </trkpt>
      <trkpt lat="44.45685" lon="5.60713">
        <ele>1449.23</ele>
        <time>2016-06-28T09:41:06Z</time>
      </trkpt>
      <trkpt lat="44.45681" lon="5.60706">
        <ele>1449.39</ele>
        <time>2016-06-28T09:41:22Z</time>
      </trkpt>
      <trkpt lat="44.45681" lon="5.60704">
        <ele>1449.36</ele>
        <time>2016-06-28T09:41:23Z</time>
      </trkpt>
      <trkpt lat="44.45682" lon="5.60702">
        <ele>1449.35</ele>
        <time>2016-06-28T09:41:24Z</time>
      </trkpt>
      <trkpt lat="44.45682" lon="5.60699">
        <ele>1449.34</ele>
        <time>2016-06-28T09:41:25Z</time>
      </trkpt>
      <trkpt lat="44.45683" lon="5.60697">
        <ele>1449.33</ele>
        <time>2016-06-28T09:41:26Z</time>
      </trkpt>
      <trkpt lat="44.45683" lon="5.60695">
        <ele>1449.36</ele>
        <time>2016-06-28T09:41:27Z</time>
      </trkpt>
      <trkpt lat="44.4566" lon="5.60641">
        <ele>1449.42</ele>
        <time>2016-06-28T09:41:50Z</time>
      </trkpt>
      <trkpt lat="44.45647" lon="5.60585">
        <ele>1450.11</ele>
        <time>2016-06-28T09:42:10Z</time>
      </trkpt>
      <trkpt lat="44.45646" lon="5.6053">
        <ele>1451.23</ele>
        <time>2016-06-28T09:42:30Z</time>
      </trkpt>
      <trkpt lat="44.45672" lon="5.60477">
        <ele>1450.09</ele>
        <time>2016-06-28T09:42:45Z</time>
      </trkpt>
      <trkpt lat="44.45707" lon="5.60431">
        <ele>1447.87</ele>
        <time>2016-06-28T09:43:01Z</time>
      </trkpt>
      <trkpt lat="44.45733" lon="5.60417">
        <ele>1448.91</ele>
        <time>2016-06-28T09:43:19Z</time>
      </trkpt>
      <trkpt lat="44.4574" lon="5.60409">
        <ele>1449.37</ele>
        <time>2016-06-28T09:43:44Z</time>
      </trkpt>
      <trkpt lat="44.45751" lon="5.60407">
        <ele>1449.84</ele>
        <time>2016-06-28T09:43:55Z</time>
      </trkpt>
      <trkpt lat="44.45762" lon="5.60397">
        <ele>1451.28</ele>
        <time>2016-06-28T09:44:03Z</time>
      </trkpt>
      <trkpt lat="44.45769" lon="5.60389">
        <ele>1451.73</ele>
        <time>2016-06-28T09:44:08Z</time>
      </trkpt>
      <trkpt lat="44.4579" lon="5.60346">
        <ele>1451.25</ele>
        <time>2016-06-28T09:44:24Z</time>
      </trkpt>
      <trkpt lat="44.45808" lon="5.6031">
        <ele>1452.23</ele>
        <time>2016-06-28T09:44:39Z</time>
      </trkpt>
      <trkpt lat="44.45813" lon="5.60302">
        <ele>1452.32</ele>
        <time>2016-06-28T09:44:42Z</time>
      </trkpt>
      <trkpt lat="44.45817" lon="5.60293">
        <ele>1452.37</ele>
        <time>2016-06-28T09:44:46Z</time>
      </trkpt>
      <trkpt lat="44.4582" lon="5.60286">
        <ele>1452.72</ele>
        <time>2016-06-28T09:44:49Z</time>
      </trkpt>
      <trkpt lat="44.45821" lon="5.60281">
        <ele>1452.87</ele>
        <time>2016-06-28T09:44:51Z</time>
      </trkpt>
      <trkpt lat="44.45825" lon="5.60273">
        <ele>1453.13</ele>
        <time>2016-06-28T09:44:55Z</time>
      </trkpt>
      <trkpt lat="44.45827" lon="5.60267">
        <ele>1453.24</ele>
        <time>2016-06-28T09:44:58Z</time>
      </trkpt>
      <trkpt lat="44.45844" lon="5.60261">
        <ele>1453.49</ele>
        <time>2016-06-28T09:45:06Z</time>
      </trkpt>
      <trkpt lat="44.45854" lon="5.60248">
        <ele>1454.09</ele>
        <time>2016-06-28T09:45:14Z</time>
      </trkpt>
      <trkpt lat="44.45854" lon="5.60244">
        <ele>1454.25</ele>
        <time>2016-06-28T09:45:16Z</time>
      </trkpt>
      <trkpt lat="44.45866" lon="5.60206">
        <ele>1455.46</ele>
        <time>2016-06-28T09:45:32Z</time>
      </trkpt>
      <trkpt lat="44.45887" lon="5.60162">
        <ele>1455.81</ele>
        <time>2016-06-28T09:45:46Z</time>
      </trkpt>
      <trkpt lat="44.459" lon="5.60142">
        <ele>1455.88</ele>
        <time>2016-06-28T09:45:54Z</time>
      </trkpt>
      <trkpt lat="44.45901" lon="5.60131">
        <ele>1455.86</ele>
        <time>2016-06-28T09:45:58Z</time>
      </trkpt>
      <trkpt lat="44.45895" lon="5.60092">
        <ele>1455.83</ele>
        <time>2016-06-28T09:46:12Z</time>
      </trkpt>
      <trkpt lat="44.45908" lon="5.60046">
        <ele>1456.03</ele>
        <time>2016-06-28T09:46:27Z</time>
      </trkpt>
      <trkpt lat="44.45928" lon="5.60004">
        <ele>1455.85</ele>
        <time>2016-06-28T09:46:45Z</time>
      </trkpt>
      <trkpt lat="44.45939" lon="5.5998">
        <ele>1456.8</ele>
        <time>2016-06-28T09:47:00Z</time>
      </trkpt>
      <trkpt lat="44.45941" lon="5.59979">
        <ele>1456.91</ele>
        <time>2016-06-28T09:47:25Z</time>
      </trkpt>
      <trkpt lat="44.45943" lon="5.59981">
        <ele>1456.98</ele>
        <time>2016-06-28T09:47:48Z</time>
      </trkpt>
      <trkpt lat="44.45945" lon="5.59977">
        <ele>1456.95</ele>
        <time>2016-06-28T09:47:52Z</time>
      </trkpt>
      <trkpt lat="44.45959" lon="5.59962">
        <ele>1456.81</ele>
        <time>2016-06-28T09:48:02Z</time>
      </trkpt>
      <trkpt lat="44.45961" lon="5.59956">
        <ele>1456.89</ele>
        <time>2016-06-28T09:48:06Z</time>
      </trkpt>
      <trkpt lat="44.45956" lon="5.59931">
        <ele>1456.74</ele>
        <time>2016-06-28T09:48:20Z</time>
      </trkpt>
      <trkpt lat="44.45955" lon="5.59913">
        <ele>1456.58</ele>
        <time>2016-06-28T09:48:40Z</time>
      </trkpt>
      <trkpt lat="44.45954" lon="5.59904">
        <ele>1456.67</ele>
        <time>2016-06-28T09:48:45Z</time>
      </trkpt>
      <trkpt lat="44.45962" lon="5.59868">
        <ele>1457.13</ele>
        <time>2016-06-28T09:49:02Z</time>
      </trkpt>
      <trkpt lat="44.45966" lon="5.59852">
        <ele>1457.33</ele>
        <time>2016-06-28T09:49:09Z</time>
      </trkpt>
      <trkpt lat="44.45975" lon="5.59825">
        <ele>1457.36</ele>
        <time>2016-06-28T09:49:18Z</time>
      </trkpt>
      <trkpt lat="44.46" lon="5.59784">
        <ele>1457.47</ele>
        <time>2016-06-28T09:49:35Z</time>
      </trkpt>
      <trkpt lat="44.46028" lon="5.59781">
        <ele>1457.68</ele>
        <time>2016-06-28T09:49:50Z</time>
      </trkpt>
      <trkpt lat="44.46044" lon="5.59783">
        <ele>1458.11</ele>
        <time>2016-06-28T09:49:58Z</time>
      </trkpt>
      <trkpt lat="44.46049" lon="5.59776">
        <ele>1457.3</ele>
        <time>2016-06-28T09:50:22Z</time>
      </trkpt>
      <trkpt lat="44.46057" lon="5.59766">
        <ele>1459.63</ele>
        <time>2016-06-28T09:50:49Z</time>
      </trkpt>
      <trkpt lat="44.46058" lon="5.59751">
        <ele>1458.16</ele>
        <time>2016-06-28T09:51:15Z</time>
      </trkpt>
      <trkpt lat="44.46056" lon="5.59746">
        <ele>1457.89</ele>
        <time>2016-06-28T09:51:45Z</time>
      </trkpt>
      <trkpt lat="44.46062" lon="5.59731">
        <ele>1457.42</ele>
        <time>2016-06-28T09:52:08Z</time>
      </trkpt>
      <trkpt lat="44.4606" lon="5.59729">
        <ele>1457.61</ele>
        <time>2016-06-28T09:52:47Z</time>
      </trkpt>
      <trkpt lat="44.46074" lon="5.59707">
        <ele>1457.23</ele>
        <time>2016-06-28T09:53:10Z</time>
      </trkpt>
      <trkpt lat="44.46079" lon="5.59703">
        <ele>1457.36</ele>
        <time>2016-06-28T09:53:13Z</time>
      </trkpt>
      <trkpt lat="44.46083" lon="5.59699">
        <ele>1457.82</ele>
        <time>2016-06-28T09:53:17Z</time>
      </trkpt>
      <trkpt lat="44.46105" lon="5.59665">
        <ele>1457.69</ele>
        <time>2016-06-28T09:53:31Z</time>
      </trkpt>
      <trkpt lat="44.46113" lon="5.5966">
        <ele>1457.63</ele>
        <time>2016-06-28T09:53:36Z</time>
      </trkpt>
      <trkpt lat="44.46118" lon="5.5966">
        <ele>1457.68</ele>
        <time>2016-06-28T09:53:38Z</time>
      </trkpt>
      <trkpt lat="44.46133" lon="5.59653">
        <ele>1458.12</ele>
        <time>2016-06-28T09:53:45Z</time>
      </trkpt>
      <trkpt lat="44.46135" lon="5.59649">
        <ele>1458.27</ele>
        <time>2016-06-28T09:53:48Z</time>
      </trkpt>
      <trkpt lat="44.46134" lon="5.59634">
        <ele>1458.42</ele>
        <time>2016-06-28T09:53:53Z</time>
      </trkpt>
      <trkpt lat="44.46133" lon="5.59627">
        <ele>1458.36</ele>
        <time>2016-06-28T09:53:56Z</time>
      </trkpt>
      <trkpt lat="44.46133" lon="5.59612">
        <ele>1458.37</ele>
        <time>2016-06-28T09:54:03Z</time>
      </trkpt>
      <trkpt lat="44.46136" lon="5.59557">
        <ele>1458.45</ele>
        <time>2016-06-28T09:54:19Z</time>
      </trkpt>
      <trkpt lat="44.46145" lon="5.59535">
        <ele>1458.73</ele>
        <time>2016-06-28T09:54:29Z</time>
      </trkpt>
      <trkpt lat="44.4615" lon="5.59526">
        <ele>1458.76</ele>
        <time>2016-06-28T09:54:33Z</time>
      </trkpt>
      <trkpt lat="44.46151" lon="5.5952">
        <ele>1458.77</ele>
        <time>2016-06-28T09:54:35Z</time>
      </trkpt>
      <trkpt lat="44.46155" lon="5.59509">
        <ele>1458.77</ele>
        <time>2016-06-28T09:54:39Z</time>
      </trkpt>
      <trkpt lat="44.4617" lon="5.59479">
        <ele>1459.04</ele>
        <time>2016-06-28T09:54:50Z</time>
      </trkpt>
      <trkpt lat="44.46193" lon="5.59443">
        <ele>1459.6</ele>
        <time>2016-06-28T09:55:04Z</time>
      </trkpt>
      <trkpt lat="44.46218" lon="5.59403">
        <ele>1460.04</ele>
        <time>2016-06-28T09:55:20Z</time>
      </trkpt>
      <trkpt lat="44.46232" lon="5.59377">
        <ele>1460.94</ele>
        <time>2016-06-28T09:55:31Z</time>
      </trkpt>
      <trkpt lat="44.46238" lon="5.59368">
        <ele>1461.16</ele>
        <time>2016-06-28T09:55:36Z</time>
      </trkpt>
      <trkpt lat="44.46242" lon="5.59358">
        <ele>1461.41</ele>
        <time>2016-06-28T09:55:40Z</time>
      </trkpt>
      <trkpt lat="44.46248" lon="5.5934">
        <ele>1461.58</ele>
        <time>2016-06-28T09:55:45Z</time>
      </trkpt>
      <trkpt lat="44.46265" lon="5.59299">
        <ele>1461.64</ele>
        <time>2016-06-28T09:55:58Z</time>
      </trkpt>
      <trkpt lat="44.46273" lon="5.59275">
        <ele>1461.66</ele>
        <time>2016-06-28T09:56:05Z</time>
      </trkpt>
      <trkpt lat="44.46278" lon="5.59265">
        <ele>1461.84</ele>
        <time>2016-06-28T09:56:09Z</time>
      </trkpt>
      <trkpt lat="44.46287" lon="5.5924">
        <ele>1462.54</ele>
        <time>2016-06-28T09:56:18Z</time>
      </trkpt>
      <trkpt lat="44.46295" lon="5.59211">
        <ele>1463.17</ele>
        <time>2016-06-28T09:56:28Z</time>
      </trkpt>
      <trkpt lat="44.46314" lon="5.59161">
        <ele>1464.66</ele>
        <time>2016-06-28T09:56:45Z</time>
      </trkpt>
      <trkpt lat="44.46325" lon="5.59124">
        <ele>1465.62</ele>
        <time>2016-06-28T09:56:59Z</time>
      </trkpt>
      <trkpt lat="44.46344" lon="5.59087">
        <ele>1466.91</ele>
        <time>2016-06-28T09:57:14Z</time>
      </trkpt>
      <trkpt lat="44.46351" lon="5.59072">
        <ele>1467.75</ele>
        <time>2016-06-28T09:57:30Z</time>
      </trkpt>
      <trkpt lat="44.46349" lon="5.59068">
        <ele>1467.63</ele>
        <time>2016-06-28T09:57:57Z</time>
      </trkpt>
      <trkpt lat="44.46348" lon="5.59066">
        <ele>1467.21</ele>
        <time>2016-06-28T09:58:30Z</time>
      </trkpt>
      <trkpt lat="44.46347" lon="5.59066">
        <ele>1466.66</ele>
        <time>2016-06-28T09:59:17Z</time>
      </trkpt>
      <trkpt lat="44.46352" lon="5.59061">
        <ele>1466.98</ele>
        <time>2016-06-28T09:59:57Z</time>
      </trkpt>
      <trkpt lat="44.46378" lon="5.59016">
        <ele>1467.64</ele>
        <time>2016-06-28T10:00:16Z</time>
      </trkpt>
      <trkpt lat="44.46404" lon="5.58992">
        <ele>1467.34</ele>
        <time>2016-06-28T10:00:30Z</time>
      </trkpt>
      <trkpt lat="44.46429" lon="5.58974">
        <ele>1465.49</ele>
        <time>2016-06-28T10:00:43Z</time>
      </trkpt>
      <trkpt lat="44.46445" lon="5.58963">
        <ele>1464.66</ele>
        <time>2016-06-28T10:00:51Z</time>
      </trkpt>
      <trkpt lat="44.46448" lon="5.5895">
        <ele>1464.03</ele>
        <time>2016-06-28T10:00:56Z</time>
      </trkpt>
      <trkpt lat="44.46451" lon="5.58944">
        <ele>1463.86</ele>
        <time>2016-06-28T10:00:58Z</time>
      </trkpt>
      <trkpt lat="44.46444" lon="5.58898">
        <ele>1462.31</ele>
        <time>2016-06-28T10:01:16Z</time>
      </trkpt>
      <trkpt lat="44.4644" lon="5.58884">
        <ele>1461.25</ele>
        <time>2016-06-28T10:01:32Z</time>
      </trkpt>
      <trkpt lat="44.46433" lon="5.58864">
        <ele>1460.79</ele>
        <time>2016-06-28T10:02:00Z</time>
      </trkpt>
      <trkpt lat="44.46427" lon="5.58828">
        <ele>1459.39</ele>
        <time>2016-06-28T10:02:14Z</time>
      </trkpt>
      <trkpt lat="44.46428" lon="5.58819">
        <ele>1459.05</ele>
        <time>2016-06-28T10:02:30Z</time>
      </trkpt>
      <trkpt lat="44.46433" lon="5.58812">
        <ele>1458.49</ele>
        <time>2016-06-28T10:02:37Z</time>
      </trkpt>
      <trkpt lat="44.46434" lon="5.58809">
        <ele>1458.29</ele>
        <time>2016-06-28T10:02:39Z</time>
      </trkpt>
      <trkpt lat="44.46442" lon="5.58797">
        <ele>1456.89</ele>
        <time>2016-06-28T10:02:59Z</time>
      </trkpt>
      <trkpt lat="44.46451" lon="5.58787">
        <ele>1456.56</ele>
        <time>2016-06-28T10:03:09Z</time>
      </trkpt>
      <trkpt lat="44.46465" lon="5.58767">
        <ele>1454.68</ele>
        <time>2016-06-28T10:03:28Z</time>
      </trkpt>
      <trkpt lat="44.46469" lon="5.58761">
        <ele>1453.82</ele>
        <time>2016-06-28T10:03:34Z</time>
      </trkpt>
      <trkpt lat="44.46471" lon="5.58759">
        <ele>1453.43</ele>
        <time>2016-06-28T10:03:36Z</time>
      </trkpt>
      <trkpt lat="44.46473" lon="5.58755">
        <ele>1452.93</ele>
        <time>2016-06-28T10:03:39Z</time>
      </trkpt>
      <trkpt lat="44.46481" lon="5.58745">
        <ele>1451.89</ele>
        <time>2016-06-28T10:03:49Z</time>
      </trkpt>
      <trkpt lat="44.46491" lon="5.58731">
        <ele>1450.6</ele>
        <time>2016-06-28T10:04:03Z</time>
      </trkpt>
      <trkpt lat="44.46494" lon="5.58728">
        <ele>1450.33</ele>
        <time>2016-06-28T10:04:06Z</time>
      </trkpt>
      <trkpt lat="44.46498" lon="5.58712">
        <ele>1448.52</ele>
        <time>2016-06-28T10:04:26Z</time>
      </trkpt>
      <trkpt lat="44.46502" lon="5.58702">
        <ele>1448.04</ele>
        <time>2016-06-28T10:04:37Z</time>
      </trkpt>
      <trkpt lat="44.46506" lon="5.58694">
        <ele>1447.4</ele>
        <time>2016-06-28T10:04:45Z</time>
      </trkpt>
      <trkpt lat="44.46522" lon="5.58672">
        <ele>1445.85</ele>
        <time>2016-06-28T10:05:05Z</time>
      </trkpt>
      <trkpt lat="44.46534" lon="5.58643">
        <ele>1443.64</ele>
        <time>2016-06-28T10:05:26Z</time>
      </trkpt>
      <trkpt lat="44.46535" lon="5.58642">
        <ele>1443.5</ele>
        <time>2016-06-28T10:05:27Z</time>
      </trkpt>
      <trkpt lat="44.46537" lon="5.58638">
        <ele>1443.02</ele>
        <time>2016-06-28T10:05:30Z</time>
      </trkpt>
      <trkpt lat="44.46542" lon="5.58629">
        <ele>1442.06</ele>
        <time>2016-06-28T10:05:38Z</time>
      </trkpt>
      <trkpt lat="44.46549" lon="5.5862">
        <ele>1440.52</ele>
        <time>2016-06-28T10:05:54Z</time>
      </trkpt>
      <trkpt lat="44.46555" lon="5.58612">
        <ele>1440.3</ele>
        <time>2016-06-28T10:06:01Z</time>
      </trkpt>
      <trkpt lat="44.46565" lon="5.58589">
        <ele>1438.3</ele>
        <time>2016-06-28T10:06:17Z</time>
      </trkpt>
      <trkpt lat="44.46566" lon="5.58586">
        <ele>1438.11</ele>
        <time>2016-06-28T10:06:19Z</time>
      </trkpt>
      <trkpt lat="44.4658" lon="5.58565">
        <ele>1435.99</ele>
        <time>2016-06-28T10:06:37Z</time>
      </trkpt>
      <trkpt lat="44.46589" lon="5.58556">
        <ele>1435.03</ele>
        <time>2016-06-28T10:06:47Z</time>
      </trkpt>
      <trkpt lat="44.46594" lon="5.58552">
        <ele>1434.66</ele>
        <time>2016-06-28T10:06:53Z</time>
      </trkpt>
      <trkpt lat="44.46613" lon="5.58541">
        <ele>1434.1</ele>
        <time>2016-06-28T10:07:14Z</time>
      </trkpt>
      <trkpt lat="44.46631" lon="5.58525">
        <ele>1432.94</ele>
        <time>2016-06-28T10:07:33Z</time>
      </trkpt>
      <trkpt lat="44.46637" lon="5.58518">
        <ele>1432.26</ele>
        <time>2016-06-28T10:07:40Z</time>
      </trkpt>
      <trkpt lat="44.46641" lon="5.58515">
        <ele>1431.86</ele>
        <time>2016-06-28T10:07:45Z</time>
      </trkpt>
      <trkpt lat="44.46646" lon="5.58514">
        <ele>1431.67</ele>
        <time>2016-06-28T10:07:50Z</time>
      </trkpt>
      <trkpt lat="44.46652" lon="5.58509">
        <ele>1431.34</ele>
        <time>2016-06-28T10:07:57Z</time>
      </trkpt>
      <trkpt lat="44.46658" lon="5.58499">
        <ele>1430.15</ele>
        <time>2016-06-28T10:08:08Z</time>
      </trkpt>
      <trkpt lat="44.46659" lon="5.58498">
        <ele>1429.96</ele>
        <time>2016-06-28T10:08:10Z</time>
      </trkpt>
      <trkpt lat="44.46669" lon="5.58473">
        <ele>1427.99</ele>
        <time>2016-06-28T10:08:30Z</time>
      </trkpt>
      <trkpt lat="44.46674" lon="5.58446">
        <ele>1426.19</ele>
        <time>2016-06-28T10:08:53Z</time>
      </trkpt>
      <trkpt lat="44.46681" lon="5.58432">
        <ele>1425.68</ele>
        <time>2016-06-28T10:09:04Z</time>
      </trkpt>
      <trkpt lat="44.46689" lon="5.58415">
        <ele>1425.18</ele>
        <time>2016-06-28T10:09:20Z</time>
      </trkpt>
      <trkpt lat="44.46691" lon="5.58413">
        <ele>1425.14</ele>
        <time>2016-06-28T10:09:22Z</time>
      </trkpt>
      <trkpt lat="44.46698" lon="5.58393">
        <ele>1422.96</ele>
        <time>2016-06-28T10:09:40Z</time>
      </trkpt>
      <trkpt lat="44.46704" lon="5.58383">
        <ele>1421.92</ele>
        <time>2016-06-28T10:10:04Z</time>
      </trkpt>
      <trkpt lat="44.46703" lon="5.58382">
        <ele>1421.84</ele>
        <time>2016-06-28T10:10:42Z</time>
      </trkpt>
      <trkpt lat="44.46704" lon="5.58379">
        <ele>1422</ele>
        <time>2016-06-28T10:11:07Z</time>
      </trkpt>
      <trkpt lat="44.46711" lon="5.58361">
        <ele>1421.81</ele>
        <time>2016-06-28T10:11:14Z</time>
      </trkpt>
      <trkpt lat="44.46715" lon="5.58353">
        <ele>1420.06</ele>
        <time>2016-06-28T10:11:26Z</time>
      </trkpt>
      <trkpt lat="44.46717" lon="5.58344">
        <ele>1419.66</ele>
        <time>2016-06-28T10:11:31Z</time>
      </trkpt>
      <trkpt lat="44.46723" lon="5.58334">
        <ele>1419.21</ele>
        <time>2016-06-28T10:11:36Z</time>
      </trkpt>
      <trkpt lat="44.4674" lon="5.58286">
        <ele>1417.35</ele>
        <time>2016-06-28T10:11:55Z</time>
      </trkpt>
      <trkpt lat="44.46751" lon="5.58245">
        <ele>1415.53</ele>
        <time>2016-06-28T10:12:11Z</time>
      </trkpt>
      <trkpt lat="44.46765" lon="5.58216">
        <ele>1414.29</ele>
        <time>2016-06-28T10:12:23Z</time>
      </trkpt>
      <trkpt lat="44.46768" lon="5.58201">
        <ele>1413.66</ele>
        <time>2016-06-28T10:12:29Z</time>
      </trkpt>
      <trkpt lat="44.46777" lon="5.58178">
        <ele>1411.99</ele>
        <time>2016-06-28T10:12:38Z</time>
      </trkpt>
      <trkpt lat="44.46783" lon="5.58153">
        <ele>1410.29</ele>
        <time>2016-06-28T10:12:46Z</time>
      </trkpt>
      <trkpt lat="44.46788" lon="5.58135">
        <ele>1409</ele>
        <time>2016-06-28T10:12:53Z</time>
      </trkpt>
      <trkpt lat="44.4679" lon="5.58111">
        <ele>1406.97</ele>
        <time>2016-06-28T10:13:03Z</time>
      </trkpt>
      <trkpt lat="44.46794" lon="5.58097">
        <ele>1405.38</ele>
        <time>2016-06-28T10:13:08Z</time>
      </trkpt>
      <trkpt lat="44.46795" lon="5.58086">
        <ele>1404.02</ele>
        <time>2016-06-28T10:13:12Z</time>
      </trkpt>
      <trkpt lat="44.46798" lon="5.58063">
        <ele>1400.15</ele>
        <time>2016-06-28T10:13:20Z</time>
      </trkpt>
      <trkpt lat="44.46798" lon="5.58057">
        <ele>1399.36</ele>
        <time>2016-06-28T10:13:22Z</time>
      </trkpt>
      <trkpt lat="44.46799" lon="5.58038">
        <ele>1396.64</ele>
        <time>2016-06-28T10:13:30Z</time>
      </trkpt>
      <trkpt lat="44.46801" lon="5.58024">
        <ele>1395.3</ele>
        <time>2016-06-28T10:13:35Z</time>
      </trkpt>
      <trkpt lat="44.46806" lon="5.58007">
        <ele>1393.26</ele>
        <time>2016-06-28T10:13:43Z</time>
      </trkpt>
      <trkpt lat="44.46809" lon="5.57995">
        <ele>1391.78</ele>
        <time>2016-06-28T10:13:48Z</time>
      </trkpt>
      <trkpt lat="44.46808" lon="5.57987">
        <ele>1390.54</ele>
        <time>2016-06-28T10:13:52Z</time>
      </trkpt>
      <trkpt lat="44.4681" lon="5.57958">
        <ele>1387.05</ele>
        <time>2016-06-28T10:14:02Z</time>
      </trkpt>
      <trkpt lat="44.46821" lon="5.5793">
        <ele>1383.88</ele>
        <time>2016-06-28T10:14:10Z</time>
      </trkpt>
      <trkpt lat="44.46838" lon="5.57889">
        <ele>1380.78</ele>
        <time>2016-06-28T10:14:24Z</time>
      </trkpt>
      <trkpt lat="44.4685" lon="5.57857">
        <ele>1377.31</ele>
        <time>2016-06-28T10:14:36Z</time>
      </trkpt>
      <trkpt lat="44.4685" lon="5.57855">
        <ele>1377.03</ele>
        <time>2016-06-28T10:14:37Z</time>
      </trkpt>
      <trkpt lat="44.46855" lon="5.57833">
        <ele>1374.72</ele>
        <time>2016-06-28T10:14:49Z</time>
      </trkpt>
      <trkpt lat="44.46872" lon="5.57786">
        <ele>1371.44</ele>
        <time>2016-06-28T10:15:08Z</time>
      </trkpt>
      <trkpt lat="44.46887" lon="5.57748">
        <ele>1368.29</ele>
        <time>2016-06-28T10:15:20Z</time>
      </trkpt>
      <trkpt lat="44.469" lon="5.5772">
        <ele>1365.28</ele>
        <time>2016-06-28T10:15:33Z</time>
      </trkpt>
      <trkpt lat="44.46917" lon="5.57673">
        <ele>1362.43</ele>
        <time>2016-06-28T10:15:47Z</time>
      </trkpt>
      <trkpt lat="44.46933" lon="5.5763">
        <ele>1359.23</ele>
        <time>2016-06-28T10:16:00Z</time>
      </trkpt>
      <trkpt lat="44.46937" lon="5.5761">
        <ele>1357.45</ele>
        <time>2016-06-28T10:16:06Z</time>
      </trkpt>
      <trkpt lat="44.46956" lon="5.5757">
        <ele>1353.78</ele>
        <time>2016-06-28T10:16:18Z</time>
      </trkpt>
      <trkpt lat="44.46971" lon="5.57536">
        <ele>1351.69</ele>
        <time>2016-06-28T10:16:29Z</time>
      </trkpt>
      <trkpt lat="44.46973" lon="5.57535">
        <ele>1351.53</ele>
        <time>2016-06-28T10:16:30Z</time>
      </trkpt>
      <trkpt lat="44.46976" lon="5.57523">
        <ele>1350.86</ele>
        <time>2016-06-28T10:16:34Z</time>
      </trkpt>
      <trkpt lat="44.46994" lon="5.57486">
        <ele>1347.45</ele>
        <time>2016-06-28T10:16:45Z</time>
      </trkpt>
      <trkpt lat="44.47018" lon="5.57446">
        <ele>1344.45</ele>
        <time>2016-06-28T10:16:55Z</time>
      </trkpt>
      <trkpt lat="44.47037" lon="5.57412">
        <ele>1341.5</ele>
        <time>2016-06-28T10:17:03Z</time>
      </trkpt>
      <trkpt lat="44.47051" lon="5.5739">
        <ele>1339.1</ele>
        <time>2016-06-28T10:17:08Z</time>
      </trkpt>
      <trkpt lat="44.47064" lon="5.57357">
        <ele>1335.83</ele>
        <time>2016-06-28T10:17:23Z</time>
      </trkpt>
      <trkpt lat="44.47071" lon="5.57349">
        <ele>1335.67</ele>
        <time>2016-06-28T10:17:38Z</time>
      </trkpt>
      <trkpt lat="44.47074" lon="5.57342">
        <ele>1336.27</ele>
        <time>2016-06-28T10:18:14Z</time>
      </trkpt>
      <trkpt lat="44.47067" lon="5.57343">
        <ele>1336.49</ele>
        <time>2016-06-28T10:18:51Z</time>
      </trkpt>
      <trkpt lat="44.47071" lon="5.5734">
        <ele>1336.24</ele>
        <time>2016-06-28T10:19:20Z</time>
      </trkpt>
      <trkpt lat="44.4707" lon="5.5734">
        <ele>1336.45</ele>
        <time>2016-06-28T10:19:55Z</time>
      </trkpt>
      <trkpt lat="44.47076" lon="5.57341">
        <ele>1336.63</ele>
        <time>2016-06-28T10:20:30Z</time>
      </trkpt>
      <trkpt lat="44.47072" lon="5.57339">
        <ele>1336.15</ele>
        <time>2016-06-28T10:21:08Z</time>
      </trkpt>
      <trkpt lat="44.47072" lon="5.57341">
        <ele>1335.87</ele>
        <time>2016-06-28T10:22:24Z</time>
      </trkpt>
      <trkpt lat="44.47072" lon="5.5734">
        <ele>1336.36</ele>
        <time>2016-06-28T10:23:41Z</time>
      </trkpt>
      <trkpt lat="44.47075" lon="5.57336">
        <ele>1336.34</ele>
        <time>2016-06-28T10:23:44Z</time>
      </trkpt>
      <trkpt lat="44.47099" lon="5.57302">
        <ele>1334.67</ele>
        <time>2016-06-28T10:23:59Z</time>
      </trkpt>
      <trkpt lat="44.4713" lon="5.57259">
        <ele>1331.12</ele>
        <time>2016-06-28T10:24:12Z</time>
      </trkpt>
      <trkpt lat="44.4715" lon="5.57228">
        <ele>1327.92</ele>
        <time>2016-06-28T10:24:21Z</time>
      </trkpt>
      <trkpt lat="44.47162" lon="5.57206">
        <ele>1326.56</ele>
        <time>2016-06-28T10:24:26Z</time>
      </trkpt>
      <trkpt lat="44.47182" lon="5.57176">
        <ele>1324.09</ele>
        <time>2016-06-28T10:24:34Z</time>
      </trkpt>
      <trkpt lat="44.47207" lon="5.57135">
        <ele>1319.93</ele>
        <time>2016-06-28T10:24:44Z</time>
      </trkpt>
      <trkpt lat="44.47225" lon="5.57108">
        <ele>1317.71</ele>
        <time>2016-06-28T10:24:50Z</time>
      </trkpt>
      <trkpt lat="44.47247" lon="5.57079">
        <ele>1314.28</ele>
        <time>2016-06-28T10:24:59Z</time>
      </trkpt>
      <trkpt lat="44.47268" lon="5.57049">
        <ele>1311.13</ele>
        <time>2016-06-28T10:25:08Z</time>
      </trkpt>
      <trkpt lat="44.47296" lon="5.57008">
        <ele>1307.89</ele>
        <time>2016-06-28T10:25:18Z</time>
      </trkpt>
      <trkpt lat="44.47313" lon="5.56984">
        <ele>1304.86</ele>
        <time>2016-06-28T10:25:30Z</time>
      </trkpt>
      <trkpt lat="44.47323" lon="5.56974">
        <ele>1303.84</ele>
        <time>2016-06-28T10:25:34Z</time>
      </trkpt>
      <trkpt lat="44.47356" lon="5.56933">
        <ele>1300.48</ele>
        <time>2016-06-28T10:25:47Z</time>
      </trkpt>
      <trkpt lat="44.47386" lon="5.56899">
        <ele>1297.13</ele>
        <time>2016-06-28T10:25:57Z</time>
      </trkpt>
      <trkpt lat="44.4741" lon="5.56871">
        <ele>1293.85</ele>
        <time>2016-06-28T10:26:05Z</time>
      </trkpt>
      <trkpt lat="44.47428" lon="5.56845">
        <ele>1290.62</ele>
        <time>2016-06-28T10:26:13Z</time>
      </trkpt>
      <trkpt lat="44.47434" lon="5.56829">
        <ele>1287.59</ele>
        <time>2016-06-28T10:26:25Z</time>
      </trkpt>
      <trkpt lat="44.47432" lon="5.56826">
        <ele>1287.1</ele>
        <time>2016-06-28T10:26:29Z</time>
      </trkpt>
      <trkpt lat="44.47408" lon="5.56824">
        <ele>1283.89</ele>
        <time>2016-06-28T10:26:43Z</time>
      </trkpt>
      <trkpt lat="44.47404" lon="5.56825">
        <ele>1283.54</ele>
        <time>2016-06-28T10:26:44Z</time>
      </trkpt>
      <trkpt lat="44.4739" lon="5.56829">
        <ele>1281.5</ele>
        <time>2016-06-28T10:26:49Z</time>
      </trkpt>
      <trkpt lat="44.47377" lon="5.56835">
        <ele>1279.66</ele>
        <time>2016-06-28T10:26:53Z</time>
      </trkpt>
      <trkpt lat="44.47355" lon="5.56839">
        <ele>1276.39</ele>
        <time>2016-06-28T10:27:01Z</time>
      </trkpt>
      <trkpt lat="44.47304" lon="5.56849">
        <ele>1273.13</ele>
        <time>2016-06-28T10:27:15Z</time>
      </trkpt>
      <trkpt lat="44.47291" lon="5.56852">
        <ele>1272.32</ele>
        <time>2016-06-28T10:27:18Z</time>
      </trkpt>
      <trkpt lat="44.47283" lon="5.56856">
        <ele>1271.69</ele>
        <time>2016-06-28T10:27:20Z</time>
      </trkpt>
      <trkpt lat="44.47242" lon="5.56868">
        <ele>1268.99</ele>
        <time>2016-06-28T10:27:29Z</time>
      </trkpt>
      <trkpt lat="44.47204" lon="5.56878">
        <ele>1266.47</ele>
        <time>2016-06-28T10:27:38Z</time>
      </trkpt>
      <trkpt lat="44.47188" lon="5.5689">
        <ele>1265.16</ele>
        <time>2016-06-28T10:27:42Z</time>
      </trkpt>
      <trkpt lat="44.47179" lon="5.56896">
        <ele>1264.29</ele>
        <time>2016-06-28T10:27:44Z</time>
      </trkpt>
      <trkpt lat="44.47157" lon="5.56902">
        <ele>1262.54</ele>
        <time>2016-06-28T10:27:48Z</time>
      </trkpt>
      <trkpt lat="44.47132" lon="5.56905">
        <ele>1259.62</ele>
        <time>2016-06-28T10:27:55Z</time>
      </trkpt>
      <trkpt lat="44.4712" lon="5.56901">
        <ele>1257.46</ele>
        <time>2016-06-28T10:28:01Z</time>
      </trkpt>
      <trkpt lat="44.4711" lon="5.569">
        <ele>1255.75</ele>
        <time>2016-06-28T10:28:28Z</time>
      </trkpt>
      <trkpt lat="44.47104" lon="5.56901">
        <ele>1255.9</ele>
        <time>2016-06-28T10:28:57Z</time>
      </trkpt>
      <trkpt lat="44.47098" lon="5.56903">
        <ele>1255.83</ele>
        <time>2016-06-28T10:29:25Z</time>
      </trkpt>
      <trkpt lat="44.47097" lon="5.56903">
        <ele>1256.27</ele>
        <time>2016-06-28T10:29:57Z</time>
      </trkpt>
      <trkpt lat="44.47094" lon="5.56904">
        <ele>1256.37</ele>
        <time>2016-06-28T10:30:08Z</time>
      </trkpt>
      <trkpt lat="44.4706" lon="5.56925">
        <ele>1257.53</ele>
        <time>2016-06-28T10:30:30Z</time>
      </trkpt>
      <trkpt lat="44.4703" lon="5.56941">
        <ele>1259.6</ele>
        <time>2016-06-28T10:30:49Z</time>
      </trkpt>
      <trkpt lat="44.46998" lon="5.56954">
        <ele>1261.49</ele>
        <time>2016-06-28T10:31:06Z</time>
      </trkpt>
      <trkpt lat="44.46962" lon="5.5697">
        <ele>1263.8</ele>
        <time>2016-06-28T10:31:26Z</time>
      </trkpt>
      <trkpt lat="44.46952" lon="5.56978">
        <ele>1264.67</ele>
        <time>2016-06-28T10:31:33Z</time>
      </trkpt>
      <trkpt lat="44.46947" lon="5.56989">
        <ele>1265.57</ele>
        <time>2016-06-28T10:31:55Z</time>
      </trkpt>
      <trkpt lat="44.46949" lon="5.56994">
        <ele>1265.46</ele>
        <time>2016-06-28T10:32:12Z</time>
      </trkpt>
      <trkpt lat="44.46949" lon="5.56998">
        <ele>1265.42</ele>
        <time>2016-06-28T10:32:15Z</time>
      </trkpt>
      <trkpt lat="44.46937" lon="5.57032">
        <ele>1265.34</ele>
        <time>2016-06-28T10:32:29Z</time>
      </trkpt>
      <trkpt lat="44.4693" lon="5.57051">
        <ele>1264.94</ele>
        <time>2016-06-28T10:34:23Z</time>
      </trkpt>
      <trkpt lat="44.46949" lon="5.56999">
        <ele>1264.87</ele>
        <time>2016-06-28T10:34:37Z</time>
      </trkpt>
      <trkpt lat="44.46944" lon="5.56983">
        <ele>1264.66</ele>
        <time>2016-06-28T10:34:42Z</time>
      </trkpt>
      <trkpt lat="44.46935" lon="5.56982">
        <ele>1264.75</ele>
        <time>2016-06-28T10:34:46Z</time>
      </trkpt>
      <trkpt lat="44.4689" lon="5.56978">
        <ele>1265.37</ele>
        <time>2016-06-28T10:35:02Z</time>
      </trkpt>
      <trkpt lat="44.46835" lon="5.56977">
        <ele>1266.4</ele>
        <time>2016-06-28T10:35:19Z</time>
      </trkpt>
      <trkpt lat="44.46824" lon="5.56977">
        <ele>1267.06</ele>
        <time>2016-06-28T10:35:24Z</time>
      </trkpt>
      <trkpt lat="44.46813" lon="5.56978">
        <ele>1267.7</ele>
        <time>2016-06-28T10:35:29Z</time>
      </trkpt>
      <trkpt lat="44.46798" lon="5.56976">
        <ele>1268.42</ele>
        <time>2016-06-28T10:35:50Z</time>
      </trkpt>
      <trkpt lat="44.46743" lon="5.56972">
        <ele>1268.35</ele>
        <time>2016-06-28T10:36:07Z</time>
      </trkpt>
      <trkpt lat="44.4666" lon="5.56975">
        <ele>1267.57</ele>
        <time>2016-06-28T10:36:25Z</time>
      </trkpt>
      <trkpt lat="44.46581" lon="5.56983">
        <ele>1265.1</ele>
        <time>2016-06-28T10:36:41Z</time>
      </trkpt>
      <trkpt lat="44.46569" lon="5.56984">
        <ele>1264.52</ele>
        <time>2016-06-28T10:36:55Z</time>
      </trkpt>
      <trkpt lat="44.4657" lon="5.56978">
        <ele>1264.49</ele>
        <time>2016-06-28T10:37:25Z</time>
      </trkpt>
      <trkpt lat="44.4657" lon="5.56985">
        <ele>1264.29</ele>
        <time>2016-06-28T10:37:51Z</time>
      </trkpt>
      <trkpt lat="44.46569" lon="5.56985">
        <ele>1264.47</ele>
        <time>2016-06-28T10:38:21Z</time>
      </trkpt>
      <trkpt lat="44.46573" lon="5.56985">
        <ele>1264.14</ele>
        <time>2016-06-28T10:38:56Z</time>
      </trkpt>
      <trkpt lat="44.4657" lon="5.56986">
        <ele>1263.98</ele>
        <time>2016-06-28T10:39:13Z</time>
      </trkpt>
      <trkpt lat="44.46566" lon="5.56982">
        <ele>1264.17</ele>
        <time>2016-06-28T10:39:42Z</time>
      </trkpt>
      <trkpt lat="44.46575" lon="5.56979">
        <ele>1263.64</ele>
        <time>2016-06-28T10:40:11Z</time>
      </trkpt>
      <trkpt lat="44.466" lon="5.56939">
        <ele>1263.83</ele>
        <time>2016-06-28T10:40:28Z</time>
      </trkpt>
      <trkpt lat="44.46637" lon="5.56879">
        <ele>1263.96</ele>
        <time>2016-06-28T10:40:43Z</time>
      </trkpt>
      <trkpt lat="44.46679" lon="5.56817">
        <ele>1264.74</ele>
        <time>2016-06-28T10:40:59Z</time>
      </trkpt>
      <trkpt lat="44.46697" lon="5.56777">
        <ele>1266.13</ele>
        <time>2016-06-28T10:41:11Z</time>
      </trkpt>
      <trkpt lat="44.46687" lon="5.56776">
        <ele>1266.28</ele>
        <time>2016-06-28T10:41:19Z</time>
      </trkpt>
      <trkpt lat="44.46668" lon="5.56801">
        <ele>1264.58</ele>
        <time>2016-06-28T10:41:27Z</time>
      </trkpt>
      <trkpt lat="44.46625" lon="5.5684">
        <ele>1261.25</ele>
        <time>2016-06-28T10:41:36Z</time>
      </trkpt>
      <trkpt lat="44.46597" lon="5.56868">
        <ele>1257.88</ele>
        <time>2016-06-28T10:41:42Z</time>
      </trkpt>
      <trkpt lat="44.46557" lon="5.56901">
        <ele>1253.61</ele>
        <time>2016-06-28T10:41:50Z</time>
      </trkpt>
      <trkpt lat="44.46538" lon="5.56915">
        <ele>1252.01</ele>
        <time>2016-06-28T10:41:54Z</time>
      </trkpt>
      <trkpt lat="44.46505" lon="5.56933">
        <ele>1248.36</ele>
        <time>2016-06-28T10:42:04Z</time>
      </trkpt>
      <trkpt lat="44.46501" lon="5.56934">
        <ele>1248.08</ele>
        <time>2016-06-28T10:42:05Z</time>
      </trkpt>
      <trkpt lat="44.46477" lon="5.56943">
        <ele>1246.74</ele>
        <time>2016-06-28T10:42:10Z</time>
      </trkpt>
      <trkpt lat="44.46452" lon="5.56954">
        <ele>1244.88</ele>
        <time>2016-06-28T10:42:14Z</time>
      </trkpt>
      <trkpt lat="44.46412" lon="5.56984">
        <ele>1242.55</ele>
        <time>2016-06-28T10:42:20Z</time>
      </trkpt>
      <trkpt lat="44.46375" lon="5.57012">
        <ele>1239.83</ele>
        <time>2016-06-28T10:42:26Z</time>
      </trkpt>
      <trkpt lat="44.46336" lon="5.5704">
        <ele>1237.51</ele>
        <time>2016-06-28T10:42:32Z</time>
      </trkpt>
      <trkpt lat="44.46312" lon="5.57063">
        <ele>1235.14</ele>
        <time>2016-06-28T10:42:38Z</time>
      </trkpt>
      <trkpt lat="44.46279" lon="5.57083">
        <ele>1232.09</ele>
        <time>2016-06-28T10:42:46Z</time>
      </trkpt>
      <trkpt lat="44.46262" lon="5.57085">
        <ele>1229.01</ele>
        <time>2016-06-28T10:42:54Z</time>
      </trkpt>
      <trkpt lat="44.46261" lon="5.57087">
        <ele>1228.42</ele>
        <time>2016-06-28T10:42:57Z</time>
      </trkpt>
      <trkpt lat="44.46247" lon="5.57092">
        <ele>1227.57</ele>
        <time>2016-06-28T10:43:02Z</time>
      </trkpt>
      <trkpt lat="44.46224" lon="5.57099">
        <ele>1226.67</ele>
        <time>2016-06-28T10:43:07Z</time>
      </trkpt>
      <trkpt lat="44.46208" lon="5.57104">
        <ele>1225.79</ele>
        <time>2016-06-28T10:43:10Z</time>
      </trkpt>
      <trkpt lat="44.46166" lon="5.57119">
        <ele>1222.71</ele>
        <time>2016-06-28T10:43:17Z</time>
      </trkpt>
      <trkpt lat="44.46156" lon="5.57125">
        <ele>1221.7</ele>
        <time>2016-06-28T10:43:19Z</time>
      </trkpt>
      <trkpt lat="44.46144" lon="5.57127">
        <ele>1220.52</ele>
        <time>2016-06-28T10:43:21Z</time>
      </trkpt>
      <trkpt lat="44.46108" lon="5.57135">
        <ele>1216.83</ele>
        <time>2016-06-28T10:43:26Z</time>
      </trkpt>
      <trkpt lat="44.46095" lon="5.57144">
        <ele>1215.61</ele>
        <time>2016-06-28T10:43:28Z</time>
      </trkpt>
      <trkpt lat="44.46081" lon="5.57151">
        <ele>1214.23</ele>
        <time>2016-06-28T10:43:30Z</time>
      </trkpt>
      <trkpt lat="44.46038" lon="5.57158">
        <ele>1209.91</ele>
        <time>2016-06-28T10:43:36Z</time>
      </trkpt>
      <trkpt lat="44.46" lon="5.57168">
        <ele>1206.15</ele>
        <time>2016-06-28T10:43:41Z</time>
      </trkpt>
      <trkpt lat="44.45968" lon="5.5718">
        <ele>1201.66</ele>
        <time>2016-06-28T10:43:46Z</time>
      </trkpt>
      <trkpt lat="44.45954" lon="5.57178">
        <ele>1199.95</ele>
        <time>2016-06-28T10:43:48Z</time>
      </trkpt>
      <trkpt lat="44.45922" lon="5.57169">
        <ele>1195.86</ele>
        <time>2016-06-28T10:43:53Z</time>
      </trkpt>
      <trkpt lat="44.45892" lon="5.57151">
        <ele>1191.29</ele>
        <time>2016-06-28T10:43:58Z</time>
      </trkpt>
      <trkpt lat="44.45886" lon="5.57147">
        <ele>1190.52</ele>
        <time>2016-06-28T10:43:59Z</time>
      </trkpt>
      <trkpt lat="44.45856" lon="5.5714">
        <ele>1186.91</ele>
        <time>2016-06-28T10:44:04Z</time>
      </trkpt>
      <trkpt lat="44.45846" lon="5.57121">
        <ele>1184.16</ele>
        <time>2016-06-28T10:44:08Z</time>
      </trkpt>
      <trkpt lat="44.45843" lon="5.57104">
        <ele>1183.02</ele>
        <time>2016-06-28T10:44:10Z</time>
      </trkpt>
      <trkpt lat="44.4583" lon="5.57053">
        <ele>1179.3</ele>
        <time>2016-06-28T10:44:16Z</time>
      </trkpt>
      <trkpt lat="44.4583" lon="5.57049">
        <ele>1178.59</ele>
        <time>2016-06-28T10:44:17Z</time>
      </trkpt>
      <trkpt lat="44.45837" lon="5.5705">
        <ele>1175.48</ele>
        <time>2016-06-28T10:44:21Z</time>
      </trkpt>
      <trkpt lat="44.45842" lon="5.57059">
        <ele>1174.41</ele>
        <time>2016-06-28T10:44:23Z</time>
      </trkpt>
      <trkpt lat="44.45862" lon="5.57082">
        <ele>1172.33</ele>
        <time>2016-06-28T10:44:28Z</time>
      </trkpt>
      <trkpt lat="44.45881" lon="5.57088">
        <ele>1170.61</ele>
        <time>2016-06-28T10:44:32Z</time>
      </trkpt>
      <trkpt lat="44.45898" lon="5.57086">
        <ele>1168.92</ele>
        <time>2016-06-28T10:44:35Z</time>
      </trkpt>
      <trkpt lat="44.45916" lon="5.57069">
        <ele>1166.55</ele>
        <time>2016-06-28T10:44:39Z</time>
      </trkpt>
      <trkpt lat="44.45945" lon="5.57046">
        <ele>1162.85</ele>
        <time>2016-06-28T10:44:44Z</time>
      </trkpt>
      <trkpt lat="44.45959" lon="5.57039">
        <ele>1161.48</ele>
        <time>2016-06-28T10:44:46Z</time>
      </trkpt>
      <trkpt lat="44.45972" lon="5.57035">
        <ele>1160.11</ele>
        <time>2016-06-28T10:44:48Z</time>
      </trkpt>
      <trkpt lat="44.46003" lon="5.57007">
        <ele>1156.52</ele>
        <time>2016-06-28T10:44:53Z</time>
      </trkpt>
      <trkpt lat="44.46027" lon="5.56964">
        <ele>1152.66</ele>
        <time>2016-06-28T10:44:58Z</time>
      </trkpt>
      <trkpt lat="44.46034" lon="5.56947">
        <ele>1151.09</ele>
        <time>2016-06-28T10:45:00Z</time>
      </trkpt>
      <trkpt lat="44.46055" lon="5.56926">
        <ele>1147.19</ele>
        <time>2016-06-28T10:45:05Z</time>
      </trkpt>
      <trkpt lat="44.46075" lon="5.56932">
        <ele>1143.81</ele>
        <time>2016-06-28T10:45:09Z</time>
      </trkpt>
      <trkpt lat="44.46091" lon="5.56928">
        <ele>1142.22</ele>
        <time>2016-06-28T10:45:12Z</time>
      </trkpt>
      <trkpt lat="44.46135" lon="5.56895">
        <ele>1138.08</ele>
        <time>2016-06-28T10:45:19Z</time>
      </trkpt>
      <trkpt lat="44.46147" lon="5.56886">
        <ele>1136.89</ele>
        <time>2016-06-28T10:45:21Z</time>
      </trkpt>
      <trkpt lat="44.46157" lon="5.56873">
        <ele>1135.87</ele>
        <time>2016-06-28T10:45:23Z</time>
      </trkpt>
      <trkpt lat="44.46186" lon="5.5684">
        <ele>1133.22</ele>
        <time>2016-06-28T10:45:29Z</time>
      </trkpt>
      <trkpt lat="44.4618" lon="5.5683">
        <ele>1131.56</ele>
        <time>2016-06-28T10:45:33Z</time>
      </trkpt>
      <trkpt lat="44.46174" lon="5.56837">
        <ele>1130.97</ele>
        <time>2016-06-28T10:45:35Z</time>
      </trkpt>
      <trkpt lat="44.46167" lon="5.56846">
        <ele>1130.34</ele>
        <time>2016-06-28T10:45:37Z</time>
      </trkpt>
      <trkpt lat="44.46147" lon="5.56861">
        <ele>1128.58</ele>
        <time>2016-06-28T10:45:42Z</time>
      </trkpt>
      <trkpt lat="44.46123" lon="5.56849">
        <ele>1126.91</ele>
        <time>2016-06-28T10:45:47Z</time>
      </trkpt>
      <trkpt lat="44.46114" lon="5.5684">
        <ele>1126.07</ele>
        <time>2016-06-28T10:45:49Z</time>
      </trkpt>
      <trkpt lat="44.46094" lon="5.5683">
        <ele>1124.46</ele>
        <time>2016-06-28T10:45:53Z</time>
      </trkpt>
      <trkpt lat="44.46076" lon="5.56833">
        <ele>1120.89</ele>
        <time>2016-06-28T10:46:00Z</time>
      </trkpt>
      <trkpt lat="44.46074" lon="5.56836">
        <ele>1118.95</ele>
        <time>2016-06-28T10:46:14Z</time>
      </trkpt>
      <trkpt lat="44.46067" lon="5.56842">
        <ele>1118.2</ele>
        <time>2016-06-28T10:46:29Z</time>
      </trkpt>
      <trkpt lat="44.46061" lon="5.56838">
        <ele>1118.04</ele>
        <time>2016-06-28T10:47:00Z</time>
      </trkpt>
      <trkpt lat="44.46053" lon="5.56841">
        <ele>1117.97</ele>
        <time>2016-06-28T10:47:03Z</time>
      </trkpt>
      <trkpt lat="44.46034" lon="5.5684">
        <ele>1117.37</ele>
        <time>2016-06-28T10:47:08Z</time>
      </trkpt>
      <trkpt lat="44.46026" lon="5.56832">
        <ele>1116.25</ele>
        <time>2016-06-28T10:47:11Z</time>
      </trkpt>
      <trkpt lat="44.46034" lon="5.56824">
        <ele>1114.23</ele>
        <time>2016-06-28T10:47:16Z</time>
      </trkpt>
      <trkpt lat="44.46064" lon="5.56801">
        <ele>1112.08</ele>
        <time>2016-06-28T10:47:21Z</time>
      </trkpt>
      <trkpt lat="44.46095" lon="5.56769">
        <ele>1108.82</ele>
        <time>2016-06-28T10:47:27Z</time>
      </trkpt>
      <trkpt lat="44.4608" lon="5.56761">
        <ele>1105.86</ele>
        <time>2016-06-28T10:47:34Z</time>
      </trkpt>
      <trkpt lat="44.46043" lon="5.56783">
        <ele>1102.58</ele>
        <time>2016-06-28T10:47:40Z</time>
      </trkpt>
      <trkpt lat="44.46031" lon="5.56772">
        <ele>1099.08</ele>
        <time>2016-06-28T10:47:47Z</time>
      </trkpt>
      <trkpt lat="44.46034" lon="5.56771">
        <ele>1098.66</ele>
        <time>2016-06-28T10:47:48Z</time>
      </trkpt>
      <trkpt lat="44.46049" lon="5.56758">
        <ele>1097.09</ele>
        <time>2016-06-28T10:47:52Z</time>
      </trkpt>
      <trkpt lat="44.46086" lon="5.56724">
        <ele>1094.36</ele>
        <time>2016-06-28T10:47:59Z</time>
      </trkpt>
      <trkpt lat="44.46125" lon="5.56709">
        <ele>1089.78</ele>
        <time>2016-06-28T10:48:05Z</time>
      </trkpt>
      <trkpt lat="44.46126" lon="5.56692">
        <ele>1084.75</ele>
        <time>2016-06-28T10:48:12Z</time>
      </trkpt>
      <trkpt lat="44.46122" lon="5.56693">
        <ele>1084.17</ele>
        <time>2016-06-28T10:48:13Z</time>
      </trkpt>
      <trkpt lat="44.46113" lon="5.56691">
        <ele>1083.19</ele>
        <time>2016-06-28T10:48:15Z</time>
      </trkpt>
      <trkpt lat="44.46096" lon="5.56689">
        <ele>1082.02</ele>
        <time>2016-06-28T10:48:18Z</time>
      </trkpt>
      <trkpt lat="44.46081" lon="5.56686">
        <ele>1081.23</ele>
        <time>2016-06-28T10:48:20Z</time>
      </trkpt>
      <trkpt lat="44.46056" lon="5.56673">
        <ele>1079.17</ele>
        <time>2016-06-28T10:48:24Z</time>
      </trkpt>
      <trkpt lat="44.46035" lon="5.56669">
        <ele>1076.18</ele>
        <time>2016-06-28T10:48:27Z</time>
      </trkpt>
      <trkpt lat="44.46019" lon="5.56673">
        <ele>1073.84</ele>
        <time>2016-06-28T10:48:30Z</time>
      </trkpt>
      <trkpt lat="44.46019" lon="5.56661">
        <ele>1070.12</ele>
        <time>2016-06-28T10:48:37Z</time>
      </trkpt>
      <trkpt lat="44.46032" lon="5.56654">
        <ele>1069.03</ele>
        <time>2016-06-28T10:48:40Z</time>
      </trkpt>
      <trkpt lat="44.46087" lon="5.56631">
        <ele>1064.65</ele>
        <time>2016-06-28T10:48:48Z</time>
      </trkpt>
      <trkpt lat="44.46099" lon="5.56626">
        <ele>1062.11</ele>
        <time>2016-06-28T10:48:50Z</time>
      </trkpt>
      <trkpt lat="44.46108" lon="5.56591">
        <ele>1057.85</ele>
        <time>2016-06-28T10:48:56Z</time>
      </trkpt>
      <trkpt lat="44.46097" lon="5.56551">
        <ele>1054.52</ele>
        <time>2016-06-28T10:49:01Z</time>
      </trkpt>
      <trkpt lat="44.46093" lon="5.56541">
        <ele>1053.2</ele>
        <time>2016-06-28T10:49:03Z</time>
      </trkpt>
      <trkpt lat="44.46093" lon="5.56516">
        <ele>1050.43</ele>
        <time>2016-06-28T10:49:07Z</time>
      </trkpt>
      <trkpt lat="44.46106" lon="5.5648">
        <ele>1047.92</ele>
        <time>2016-06-28T10:49:12Z</time>
      </trkpt>
      <trkpt lat="44.46132" lon="5.56408">
        <ele>1043.4</ele>
        <time>2016-06-28T10:49:19Z</time>
      </trkpt>
      <trkpt lat="44.46144" lon="5.5637">
        <ele>1040.15</ele>
        <time>2016-06-28T10:49:23Z</time>
      </trkpt>
      <trkpt lat="44.46146" lon="5.56362">
        <ele>1039.3</ele>
        <time>2016-06-28T10:49:24Z</time>
      </trkpt>
      <trkpt lat="44.46148" lon="5.56354">
        <ele>1038.53</ele>
        <time>2016-06-28T10:49:25Z</time>
      </trkpt>
      <trkpt lat="44.46148" lon="5.56347">
        <ele>1037.07</ele>
        <time>2016-06-28T10:49:26Z</time>
      </trkpt>
      <trkpt lat="44.46149" lon="5.56339">
        <ele>1037.07</ele>
        <time>2016-06-28T10:49:27Z</time>
      </trkpt>
      <trkpt lat="44.4615" lon="5.56331">
        <ele>1036.33</ele>
        <time>2016-06-28T10:49:28Z</time>
      </trkpt>
      <trkpt lat="44.46153" lon="5.56325">
        <ele>1035.54</ele>
        <time>2016-06-28T10:49:29Z</time>
      </trkpt>
      <trkpt lat="44.46156" lon="5.56321">
        <ele>1033.72</ele>
        <time>2016-06-28T10:49:30Z</time>
      </trkpt>
      <trkpt lat="44.4616" lon="5.56318">
        <ele>1033.72</ele>
        <time>2016-06-28T10:49:31Z</time>
      </trkpt>
      <trkpt lat="44.46163" lon="5.56315">
        <ele>1032.9</ele>
        <time>2016-06-28T10:49:32Z</time>
      </trkpt>
      <trkpt lat="44.46166" lon="5.56312">
        <ele>1032.17</ele>
        <time>2016-06-28T10:49:33Z</time>
      </trkpt>
      <trkpt lat="44.46166" lon="5.56308">
        <ele>1031.49</ele>
        <time>2016-06-28T10:49:34Z</time>
      </trkpt>
      <trkpt lat="44.46166" lon="5.56304">
        <ele>1030.87</ele>
        <time>2016-06-28T10:49:35Z</time>
      </trkpt>
      <trkpt lat="44.46163" lon="5.56302">
        <ele>1030.31</ele>
        <time>2016-06-28T10:49:36Z</time>
      </trkpt>
      <trkpt lat="44.4616" lon="5.56302">
        <ele>1029.8</ele>
        <time>2016-06-28T10:49:37Z</time>
      </trkpt>
      <trkpt lat="44.46156" lon="5.56305">
        <ele>1028.83</ele>
        <time>2016-06-28T10:49:38Z</time>
      </trkpt>
      <trkpt lat="44.46153" lon="5.56308">
        <ele>1028.4</ele>
        <time>2016-06-28T10:49:39Z</time>
      </trkpt>
      <trkpt lat="44.46149" lon="5.56312">
        <ele>1027.98</ele>
        <time>2016-06-28T10:49:40Z</time>
      </trkpt>
      <trkpt lat="44.46138" lon="5.56328">
        <ele>1026.78</ele>
        <time>2016-06-28T10:49:43Z</time>
      </trkpt>
      <trkpt lat="44.46134" lon="5.56336">
        <ele>1026.33</ele>
        <time>2016-06-28T10:49:44Z</time>
      </trkpt>
      <trkpt lat="44.46131" lon="5.56345">
        <ele>1025.88</ele>
        <time>2016-06-28T10:49:45Z</time>
      </trkpt>
      <trkpt lat="44.46127" lon="5.56353">
        <ele>1025.44</ele>
        <time>2016-06-28T10:49:46Z</time>
      </trkpt>
      <trkpt lat="44.46122" lon="5.56362">
        <ele>1024.92</ele>
        <time>2016-06-28T10:49:47Z</time>
      </trkpt>
      <trkpt lat="44.46105" lon="5.56387">
        <ele>1023.18</ele>
        <time>2016-06-28T10:49:50Z</time>
      </trkpt>
      <trkpt lat="44.46088" lon="5.56408">
        <ele>1021.73</ele>
        <time>2016-06-28T10:49:53Z</time>
      </trkpt>
      <trkpt lat="44.46083" lon="5.56416">
        <ele>1021.11</ele>
        <time>2016-06-28T10:49:54Z</time>
      </trkpt>
      <trkpt lat="44.46079" lon="5.56425">
        <ele>1020.48</ele>
        <time>2016-06-28T10:49:55Z</time>
      </trkpt>
      <trkpt lat="44.46076" lon="5.56434">
        <ele>1019.87</ele>
        <time>2016-06-28T10:49:56Z</time>
      </trkpt>
      <trkpt lat="44.46074" lon="5.56442">
        <ele>1019.26</ele>
        <time>2016-06-28T10:49:57Z</time>
      </trkpt>
      <trkpt lat="44.46065" lon="5.56465">
        <ele>1017.05</ele>
        <time>2016-06-28T10:50:01Z</time>
      </trkpt>
      <trkpt lat="44.46062" lon="5.56465">
        <ele>1016.15</ele>
        <time>2016-06-28T10:50:02Z</time>
      </trkpt>
      <trkpt lat="44.46059" lon="5.56464">
        <ele>1015.78</ele>
        <time>2016-06-28T10:50:03Z</time>
      </trkpt>
      <trkpt lat="44.46057" lon="5.5646">
        <ele>1015.44</ele>
        <time>2016-06-28T10:50:04Z</time>
      </trkpt>
      <trkpt lat="44.46058" lon="5.56455">
        <ele>1015.07</ele>
        <time>2016-06-28T10:50:05Z</time>
      </trkpt>
      <trkpt lat="44.46058" lon="5.5645">
        <ele>1014.69</ele>
        <time>2016-06-28T10:50:06Z</time>
      </trkpt>
      <trkpt lat="44.4606" lon="5.56444">
        <ele>1014.33</ele>
        <time>2016-06-28T10:50:07Z</time>
      </trkpt>
      <trkpt lat="44.46061" lon="5.56436">
        <ele>1013.99</ele>
        <time>2016-06-28T10:50:08Z</time>
      </trkpt>
      <trkpt lat="44.46063" lon="5.56427">
        <ele>1013.65</ele>
        <time>2016-06-28T10:50:09Z</time>
      </trkpt>
      <trkpt lat="44.46064" lon="5.56417">
        <ele>1013.27</ele>
        <time>2016-06-28T10:50:10Z</time>
      </trkpt>
      <trkpt lat="44.46078" lon="5.56354">
        <ele>1010.16</ele>
        <time>2016-06-28T10:50:16Z</time>
      </trkpt>
      <trkpt lat="44.46083" lon="5.56336">
        <ele>1008.76</ele>
        <time>2016-06-28T10:50:18Z</time>
      </trkpt>
      <trkpt lat="44.46091" lon="5.56312">
        <ele>1006.1</ele>
        <time>2016-06-28T10:50:22Z</time>
      </trkpt>
      <trkpt lat="44.46092" lon="5.56307">
        <ele>1005.52</ele>
        <time>2016-06-28T10:50:23Z</time>
      </trkpt>
      <trkpt lat="44.46093" lon="5.56303">
        <ele>1004.96</ele>
        <time>2016-06-28T10:50:24Z</time>
      </trkpt>
      <trkpt lat="44.46095" lon="5.56299">
        <ele>1004.39</ele>
        <time>2016-06-28T10:50:25Z</time>
      </trkpt>
      <trkpt lat="44.46096" lon="5.56295">
        <ele>1003.32</ele>
        <time>2016-06-28T10:50:26Z</time>
      </trkpt>
      <trkpt lat="44.46097" lon="5.56292">
        <ele>1003.32</ele>
        <time>2016-06-28T10:50:27Z</time>
      </trkpt>
      <trkpt lat="44.46099" lon="5.56283">
        <ele>1000.31</ele>
        <time>2016-06-28T10:50:33Z</time>
      </trkpt>
      <trkpt lat="44.46111" lon="5.56271">
        <ele>1000.36</ele>
        <time>2016-06-28T10:50:50Z</time>
      </trkpt>
      <trkpt lat="44.46129" lon="5.56251">
        <ele>1003.2</ele>
        <time>2016-06-28T10:51:10Z</time>
      </trkpt>
      <trkpt lat="44.46128" lon="5.56245">
        <ele>1002.02</ele>
        <time>2016-06-28T10:51:34Z</time>
      </trkpt>
      <trkpt lat="44.46128" lon="5.56231">
        <ele>1001.36</ele>
        <time>2016-06-28T10:52:14Z</time>
      </trkpt>
      <trkpt lat="44.4613" lon="5.56236">
        <ele>1000.75</ele>
        <time>2016-06-28T10:52:56Z</time>
      </trkpt>
      <trkpt lat="44.4613" lon="5.56241">
        <ele>1000.56</ele>
        <time>2016-06-28T10:53:30Z</time>
      </trkpt>
      <trkpt lat="44.46129" lon="5.56236">
        <ele>1000.25</ele>
        <time>2016-06-28T10:54:01Z</time>
      </trkpt>
      <trkpt lat="44.4613" lon="5.56236">
        <ele>1000.06</ele>
        <time>2016-06-28T10:54:32Z</time>
      </trkpt>
      <trkpt lat="44.4613" lon="5.56235">
        <ele>1000.06</ele>
        <time>2016-06-28T10:55:04Z</time>
      </trkpt>
      <trkpt lat="44.46131" lon="5.56235">
        <ele>1000.54</ele>
        <time>2016-06-28T10:55:33Z</time>
      </trkpt>
      <trkpt lat="44.46136" lon="5.56235">
        <ele>1000.5</ele>
        <time>2016-06-28T10:56:15Z</time>
      </trkpt>
      <trkpt lat="44.46135" lon="5.56233">
        <ele>1000.54</ele>
        <time>2016-06-28T10:56:51Z</time>
      </trkpt>
      <trkpt lat="44.46137" lon="5.5624">
        <ele>1000.76</ele>
        <time>2016-06-28T10:57:24Z</time>
      </trkpt>
      <trkpt lat="44.46136" lon="5.56239">
        <ele>1000.24</ele>
        <time>2016-06-28T10:58:05Z</time>
      </trkpt>
      <trkpt lat="44.46132" lon="5.56238">
        <ele>1000.11</ele>
        <time>2016-06-28T10:58:40Z</time>
      </trkpt>
      <trkpt lat="44.46134" lon="5.56239">
        <ele>999.7</ele>
        <time>2016-06-28T10:59:08Z</time>
      </trkpt>
      <trkpt lat="44.46137" lon="5.56237">
        <ele>999.85</ele>
        <time>2016-06-28T10:59:35Z</time>
      </trkpt>
      <trkpt lat="44.46137" lon="5.56233">
        <ele>999.79</ele>
        <time>2016-06-28T11:00:11Z</time>
      </trkpt>
      <trkpt lat="44.4614" lon="5.56229">
        <ele>999.72</ele>
        <time>2016-06-28T11:00:42Z</time>
      </trkpt>
      <trkpt lat="44.4614" lon="5.56229">
        <ele>999.63</ele>
        <time>2016-06-28T11:01:16Z</time>
      </trkpt>
      <trkpt lat="44.46135" lon="5.56233">
        <ele>999.28</ele>
        <time>2016-06-28T11:02:07Z</time>
      </trkpt>
      <trkpt lat="44.46137" lon="5.56232">
        <ele>999.12</ele>
        <time>2016-06-28T11:02:44Z</time>
      </trkpt>
      <trkpt lat="44.46144" lon="5.56236">
        <ele>998.79</ele>
        <time>2016-06-28T11:03:24Z</time>
      </trkpt>
      <trkpt lat="44.46149" lon="5.56231">
        <ele>998.68</ele>
        <time>2016-06-28T11:04:07Z</time>
      </trkpt>
      <trkpt lat="44.4615" lon="5.56238">
        <ele>998.84</ele>
        <time>2016-06-28T11:05:01Z</time>
      </trkpt>
      <trkpt lat="44.4614" lon="5.56233">
        <ele>998.71</ele>
        <time>2016-06-28T11:05:48Z</time>
      </trkpt>
      <trkpt lat="44.4614" lon="5.56236">
        <ele>998.53</ele>
        <time>2016-06-28T11:06:27Z</time>
      </trkpt>
      <trkpt lat="44.46139" lon="5.56237">
        <ele>998.15</ele>
        <time>2016-06-28T11:07:06Z</time>
      </trkpt>
      <trkpt lat="44.46144" lon="5.5624">
        <ele>998.2</ele>
        <time>2016-06-28T11:07:47Z</time>
      </trkpt>
      <trkpt lat="44.46139" lon="5.56237">
        <ele>998.07</ele>
        <time>2016-06-28T11:08:21Z</time>
      </trkpt>
      <trkpt lat="44.4614" lon="5.5624">
        <ele>998.03</ele>
        <time>2016-06-28T11:08:58Z</time>
      </trkpt>
      <trkpt lat="44.46146" lon="5.5624">
        <ele>997.79</ele>
        <time>2016-06-28T11:09:35Z</time>
      </trkpt>
      <trkpt lat="44.46141" lon="5.56239">
        <ele>997.15</ele>
        <time>2016-06-28T11:10:14Z</time>
      </trkpt>
      <trkpt lat="44.46138" lon="5.56234">
        <ele>997.2</ele>
        <time>2016-06-28T11:11:06Z</time>
      </trkpt>
      <trkpt lat="44.46143" lon="5.56234">
        <ele>996.97</ele>
        <time>2016-06-28T11:11:41Z</time>
      </trkpt>
      <trkpt lat="44.46136" lon="5.56232">
        <ele>996.63</ele>
        <time>2016-06-28T11:12:24Z</time>
      </trkpt>
      <trkpt lat="44.46133" lon="5.56234">
        <ele>996.19</ele>
        <time>2016-06-28T11:13:02Z</time>
      </trkpt>
      <trkpt lat="44.46132" lon="5.56234">
        <ele>996.05</ele>
        <time>2016-06-28T11:13:40Z</time>
      </trkpt>
      <trkpt lat="44.46136" lon="5.56231">
        <ele>995.61</ele>
        <time>2016-06-28T11:14:23Z</time>
      </trkpt>
      <trkpt lat="44.46139" lon="5.56233">
        <ele>996.04</ele>
        <time>2016-06-28T11:15:03Z</time>
      </trkpt>
      <trkpt lat="44.46141" lon="5.56234">
        <ele>996.03</ele>
        <time>2016-06-28T11:16:11Z</time>
      </trkpt>
      <trkpt lat="44.46141" lon="5.56234">
        <ele>996.24</ele>
        <time>2016-06-28T11:17:04Z</time>
      </trkpt>
      <trkpt lat="44.4614" lon="5.56235">
        <ele>996.21</ele>
        <time>2016-06-28T11:17:37Z</time>
      </trkpt>
      <trkpt lat="44.4614" lon="5.56237">
        <ele>996.21</ele>
        <time>2016-06-28T11:18:12Z</time>
      </trkpt>
      <trkpt lat="44.46146" lon="5.56236">
        <ele>996.16</ele>
        <time>2016-06-28T11:18:49Z</time>
      </trkpt>
      <trkpt lat="44.46145" lon="5.56239">
        <ele>996.4</ele>
        <time>2016-06-28T11:19:28Z</time>
      </trkpt>
      <trkpt lat="44.46139" lon="5.56234">
        <ele>996.57</ele>
        <time>2016-06-28T11:20:09Z</time>
      </trkpt>
      <trkpt lat="44.46136" lon="5.56231">
        <ele>996.38</ele>
        <time>2016-06-28T11:20:45Z</time>
      </trkpt>
      <trkpt lat="44.46134" lon="5.56231">
        <ele>996.61</ele>
        <time>2016-06-28T11:21:31Z</time>
      </trkpt>
      <trkpt lat="44.46135" lon="5.56233">
        <ele>996.83</ele>
        <time>2016-06-28T11:22:16Z</time>
      </trkpt>
      <trkpt lat="44.46133" lon="5.56238">
        <ele>996.9</ele>
        <time>2016-06-28T11:23:03Z</time>
      </trkpt>
      <trkpt lat="44.46132" lon="5.56236">
        <ele>996.91</ele>
        <time>2016-06-28T11:23:40Z</time>
      </trkpt>
      <trkpt lat="44.46129" lon="5.56234">
        <ele>996.89</ele>
        <time>2016-06-28T11:24:18Z</time>
      </trkpt>
      <trkpt lat="44.46131" lon="5.56235">
        <ele>996.49</ele>
        <time>2016-06-28T11:24:56Z</time>
      </trkpt>
      <trkpt lat="44.46131" lon="5.56236">
        <ele>996.24</ele>
        <time>2016-06-28T11:25:46Z</time>
      </trkpt>
      <trkpt lat="44.46137" lon="5.56236">
        <ele>996.24</ele>
        <time>2016-06-28T11:26:39Z</time>
      </trkpt>
      <trkpt lat="44.4613" lon="5.56233">
        <ele>996.27</ele>
        <time>2016-06-28T11:27:25Z</time>
      </trkpt>
      <trkpt lat="44.46119" lon="5.56229">
        <ele>996.17</ele>
        <time>2016-06-28T11:27:44Z</time>
      </trkpt>
      <trkpt lat="44.46119" lon="5.56225">
        <ele>996.2</ele>
        <time>2016-06-28T11:28:11Z</time>
      </trkpt>
      <trkpt lat="44.46129" lon="5.56229">
        <ele>996.07</ele>
        <time>2016-06-28T11:28:23Z</time>
      </trkpt>
      <trkpt lat="44.4614" lon="5.56237">
        <ele>995.93</ele>
        <time>2016-06-28T11:29:05Z</time>
      </trkpt>
      <trkpt lat="44.46138" lon="5.56239">
        <ele>995.79</ele>
        <time>2016-06-28T11:29:56Z</time>
      </trkpt>
      <trkpt lat="44.46143" lon="5.56235">
        <ele>995.65</ele>
        <time>2016-06-28T11:30:40Z</time>
      </trkpt>
      <trkpt lat="44.46142" lon="5.56235">
        <ele>995.76</ele>
        <time>2016-06-28T11:31:33Z</time>
      </trkpt>
      <trkpt lat="44.46142" lon="5.56234">
        <ele>995.79</ele>
        <time>2016-06-28T11:32:23Z</time>
      </trkpt>
      <trkpt lat="44.46144" lon="5.56239">
        <ele>996.15</ele>
        <time>2016-06-28T11:33:14Z</time>
      </trkpt>
      <trkpt lat="44.46145" lon="5.56232">
        <ele>996.22</ele>
        <time>2016-06-28T11:34:04Z</time>
      </trkpt>
      <trkpt lat="44.46143" lon="5.56231">
        <ele>996.37</ele>
        <time>2016-06-28T11:34:47Z</time>
      </trkpt>
      <trkpt lat="44.46146" lon="5.56226">
        <ele>996.75</ele>
        <time>2016-06-28T11:35:28Z</time>
      </trkpt>
      <trkpt lat="44.46141" lon="5.56235">
        <ele>997.04</ele>
        <time>2016-06-28T11:36:17Z</time>
      </trkpt>
      <trkpt lat="44.46144" lon="5.56236">
        <ele>997.31</ele>
        <time>2016-06-28T11:37:02Z</time>
      </trkpt>
      <trkpt lat="44.46143" lon="5.56237">
        <ele>997.36</ele>
        <time>2016-06-28T11:37:44Z</time>
      </trkpt>
      <trkpt lat="44.46139" lon="5.56236">
        <ele>997.52</ele>
        <time>2016-06-28T11:38:53Z</time>
      </trkpt>
      <trkpt lat="44.4614" lon="5.56236">
        <ele>997.44</ele>
        <time>2016-06-28T11:39:43Z</time>
      </trkpt>
      <trkpt lat="44.46144" lon="5.56237">
        <ele>997.58</ele>
        <time>2016-06-28T11:40:29Z</time>
      </trkpt>
      <trkpt lat="44.4615" lon="5.5624">
        <ele>997.58</ele>
        <time>2016-06-28T11:41:29Z</time>
      </trkpt>
      <trkpt lat="44.46152" lon="5.56237">
        <ele>997.17</ele>
        <time>2016-06-28T11:42:13Z</time>
      </trkpt>
      <trkpt lat="44.46153" lon="5.56239">
        <ele>997.62</ele>
        <time>2016-06-28T11:42:59Z</time>
      </trkpt>
      <trkpt lat="44.46142" lon="5.56234">
        <ele>997.5</ele>
        <time>2016-06-28T11:43:45Z</time>
      </trkpt>
      <trkpt lat="44.46138" lon="5.56231">
        <ele>997.58</ele>
        <time>2016-06-28T11:44:33Z</time>
      </trkpt>
      <trkpt lat="44.46144" lon="5.56234">
        <ele>997.74</ele>
        <time>2016-06-28T11:45:16Z</time>
      </trkpt>
      <trkpt lat="44.46145" lon="5.56237">
        <ele>997.47</ele>
        <time>2016-06-28T11:46:01Z</time>
      </trkpt>
      <trkpt lat="44.46142" lon="5.56235">
        <ele>997.55</ele>
        <time>2016-06-28T11:46:45Z</time>
      </trkpt>
      <trkpt lat="44.46139" lon="5.56238">
        <ele>997.04</ele>
        <time>2016-06-28T11:48:15Z</time>
      </trkpt>
      <trkpt lat="44.46141" lon="5.5624">
        <ele>997.2</ele>
        <time>2016-06-28T11:49:16Z</time>
      </trkpt>
      <trkpt lat="44.46144" lon="5.56238">
        <ele>997.11</ele>
        <time>2016-06-28T11:50:03Z</time>
      </trkpt>
      <trkpt lat="44.4614" lon="5.56238">
        <ele>997.3</ele>
        <time>2016-06-28T11:50:43Z</time>
      </trkpt>
      <trkpt lat="44.46139" lon="5.56239">
        <ele>997.09</ele>
        <time>2016-06-28T11:51:48Z</time>
      </trkpt>
      <trkpt lat="44.4614" lon="5.56234">
        <ele>997.12</ele>
        <time>2016-06-28T11:52:37Z</time>
      </trkpt>
      <trkpt lat="44.46138" lon="5.56239">
        <ele>997.49</ele>
        <time>2016-06-28T11:53:30Z</time>
      </trkpt>
      <trkpt lat="44.46134" lon="5.56232">
        <ele>997.44</ele>
        <time>2016-06-28T11:54:46Z</time>
      </trkpt>
      <trkpt lat="44.46136" lon="5.56233">
        <ele>997.55</ele>
        <time>2016-06-28T11:55:31Z</time>
      </trkpt>
      <trkpt lat="44.46136" lon="5.5623">
        <ele>997.53</ele>
        <time>2016-06-28T11:56:14Z</time>
      </trkpt>
      <trkpt lat="44.46134" lon="5.56232">
        <ele>997.77</ele>
        <time>2016-06-28T11:57:06Z</time>
      </trkpt>
      <trkpt lat="44.46129" lon="5.56231">
        <ele>997.94</ele>
        <time>2016-06-28T11:58:05Z</time>
      </trkpt>
      <trkpt lat="44.46135" lon="5.56228">
        <ele>997.83</ele>
        <time>2016-06-28T11:58:51Z</time>
      </trkpt>
      <trkpt lat="44.46138" lon="5.56234">
        <ele>998.33</ele>
        <time>2016-06-28T11:59:34Z</time>
      </trkpt>
      <trkpt lat="44.46131" lon="5.56237">
        <ele>997.69</ele>
        <time>2016-06-28T12:01:00Z</time>
      </trkpt>
      <trkpt lat="44.46132" lon="5.56232">
        <ele>997.86</ele>
        <time>2016-06-28T12:01:55Z</time>
      </trkpt>
      <trkpt lat="44.46132" lon="5.56234">
        <ele>998.37</ele>
        <time>2016-06-28T12:02:58Z</time>
      </trkpt>
      <trkpt lat="44.46132" lon="5.56236">
        <ele>998.55</ele>
        <time>2016-06-28T12:03:53Z</time>
      </trkpt>
      <trkpt lat="44.46136" lon="5.56237">
        <ele>999.08</ele>
        <time>2016-06-28T12:05:20Z</time>
      </trkpt>
      <trkpt lat="44.46133" lon="5.56238">
        <ele>999.5</ele>
        <time>2016-06-28T12:06:56Z</time>
      </trkpt>
      <trkpt lat="44.46135" lon="5.56235">
        <ele>1000.08</ele>
        <time>2016-06-28T12:08:18Z</time>
      </trkpt>
      <trkpt lat="44.46132" lon="5.56236">
        <ele>1000.06</ele>
        <time>2016-06-28T12:09:00Z</time>
      </trkpt>
      <trkpt lat="44.46132" lon="5.56239">
        <ele>1000.53</ele>
        <time>2016-06-28T12:09:39Z</time>
      </trkpt>
      <trkpt lat="44.46132" lon="5.5624">
        <ele>1000.67</ele>
        <time>2016-06-28T12:10:19Z</time>
      </trkpt>
      <trkpt lat="44.4613" lon="5.56238">
        <ele>1000.84</ele>
        <time>2016-06-28T12:11:01Z</time>
      </trkpt>
      <trkpt lat="44.46136" lon="5.56233">
        <ele>1001.45</ele>
        <time>2016-06-28T12:11:38Z</time>
      </trkpt>
      <trkpt lat="44.46128" lon="5.56231">
        <ele>1001.57</ele>
        <time>2016-06-28T12:12:15Z</time>
      </trkpt>
      <trkpt lat="44.46125" lon="5.56231">
        <ele>1002.17</ele>
        <time>2016-06-28T12:13:05Z</time>
      </trkpt>
      <trkpt lat="44.46121" lon="5.56233">
        <ele>1002.96</ele>
        <time>2016-06-28T12:14:11Z</time>
      </trkpt>
      <trkpt lat="44.46123" lon="5.56233">
        <ele>1003.03</ele>
        <time>2016-06-28T12:14:44Z</time>
      </trkpt>
      <trkpt lat="44.46122" lon="5.56231">
        <ele>1003.62</ele>
        <time>2016-06-28T12:15:20Z</time>
      </trkpt>
      <trkpt lat="44.46122" lon="5.56231">
        <ele>1003.7</ele>
        <time>2016-06-28T12:15:56Z</time>
      </trkpt>
      <trkpt lat="44.46124" lon="5.56232">
        <ele>1004.19</ele>
        <time>2016-06-28T12:16:32Z</time>
      </trkpt>
      <trkpt lat="44.46125" lon="5.56231">
        <ele>1004.17</ele>
        <time>2016-06-28T12:17:00Z</time>
      </trkpt>
      <trkpt lat="44.46125" lon="5.56231">
        <ele>1004.64</ele>
        <time>2016-06-28T12:17:25Z</time>
      </trkpt>
      <trkpt lat="44.46122" lon="5.56229">
        <ele>1005.22</ele>
        <time>2016-06-28T12:17:58Z</time>
      </trkpt>
      <trkpt lat="44.46125" lon="5.56231">
        <ele>1005.91</ele>
        <time>2016-06-28T12:18:36Z</time>
      </trkpt>
      <trkpt lat="44.46127" lon="5.56233">
        <ele>1006.07</ele>
        <time>2016-06-28T12:19:08Z</time>
      </trkpt>
      <trkpt lat="44.46122" lon="5.56231">
        <ele>1006.23</ele>
        <time>2016-06-28T12:19:47Z</time>
      </trkpt>
      <trkpt lat="44.46125" lon="5.56233">
        <ele>1006.42</ele>
        <time>2016-06-28T12:20:27Z</time>
      </trkpt>
      <trkpt lat="44.46124" lon="5.56236">
        <ele>1006.56</ele>
        <time>2016-06-28T12:21:32Z</time>
      </trkpt>
      <trkpt lat="44.46123" lon="5.56238">
        <ele>1006.96</ele>
        <time>2016-06-28T12:22:33Z</time>
      </trkpt>
      <trkpt lat="44.46125" lon="5.56244">
        <ele>1007.28</ele>
        <time>2016-06-28T12:23:03Z</time>
      </trkpt>
      <trkpt lat="44.46105" lon="5.56263">
        <ele>1005.69</ele>
        <time>2016-06-28T12:23:23Z</time>
      </trkpt>
      <trkpt lat="44.46096" lon="5.56268">
        <ele>1003.73</ele>
        <time>2016-06-28T12:23:29Z</time>
      </trkpt>
      <trkpt lat="44.46093" lon="5.56256">
        <ele>1001.49</ele>
        <time>2016-06-28T12:23:45Z</time>
      </trkpt>
      <trkpt lat="44.46093" lon="5.56255">
        <ele>1001.38</ele>
        <time>2016-06-28T12:23:46Z</time>
      </trkpt>
      <trkpt lat="44.46092" lon="5.56253">
        <ele>1001.33</ele>
        <time>2016-06-28T12:23:47Z</time>
      </trkpt>
      <trkpt lat="44.46092" lon="5.56251">
        <ele>1001.24</ele>
        <time>2016-06-28T12:23:48Z</time>
      </trkpt>
      <trkpt lat="44.46092" lon="5.5625">
        <ele>1001.15</ele>
        <time>2016-06-28T12:23:49Z</time>
      </trkpt>
      <trkpt lat="44.46091" lon="5.56248">
        <ele>1001.06</ele>
        <time>2016-06-28T12:23:50Z</time>
      </trkpt>
      <trkpt lat="44.46091" lon="5.56246">
        <ele>1000.96</ele>
        <time>2016-06-28T12:23:51Z</time>
      </trkpt>
      <trkpt lat="44.4609" lon="5.56244">
        <ele>1000.88</ele>
        <time>2016-06-28T12:23:52Z</time>
      </trkpt>
      <trkpt lat="44.4609" lon="5.56242">
        <ele>1000.79</ele>
        <time>2016-06-28T12:23:53Z</time>
      </trkpt>
      <trkpt lat="44.46077" lon="5.56194">
        <ele>997.31</ele>
        <time>2016-06-28T12:24:10Z</time>
      </trkpt>
      <trkpt lat="44.46055" lon="5.56159">
        <ele>993.97</ele>
        <time>2016-06-28T12:24:20Z</time>
      </trkpt>
      <trkpt lat="44.46035" lon="5.56149">
        <ele>991.16</ele>
        <time>2016-06-28T12:24:26Z</time>
      </trkpt>
      <trkpt lat="44.4603" lon="5.5615">
        <ele>990.51</ele>
        <time>2016-06-28T12:24:27Z</time>
      </trkpt>
      <trkpt lat="44.46026" lon="5.56149">
        <ele>989.86</ele>
        <time>2016-06-28T12:24:28Z</time>
      </trkpt>
      <trkpt lat="44.46022" lon="5.56147">
        <ele>989.26</ele>
        <time>2016-06-28T12:24:29Z</time>
      </trkpt>
      <trkpt lat="44.46019" lon="5.56142">
        <ele>988.68</ele>
        <time>2016-06-28T12:24:30Z</time>
      </trkpt>
      <trkpt lat="44.46018" lon="5.56136">
        <ele>988.03</ele>
        <time>2016-06-28T12:24:31Z</time>
      </trkpt>
      <trkpt lat="44.46018" lon="5.5613">
        <ele>987.4</ele>
        <time>2016-06-28T12:24:32Z</time>
      </trkpt>
      <trkpt lat="44.46018" lon="5.56124">
        <ele>986.78</ele>
        <time>2016-06-28T12:24:33Z</time>
      </trkpt>
      <trkpt lat="44.46018" lon="5.56119">
        <ele>986.19</ele>
        <time>2016-06-28T12:24:34Z</time>
      </trkpt>
      <trkpt lat="44.46016" lon="5.56115">
        <ele>985.62</ele>
        <time>2016-06-28T12:24:35Z</time>
      </trkpt>
      <trkpt lat="44.46011" lon="5.5611">
        <ele>984.36</ele>
        <time>2016-06-28T12:24:36Z</time>
      </trkpt>
      <trkpt lat="44.46007" lon="5.56106">
        <ele>983.7</ele>
        <time>2016-06-28T12:24:37Z</time>
      </trkpt>
      <trkpt lat="44.46004" lon="5.56102">
        <ele>983.1</ele>
        <time>2016-06-28T12:24:38Z</time>
      </trkpt>
      <trkpt lat="44.45995" lon="5.56093">
        <ele>982.06</ele>
        <time>2016-06-28T12:24:40Z</time>
      </trkpt>
      <trkpt lat="44.45991" lon="5.56087">
        <ele>981.57</ele>
        <time>2016-06-28T12:24:41Z</time>
      </trkpt>
      <trkpt lat="44.45987" lon="5.56081">
        <ele>981.15</ele>
        <time>2016-06-28T12:24:42Z</time>
      </trkpt>
      <trkpt lat="44.45977" lon="5.56063">
        <ele>979.72</ele>
        <time>2016-06-28T12:24:45Z</time>
      </trkpt>
      <trkpt lat="44.45972" lon="5.56058">
        <ele>979.22</ele>
        <time>2016-06-28T12:24:46Z</time>
      </trkpt>
      <trkpt lat="44.45966" lon="5.56054">
        <ele>978.74</ele>
        <time>2016-06-28T12:24:47Z</time>
      </trkpt>
      <trkpt lat="44.45949" lon="5.56043">
        <ele>977.12</ele>
        <time>2016-06-28T12:24:50Z</time>
      </trkpt>
      <trkpt lat="44.45935" lon="5.56028">
        <ele>975.47</ele>
        <time>2016-06-28T12:24:53Z</time>
      </trkpt>
      <trkpt lat="44.45931" lon="5.56022">
        <ele>975.02</ele>
        <time>2016-06-28T12:24:54Z</time>
      </trkpt>
      <trkpt lat="44.45927" lon="5.56016">
        <ele>974.58</ele>
        <time>2016-06-28T12:24:55Z</time>
      </trkpt>
      <trkpt lat="44.45925" lon="5.56008">
        <ele>974.1</ele>
        <time>2016-06-28T12:24:56Z</time>
      </trkpt>
      <trkpt lat="44.45924" lon="5.55999">
        <ele>973.62</ele>
        <time>2016-06-28T12:24:57Z</time>
      </trkpt>
      <trkpt lat="44.45923" lon="5.55989">
        <ele>973.08</ele>
        <time>2016-06-28T12:24:58Z</time>
      </trkpt>
      <trkpt lat="44.45922" lon="5.5597">
        <ele>971.85</ele>
        <time>2016-06-28T12:25:00Z</time>
      </trkpt>
      <trkpt lat="44.45922" lon="5.5596">
        <ele>971.22</ele>
        <time>2016-06-28T12:25:01Z</time>
      </trkpt>
      <trkpt lat="44.45925" lon="5.55951">
        <ele>970.62</ele>
        <time>2016-06-28T12:25:02Z</time>
      </trkpt>
      <trkpt lat="44.4593" lon="5.55943">
        <ele>970.04</ele>
        <time>2016-06-28T12:25:03Z</time>
      </trkpt>
      <trkpt lat="44.45933" lon="5.55935">
        <ele>969.45</ele>
        <time>2016-06-28T12:25:04Z</time>
      </trkpt>
      <trkpt lat="44.45935" lon="5.55926">
        <ele>968.95</ele>
        <time>2016-06-28T12:25:05Z</time>
      </trkpt>
      <trkpt lat="44.45937" lon="5.55918">
        <ele>968.48</ele>
        <time>2016-06-28T12:25:06Z</time>
      </trkpt>
      <trkpt lat="44.45938" lon="5.55902">
        <ele>967.41</ele>
        <time>2016-06-28T12:25:08Z</time>
      </trkpt>
      <trkpt lat="44.45936" lon="5.55895">
        <ele>967.13</ele>
        <time>2016-06-28T12:25:09Z</time>
      </trkpt>
      <trkpt lat="44.45933" lon="5.55888">
        <ele>966.83</ele>
        <time>2016-06-28T12:25:10Z</time>
      </trkpt>
      <trkpt lat="44.45929" lon="5.55881">
        <ele>966.5</ele>
        <time>2016-06-28T12:25:11Z</time>
      </trkpt>
      <trkpt lat="44.45927" lon="5.55873">
        <ele>966.14</ele>
        <time>2016-06-28T12:25:12Z</time>
      </trkpt>
      <trkpt lat="44.45924" lon="5.55865">
        <ele>965.76</ele>
        <time>2016-06-28T12:25:13Z</time>
      </trkpt>
      <trkpt lat="44.45917" lon="5.55849">
        <ele>964.97</ele>
        <time>2016-06-28T12:25:15Z</time>
      </trkpt>
      <trkpt lat="44.45913" lon="5.55842">
        <ele>964.56</ele>
        <time>2016-06-28T12:25:16Z</time>
      </trkpt>
      <trkpt lat="44.45908" lon="5.55836">
        <ele>964.13</ele>
        <time>2016-06-28T12:25:17Z</time>
      </trkpt>
      <trkpt lat="44.45889" lon="5.5581">
        <ele>962.08</ele>
        <time>2016-06-28T12:25:21Z</time>
      </trkpt>
      <trkpt lat="44.45877" lon="5.55792">
        <ele>960.69</ele>
        <time>2016-06-28T12:25:24Z</time>
      </trkpt>
      <trkpt lat="44.45871" lon="5.55789">
        <ele>960.29</ele>
        <time>2016-06-28T12:25:25Z</time>
      </trkpt>
      <trkpt lat="44.45864" lon="5.55785">
        <ele>959.92</ele>
        <time>2016-06-28T12:25:26Z</time>
      </trkpt>
      <trkpt lat="44.45858" lon="5.55779">
        <ele>959.57</ele>
        <time>2016-06-28T12:25:27Z</time>
      </trkpt>
      <trkpt lat="44.45852" lon="5.55772">
        <ele>959.12</ele>
        <time>2016-06-28T12:25:28Z</time>
      </trkpt>
      <trkpt lat="44.45847" lon="5.55765">
        <ele>958.48</ele>
        <time>2016-06-28T12:25:29Z</time>
      </trkpt>
      <trkpt lat="44.45844" lon="5.55758">
        <ele>957.8</ele>
        <time>2016-06-28T12:25:30Z</time>
      </trkpt>
      <trkpt lat="44.45837" lon="5.55745">
        <ele>956.67</ele>
        <time>2016-06-28T12:25:32Z</time>
      </trkpt>
      <trkpt lat="44.45835" lon="5.55738">
        <ele>956.19</ele>
        <time>2016-06-28T12:25:33Z</time>
      </trkpt>
      <trkpt lat="44.45831" lon="5.55726">
        <ele>955.22</ele>
        <time>2016-06-28T12:25:35Z</time>
      </trkpt>
      <trkpt lat="44.45829" lon="5.5572">
        <ele>954.98</ele>
        <time>2016-06-28T12:25:36Z</time>
      </trkpt>
      <trkpt lat="44.45828" lon="5.55713">
        <ele>954.69</ele>
        <time>2016-06-28T12:25:37Z</time>
      </trkpt>
      <trkpt lat="44.45829" lon="5.55706">
        <ele>954.27</ele>
        <time>2016-06-28T12:25:38Z</time>
      </trkpt>
      <trkpt lat="44.45832" lon="5.55701">
        <ele>953.73</ele>
        <time>2016-06-28T12:25:39Z</time>
      </trkpt>
      <trkpt lat="44.45836" lon="5.55696">
        <ele>953.14</ele>
        <time>2016-06-28T12:25:40Z</time>
      </trkpt>
      <trkpt lat="44.45841" lon="5.55691">
        <ele>952.55</ele>
        <time>2016-06-28T12:25:41Z</time>
      </trkpt>
      <trkpt lat="44.45846" lon="5.55687">
        <ele>951.92</ele>
        <time>2016-06-28T12:25:42Z</time>
      </trkpt>
      <trkpt lat="44.4585" lon="5.55683">
        <ele>951.26</ele>
        <time>2016-06-28T12:25:43Z</time>
      </trkpt>
      <trkpt lat="44.45854" lon="5.55677">
        <ele>950.56</ele>
        <time>2016-06-28T12:25:44Z</time>
      </trkpt>
      <trkpt lat="44.45856" lon="5.5567">
        <ele>949.82</ele>
        <time>2016-06-28T12:25:45Z</time>
      </trkpt>
      <trkpt lat="44.45858" lon="5.55655">
        <ele>948.43</ele>
        <time>2016-06-28T12:25:47Z</time>
      </trkpt>
      <trkpt lat="44.45861" lon="5.55608">
        <ele>944.9</ele>
        <time>2016-06-28T12:25:52Z</time>
      </trkpt>
      <trkpt lat="44.45859" lon="5.55581">
        <ele>942.51</ele>
        <time>2016-06-28T12:25:55Z</time>
      </trkpt>
      <trkpt lat="44.4586" lon="5.55573">
        <ele>941.57</ele>
        <time>2016-06-28T12:25:56Z</time>
      </trkpt>
      <trkpt lat="44.45861" lon="5.55565">
        <ele>940.58</ele>
        <time>2016-06-28T12:25:57Z</time>
      </trkpt>
      <trkpt lat="44.45862" lon="5.55558">
        <ele>939.59</ele>
        <time>2016-06-28T12:25:58Z</time>
      </trkpt>
      <trkpt lat="44.4586" lon="5.55551">
        <ele>938.67</ele>
        <time>2016-06-28T12:25:59Z</time>
      </trkpt>
      <trkpt lat="44.45857" lon="5.55545">
        <ele>937.86</ele>
        <time>2016-06-28T12:26:00Z</time>
      </trkpt>
      <trkpt lat="44.45853" lon="5.5554">
        <ele>937.08</ele>
        <time>2016-06-28T12:26:01Z</time>
      </trkpt>
      <trkpt lat="44.45848" lon="5.55535">
        <ele>935.34</ele>
        <time>2016-06-28T12:26:02Z</time>
      </trkpt>
      <trkpt lat="44.45843" lon="5.5553">
        <ele>934.53</ele>
        <time>2016-06-28T12:26:03Z</time>
      </trkpt>
      <trkpt lat="44.45839" lon="5.55523">
        <ele>933.75</ele>
        <time>2016-06-28T12:26:04Z</time>
      </trkpt>
      <trkpt lat="44.45832" lon="5.55506">
        <ele>932.21</ele>
        <time>2016-06-28T12:26:06Z</time>
      </trkpt>
      <trkpt lat="44.45819" lon="5.55471">
        <ele>929.13</ele>
        <time>2016-06-28T12:26:10Z</time>
      </trkpt>
      <trkpt lat="44.45813" lon="5.55455">
        <ele>927.67</ele>
        <time>2016-06-28T12:26:12Z</time>
      </trkpt>
      <trkpt lat="44.45808" lon="5.55448">
        <ele>926.92</ele>
        <time>2016-06-28T12:26:13Z</time>
      </trkpt>
      <trkpt lat="44.45802" lon="5.55442">
        <ele>926.09</ele>
        <time>2016-06-28T12:26:14Z</time>
      </trkpt>
      <trkpt lat="44.45797" lon="5.55436">
        <ele>925.25</ele>
        <time>2016-06-28T12:26:15Z</time>
      </trkpt>
      <trkpt lat="44.45792" lon="5.55429">
        <ele>924.36</ele>
        <time>2016-06-28T12:26:16Z</time>
      </trkpt>
      <trkpt lat="44.45788" lon="5.55422">
        <ele>923.48</ele>
        <time>2016-06-28T12:26:17Z</time>
      </trkpt>
      <trkpt lat="44.45785" lon="5.55414">
        <ele>922.65</ele>
        <time>2016-06-28T12:26:18Z</time>
      </trkpt>
      <trkpt lat="44.45781" lon="5.55405">
        <ele>921.86</ele>
        <time>2016-06-28T12:26:19Z</time>
      </trkpt>
      <trkpt lat="44.45765" lon="5.5537">
        <ele>918.62</ele>
        <time>2016-06-28T12:26:23Z</time>
      </trkpt>
      <trkpt lat="44.45754" lon="5.55344">
        <ele>915.39</ele>
        <time>2016-06-28T12:26:26Z</time>
      </trkpt>
      <trkpt lat="44.45749" lon="5.55336">
        <ele>914.65</ele>
        <time>2016-06-28T12:26:27Z</time>
      </trkpt>
      <trkpt lat="44.45744" lon="5.55328">
        <ele>913.86</ele>
        <time>2016-06-28T12:26:28Z</time>
      </trkpt>
      <trkpt lat="44.45724" lon="5.55304">
        <ele>910.89</ele>
        <time>2016-06-28T12:26:32Z</time>
      </trkpt>
      <trkpt lat="44.45721" lon="5.55295">
        <ele>910.19</ele>
        <time>2016-06-28T12:26:33Z</time>
      </trkpt>
      <trkpt lat="44.45719" lon="5.55286">
        <ele>909.49</ele>
        <time>2016-06-28T12:26:34Z</time>
      </trkpt>
      <trkpt lat="44.45717" lon="5.55276">
        <ele>908.74</ele>
        <time>2016-06-28T12:26:35Z</time>
      </trkpt>
      <trkpt lat="44.45716" lon="5.55267">
        <ele>907.98</ele>
        <time>2016-06-28T12:26:36Z</time>
      </trkpt>
      <trkpt lat="44.45713" lon="5.55248">
        <ele>906.6</ele>
        <time>2016-06-28T12:26:38Z</time>
      </trkpt>
      <trkpt lat="44.45711" lon="5.55241">
        <ele>905.87</ele>
        <time>2016-06-28T12:26:39Z</time>
      </trkpt>
      <trkpt lat="44.45707" lon="5.55234">
        <ele>905.09</ele>
        <time>2016-06-28T12:26:40Z</time>
      </trkpt>
      <trkpt lat="44.45702" lon="5.55228">
        <ele>904.34</ele>
        <time>2016-06-28T12:26:41Z</time>
      </trkpt>
      <trkpt lat="44.45697" lon="5.55221">
        <ele>903.65</ele>
        <time>2016-06-28T12:26:42Z</time>
      </trkpt>
      <trkpt lat="44.45692" lon="5.55214">
        <ele>902.97</ele>
        <time>2016-06-28T12:26:43Z</time>
      </trkpt>
      <trkpt lat="44.45687" lon="5.55206">
        <ele>902.23</ele>
        <time>2016-06-28T12:26:44Z</time>
      </trkpt>
      <trkpt lat="44.45683" lon="5.55198">
        <ele>901.41</ele>
        <time>2016-06-28T12:26:45Z</time>
      </trkpt>
      <trkpt lat="44.45679" lon="5.5519">
        <ele>900.56</ele>
        <time>2016-06-28T12:26:46Z</time>
      </trkpt>
      <trkpt lat="44.45674" lon="5.55182">
        <ele>899.65</ele>
        <time>2016-06-28T12:26:47Z</time>
      </trkpt>
      <trkpt lat="44.45669" lon="5.55175">
        <ele>898.77</ele>
        <time>2016-06-28T12:26:48Z</time>
      </trkpt>
      <trkpt lat="44.45665" lon="5.55166">
        <ele>897.98</ele>
        <time>2016-06-28T12:26:49Z</time>
      </trkpt>
      <trkpt lat="44.45657" lon="5.55147">
        <ele>896.57</ele>
        <time>2016-06-28T12:26:51Z</time>
      </trkpt>
      <trkpt lat="44.45649" lon="5.55129">
        <ele>894.58</ele>
        <time>2016-06-28T12:26:53Z</time>
      </trkpt>
      <trkpt lat="44.45644" lon="5.5512">
        <ele>893.98</ele>
        <time>2016-06-28T12:26:54Z</time>
      </trkpt>
      <trkpt lat="44.4562" lon="5.55082">
        <ele>890.94</ele>
        <time>2016-06-28T12:26:59Z</time>
      </trkpt>
      <trkpt lat="44.45603" lon="5.55042">
        <ele>888.06</ele>
        <time>2016-06-28T12:27:03Z</time>
      </trkpt>
      <trkpt lat="44.45598" lon="5.55032">
        <ele>887.19</ele>
        <time>2016-06-28T12:27:04Z</time>
      </trkpt>
      <trkpt lat="44.4559" lon="5.55009">
        <ele>885.55</ele>
        <time>2016-06-28T12:27:06Z</time>
      </trkpt>
      <trkpt lat="44.45587" lon="5.54997">
        <ele>884.74</ele>
        <time>2016-06-28T12:27:07Z</time>
      </trkpt>
      <trkpt lat="44.45584" lon="5.54986">
        <ele>883.81</ele>
        <time>2016-06-28T12:27:08Z</time>
      </trkpt>
      <trkpt lat="44.4558" lon="5.54976">
        <ele>882.88</ele>
        <time>2016-06-28T12:27:09Z</time>
      </trkpt>
      <trkpt lat="44.45575" lon="5.54967">
        <ele>882.08</ele>
        <time>2016-06-28T12:27:10Z</time>
      </trkpt>
      <trkpt lat="44.45571" lon="5.54958">
        <ele>881.36</ele>
        <time>2016-06-28T12:27:11Z</time>
      </trkpt>
      <trkpt lat="44.45553" lon="5.54923">
        <ele>878.65</ele>
        <time>2016-06-28T12:27:15Z</time>
      </trkpt>
      <trkpt lat="44.45537" lon="5.54886">
        <ele>875.16</ele>
        <time>2016-06-28T12:27:19Z</time>
      </trkpt>
      <trkpt lat="44.45525" lon="5.54854">
        <ele>872.6</ele>
        <time>2016-06-28T12:27:23Z</time>
      </trkpt>
      <trkpt lat="44.45522" lon="5.5485">
        <ele>871.94</ele>
        <time>2016-06-28T12:27:24Z</time>
      </trkpt>
      <trkpt lat="44.45519" lon="5.54846">
        <ele>871.29</ele>
        <time>2016-06-28T12:27:25Z</time>
      </trkpt>
      <trkpt lat="44.45513" lon="5.54843">
        <ele>870.66</ele>
        <time>2016-06-28T12:27:26Z</time>
      </trkpt>
      <trkpt lat="44.45508" lon="5.5484">
        <ele>870.09</ele>
        <time>2016-06-28T12:27:27Z</time>
      </trkpt>
      <trkpt lat="44.45503" lon="5.54835">
        <ele>869.55</ele>
        <time>2016-06-28T12:27:28Z</time>
      </trkpt>
      <trkpt lat="44.45501" lon="5.54829">
        <ele>868.98</ele>
        <time>2016-06-28T12:27:29Z</time>
      </trkpt>
      <trkpt lat="44.45498" lon="5.54821">
        <ele>868.41</ele>
        <time>2016-06-28T12:27:30Z</time>
      </trkpt>
      <trkpt lat="44.45497" lon="5.54812">
        <ele>867.83</ele>
        <time>2016-06-28T12:27:31Z</time>
      </trkpt>
      <trkpt lat="44.45496" lon="5.54803">
        <ele>867.27</ele>
        <time>2016-06-28T12:27:32Z</time>
      </trkpt>
      <trkpt lat="44.45495" lon="5.54783">
        <ele>866.29</ele>
        <time>2016-06-28T12:27:34Z</time>
      </trkpt>
      <trkpt lat="44.45492" lon="5.54714">
        <ele>862.93</ele>
        <time>2016-06-28T12:27:40Z</time>
      </trkpt>
      <trkpt lat="44.45491" lon="5.54702">
        <ele>862.42</ele>
        <time>2016-06-28T12:27:41Z</time>
      </trkpt>
      <trkpt lat="44.45488" lon="5.54691">
        <ele>861.94</ele>
        <time>2016-06-28T12:27:42Z</time>
      </trkpt>
      <trkpt lat="44.45484" lon="5.54681">
        <ele>861.42</ele>
        <time>2016-06-28T12:27:43Z</time>
      </trkpt>
      <trkpt lat="44.4547" lon="5.54651">
        <ele>859.81</ele>
        <time>2016-06-28T12:27:46Z</time>
      </trkpt>
      <trkpt lat="44.45462" lon="5.54631">
        <ele>858.92</ele>
        <time>2016-06-28T12:27:48Z</time>
      </trkpt>
      <trkpt lat="44.45457" lon="5.54621">
        <ele>858.52</ele>
        <time>2016-06-28T12:27:49Z</time>
      </trkpt>
      <trkpt lat="44.45446" lon="5.54604">
        <ele>857.58</ele>
        <time>2016-06-28T12:27:51Z</time>
      </trkpt>
      <trkpt lat="44.4542" lon="5.54578">
        <ele>855.36</ele>
        <time>2016-06-28T12:27:55Z</time>
      </trkpt>
      <trkpt lat="44.45412" lon="5.54574">
        <ele>854.84</ele>
        <time>2016-06-28T12:27:56Z</time>
      </trkpt>
      <trkpt lat="44.45391" lon="5.54563">
        <ele>853.09</ele>
        <time>2016-06-28T12:27:59Z</time>
      </trkpt>
      <trkpt lat="44.45385" lon="5.54558">
        <ele>852.42</ele>
        <time>2016-06-28T12:28:00Z</time>
      </trkpt>
      <trkpt lat="44.45381" lon="5.54552">
        <ele>851.76</ele>
        <time>2016-06-28T12:28:01Z</time>
      </trkpt>
      <trkpt lat="44.45378" lon="5.54546">
        <ele>851.08</ele>
        <time>2016-06-28T12:28:02Z</time>
      </trkpt>
      <trkpt lat="44.45376" lon="5.54538">
        <ele>850.38</ele>
        <time>2016-06-28T12:28:03Z</time>
      </trkpt>
      <trkpt lat="44.45373" lon="5.5453">
        <ele>849.73</ele>
        <time>2016-06-28T12:28:04Z</time>
      </trkpt>
      <trkpt lat="44.45369" lon="5.54521">
        <ele>849.17</ele>
        <time>2016-06-28T12:28:05Z</time>
      </trkpt>
      <trkpt lat="44.45365" lon="5.54513">
        <ele>848.25</ele>
        <time>2016-06-28T12:28:06Z</time>
      </trkpt>
      <trkpt lat="44.45359" lon="5.54505">
        <ele>847.82</ele>
        <time>2016-06-28T12:28:07Z</time>
      </trkpt>
      <trkpt lat="44.45354" lon="5.54498">
        <ele>847.33</ele>
        <time>2016-06-28T12:28:08Z</time>
      </trkpt>
      <trkpt lat="44.45348" lon="5.54491">
        <ele>846.78</ele>
        <time>2016-06-28T12:28:09Z</time>
      </trkpt>
      <trkpt lat="44.45344" lon="5.54485">
        <ele>846.2</ele>
        <time>2016-06-28T12:28:10Z</time>
      </trkpt>
      <trkpt lat="44.45341" lon="5.54477">
        <ele>845.6</ele>
        <time>2016-06-28T12:28:11Z</time>
      </trkpt>
      <trkpt lat="44.4534" lon="5.54468">
        <ele>845</ele>
        <time>2016-06-28T12:28:12Z</time>
      </trkpt>
      <trkpt lat="44.45341" lon="5.54459">
        <ele>844.43</ele>
        <time>2016-06-28T12:28:13Z</time>
      </trkpt>
      <trkpt lat="44.45344" lon="5.54451">
        <ele>843.89</ele>
        <time>2016-06-28T12:28:14Z</time>
      </trkpt>
      <trkpt lat="44.45348" lon="5.54444">
        <ele>843.38</ele>
        <time>2016-06-28T12:28:15Z</time>
      </trkpt>
      <trkpt lat="44.45352" lon="5.54438">
        <ele>842.91</ele>
        <time>2016-06-28T12:28:16Z</time>
      </trkpt>
      <trkpt lat="44.45354" lon="5.54432">
        <ele>842.49</ele>
        <time>2016-06-28T12:28:17Z</time>
      </trkpt>
      <trkpt lat="44.45355" lon="5.54427">
        <ele>842.11</ele>
        <time>2016-06-28T12:28:18Z</time>
      </trkpt>
      <trkpt lat="44.45354" lon="5.54421">
        <ele>841.74</ele>
        <time>2016-06-28T12:28:19Z</time>
      </trkpt>
      <trkpt lat="44.4535" lon="5.54418">
        <ele>841.43</ele>
        <time>2016-06-28T12:28:20Z</time>
      </trkpt>
      <trkpt lat="44.45347" lon="5.54417">
        <ele>841.15</ele>
        <time>2016-06-28T12:28:21Z</time>
      </trkpt>
      <trkpt lat="44.45343" lon="5.54417">
        <ele>840.88</ele>
        <time>2016-06-28T12:28:22Z</time>
      </trkpt>
      <trkpt lat="44.45341" lon="5.54418">
        <ele>840.57</ele>
        <time>2016-06-28T12:28:23Z</time>
      </trkpt>
      <trkpt lat="44.45339" lon="5.54418">
        <ele>840.29</ele>
        <time>2016-06-28T12:28:24Z</time>
      </trkpt>
      <trkpt lat="44.4534" lon="5.54421">
        <ele>838.79</ele>
        <time>2016-06-28T12:28:49Z</time>
      </trkpt>
      <trkpt lat="44.45342" lon="5.5442">
        <ele>838.25</ele>
        <time>2016-06-28T12:29:31Z</time>
      </trkpt>
      <trkpt lat="44.45341" lon="5.54419">
        <ele>837.6</ele>
        <time>2016-06-28T12:30:14Z</time>
      </trkpt>
      <trkpt lat="44.4534" lon="5.54419">
        <ele>836.79</ele>
        <time>2016-06-28T12:31:06Z</time>
      </trkpt>
      <trkpt lat="44.45339" lon="5.54421">
        <ele>836.37</ele>
        <time>2016-06-28T12:31:41Z</time>
      </trkpt>
      <trkpt lat="44.45335" lon="5.54422">
        <ele>836.03</ele>
        <time>2016-06-28T12:31:58Z</time>
      </trkpt>
      <trkpt lat="44.45335" lon="5.54424">
        <ele>835.98</ele>
        <time>2016-06-28T12:31:59Z</time>
      </trkpt>
      <trkpt lat="44.45334" lon="5.54426">
        <ele>835.94</ele>
        <time>2016-06-28T12:32:00Z</time>
      </trkpt>
      <trkpt lat="44.45333" lon="5.5443">
        <ele>835.89</ele>
        <time>2016-06-28T12:32:01Z</time>
      </trkpt>
      <trkpt lat="44.45331" lon="5.54433">
        <ele>835.85</ele>
        <time>2016-06-28T12:32:02Z</time>
      </trkpt>
      <trkpt lat="44.4533" lon="5.54438">
        <ele>835.76</ele>
        <time>2016-06-28T12:32:03Z</time>
      </trkpt>
      <trkpt lat="44.45329" lon="5.54442">
        <ele>835.66</ele>
        <time>2016-06-28T12:32:04Z</time>
      </trkpt>
      <trkpt lat="44.45327" lon="5.54445">
        <ele>835.55</ele>
        <time>2016-06-28T12:32:05Z</time>
      </trkpt>
      <trkpt lat="44.45325" lon="5.54449">
        <ele>835.43</ele>
        <time>2016-06-28T12:32:06Z</time>
      </trkpt>
      <trkpt lat="44.45324" lon="5.54453">
        <ele>835.28</ele>
        <time>2016-06-28T12:32:07Z</time>
      </trkpt>
      <trkpt lat="44.45323" lon="5.54459">
        <ele>833.74</ele>
        <time>2016-06-28T12:32:21Z</time>
      </trkpt>
      <trkpt lat="44.45323" lon="5.54462">
        <ele>833.74</ele>
        <time>2016-06-28T12:32:22Z</time>
      </trkpt>
      <trkpt lat="44.45321" lon="5.54465">
        <ele>833.73</ele>
        <time>2016-06-28T12:32:23Z</time>
      </trkpt>
      <trkpt lat="44.4532" lon="5.5447">
        <ele>833.7</ele>
        <time>2016-06-28T12:32:24Z</time>
      </trkpt>
      <trkpt lat="44.45318" lon="5.54474">
        <ele>833.64</ele>
        <time>2016-06-28T12:32:25Z</time>
      </trkpt>
      <trkpt lat="44.45316" lon="5.5448">
        <ele>833.52</ele>
        <time>2016-06-28T12:32:26Z</time>
      </trkpt>
      <trkpt lat="44.45314" lon="5.54486">
        <ele>833.35</ele>
        <time>2016-06-28T12:32:27Z</time>
      </trkpt>
      <trkpt lat="44.4531" lon="5.54499">
        <ele>832.96</ele>
        <time>2016-06-28T12:32:29Z</time>
      </trkpt>
      <trkpt lat="44.45306" lon="5.54505">
        <ele>832.72</ele>
        <time>2016-06-28T12:32:30Z</time>
      </trkpt>
      <trkpt lat="44.45301" lon="5.54508">
        <ele>832.42</ele>
        <time>2016-06-28T12:32:31Z</time>
      </trkpt>
      <trkpt lat="44.45294" lon="5.54508">
        <ele>832.1</ele>
        <time>2016-06-28T12:32:32Z</time>
      </trkpt>
      <trkpt lat="44.45288" lon="5.54504">
        <ele>831.78</ele>
        <time>2016-06-28T12:32:33Z</time>
      </trkpt>
      <trkpt lat="44.45282" lon="5.54499">
        <ele>831.42</ele>
        <time>2016-06-28T12:32:34Z</time>
      </trkpt>
      <trkpt lat="44.45258" lon="5.54474">
        <ele>828.72</ele>
        <time>2016-06-28T12:32:38Z</time>
      </trkpt>
      <trkpt lat="44.45231" lon="5.54437">
        <ele>825.3</ele>
        <time>2016-06-28T12:32:44Z</time>
      </trkpt>
      <trkpt lat="44.45222" lon="5.54426">
        <ele>824.27</ele>
        <time>2016-06-28T12:32:46Z</time>
      </trkpt>
      <trkpt lat="44.45213" lon="5.54414">
        <ele>823.39</ele>
        <time>2016-06-28T12:32:48Z</time>
      </trkpt>
      <trkpt lat="44.45208" lon="5.54409">
        <ele>823.01</ele>
        <time>2016-06-28T12:32:49Z</time>
      </trkpt>
      <trkpt lat="44.45202" lon="5.54405">
        <ele>822.61</ele>
        <time>2016-06-28T12:32:50Z</time>
      </trkpt>
      <trkpt lat="44.45191" lon="5.54396">
        <ele>821.81</ele>
        <time>2016-06-28T12:32:52Z</time>
      </trkpt>
      <trkpt lat="44.45178" lon="5.54386">
        <ele>821.01</ele>
        <time>2016-06-28T12:32:54Z</time>
      </trkpt>
      <trkpt lat="44.45171" lon="5.54382">
        <ele>820.55</ele>
        <time>2016-06-28T12:32:55Z</time>
      </trkpt>
      <trkpt lat="44.45127" lon="5.54361">
        <ele>817.34</ele>
        <time>2016-06-28T12:33:01Z</time>
      </trkpt>
      <trkpt lat="44.45084" lon="5.54348">
        <ele>814.48</ele>
        <time>2016-06-28T12:33:07Z</time>
      </trkpt>
      <trkpt lat="44.45051" lon="5.54335">
        <ele>812.43</ele>
        <time>2016-06-28T12:33:12Z</time>
      </trkpt>
      <trkpt lat="44.45021" lon="5.54307">
        <ele>809.73</ele>
        <time>2016-06-28T12:33:20Z</time>
      </trkpt>
      <trkpt lat="44.4502" lon="5.54305">
        <ele>809.49</ele>
        <time>2016-06-28T12:33:21Z</time>
      </trkpt>
      <trkpt lat="44.4502" lon="5.54302">
        <ele>809.29</ele>
        <time>2016-06-28T12:33:22Z</time>
      </trkpt>
      <trkpt lat="44.45019" lon="5.54299">
        <ele>809.13</ele>
        <time>2016-06-28T12:33:23Z</time>
      </trkpt>
      <trkpt lat="44.45019" lon="5.54296">
        <ele>808.9</ele>
        <time>2016-06-28T12:33:24Z</time>
      </trkpt>
      <trkpt lat="44.45018" lon="5.54293">
        <ele>808.8</ele>
        <time>2016-06-28T12:33:25Z</time>
      </trkpt>
      <trkpt lat="44.45018" lon="5.54291">
        <ele>808.69</ele>
        <time>2016-06-28T12:33:26Z</time>
      </trkpt>
      <trkpt lat="44.45017" lon="5.54288">
        <ele>807.98</ele>
        <time>2016-06-28T12:33:49Z</time>
      </trkpt>
      <trkpt lat="44.45021" lon="5.54282">
        <ele>807.37</ele>
        <time>2016-06-28T12:34:19Z</time>
      </trkpt>
      <trkpt lat="44.45023" lon="5.5428">
        <ele>807.37</ele>
        <time>2016-06-28T12:34:21Z</time>
      </trkpt>
      <trkpt lat="44.45024" lon="5.54278">
        <ele>807.37</ele>
        <time>2016-06-28T12:34:23Z</time>
      </trkpt>
      <trkpt lat="44.45025" lon="5.54277">
        <ele>807.38</ele>
        <time>2016-06-28T12:34:24Z</time>
      </trkpt>
      <trkpt lat="44.45027" lon="5.54275">
        <ele>807.39</ele>
        <time>2016-06-28T12:34:25Z</time>
      </trkpt>
      <trkpt lat="44.45028" lon="5.54272">
        <ele>807.41</ele>
        <time>2016-06-28T12:34:26Z</time>
      </trkpt>
      <trkpt lat="44.4503" lon="5.54269">
        <ele>807.43</ele>
        <time>2016-06-28T12:34:27Z</time>
      </trkpt>
      <trkpt lat="44.45031" lon="5.54266">
        <ele>807.46</ele>
        <time>2016-06-28T12:34:28Z</time>
      </trkpt>
      <trkpt lat="44.45033" lon="5.54263">
        <ele>807.49</ele>
        <time>2016-06-28T12:34:29Z</time>
      </trkpt>
      <trkpt lat="44.45058" lon="5.54185">
        <ele>807.35</ele>
        <time>2016-06-28T12:34:50Z</time>
      </trkpt>
      <trkpt lat="44.45081" lon="5.54098">
        <ele>787.3</ele>
        <time>2016-06-28T13:22:54Z</time>
      </trkpt>
      <trkpt lat="44.45062" lon="5.54162">
        <ele>789.15</ele>
        <time>2016-06-28T13:23:13Z</time>
      </trkpt>
      <trkpt lat="44.45045" lon="5.54226">
        <ele>790.66</ele>
        <time>2016-06-28T13:23:30Z</time>
      </trkpt>
      <trkpt lat="44.45024" lon="5.54282">
        <ele>790.32</ele>
        <time>2016-06-28T13:23:50Z</time>
      </trkpt>
      <trkpt lat="44.45019" lon="5.54282">
        <ele>789.77</ele>
        <time>2016-06-28T13:24:16Z</time>
      </trkpt>
      <trkpt lat="44.45011" lon="5.54285">
        <ele>789.46</ele>
        <time>2016-06-28T13:24:42Z</time>
      </trkpt>
      <trkpt lat="44.45021" lon="5.54285">
        <ele>790.2</ele>
        <time>2016-06-28T13:25:13Z</time>
      </trkpt>
      <trkpt lat="44.4502" lon="5.54285">
        <ele>777.11</ele>
        <time>2016-06-28T13:25:20Z</time>
      </trkpt>
    </trkseg>
  </trk>
</gpx>